<?xml version='1.0' encoding='UTF-8'?><gpx version="1.1" creator="JPX - https://github.com/jenetics/jpx" xmlns="http://www.topografix.com/GPX/1/1"><trk><trkseg><trkpt lat="44.82608952549814" lon="7.302690716655446"><ele>397.99999999999994</ele><time>2026-04-09T15:18:29Z</time></trkpt><trkpt lat="44.82600505999572" lon="7.302703919798343"><ele>398.0</ele><time>2026-04-09T15:18:31Z</time></trkpt><trkpt lat="44.82598865997853" lon="7.302579909852414"><ele>398.0</ele><time>2026-04-09T15:18:33.001Z</time></trkpt><trkpt lat="44.82600826011336" lon="7.302471594329062"><ele>398.0</ele><time>2026-04-09T15:18:35.001Z</time></trkpt><trkpt lat="44.8260499700884" lon="7.3023910458570205"><ele>397.99999999999994</ele><time>2026-04-09T15:18:39.001Z</time></trkpt><trkpt lat="44.8260409397191" lon="7.302302400853945"><ele>398.0</ele><time>2026-04-09T15:18:45.001Z</time></trkpt><trkpt lat="44.82610632183254" lon="7.302217213557122"><ele>397.3333333333333</ele><time>2026-04-09T15:18:47.001Z</time></trkpt><trkpt lat="44.82616962927003" lon="7.302122967956551"><ele>396.66666666666663</ele><time>2026-04-09T15:18:49.001Z</time></trkpt><trkpt lat="44.82623350106328" lon="7.3020310297100925"><ele>396.0</ele><time>2026-04-09T15:18:51.001Z</time></trkpt><trkpt lat="44.82629188358168" lon="7.301952316027721"><ele>395.33333333333337</ele><time>2026-04-09T15:18:53.001Z</time></trkpt><trkpt lat="44.82637183359945" lon="7.30189472588512"><ele>394.6666666666667</ele><time>2026-04-09T15:18:56.001Z</time></trkpt><trkpt lat="44.826435082037925" lon="7.301823678495314"><ele>394.0</ele><time>2026-04-09T15:18:58.001Z</time></trkpt><trkpt lat="44.826504892430634" lon="7.301728982325973"><ele>394.0</ele><time>2026-04-09T15:19:00.001Z</time></trkpt><trkpt lat="44.8265719483367" lon="7.301640322156455"><ele>394.0</ele><time>2026-04-09T15:19:02.001Z</time></trkpt><trkpt lat="44.826645046714866" lon="7.301548372473559"><ele>394.0</ele><time>2026-04-09T15:19:04.001Z</time></trkpt><trkpt lat="44.826718618602925" lon="7.301457248004911"><ele>394.0</ele><time>2026-04-09T15:19:06.001Z</time></trkpt><trkpt lat="44.82679404695731" lon="7.301368790116352"><ele>394.0</ele><time>2026-04-09T15:19:08.001Z</time></trkpt><trkpt lat="44.82687321336767" lon="7.301280865426913"><ele>394.83333333333337</ele><time>2026-04-09T15:19:10.001Z</time></trkpt><trkpt lat="44.82694778076592" lon="7.301202813434024"><ele>395.6666666666667</ele><time>2026-04-09T15:19:12.001Z</time></trkpt><trkpt lat="44.827014887476864" lon="7.301135201210207"><ele>396.5</ele><time>2026-04-09T15:19:14.001Z</time></trkpt><trkpt lat="44.82706652181598" lon="7.301057423530766"><ele>397.33333333333337</ele><time>2026-04-09T15:19:16.001Z</time></trkpt><trkpt lat="44.82708174619761" lon="7.300917656042247"><ele>398.1666666666667</ele><time>2026-04-09T15:19:18.001Z</time></trkpt><trkpt lat="44.827079194542634" lon="7.3008006758886665"><ele>399.0</ele><time>2026-04-09T15:19:20.001Z</time></trkpt><trkpt lat="44.8270796634262" lon="7.300706323613538"><ele>399.0</ele><time>2026-04-09T15:19:22.001Z</time></trkpt><trkpt lat="44.827070529606054" lon="7.300597783791435"><ele>399.0</ele><time>2026-04-09T15:19:25.001Z</time></trkpt><trkpt lat="44.827045979209515" lon="7.300501061850988"><ele>399.0</ele><time>2026-04-09T15:19:28.001Z</time></trkpt><trkpt lat="44.827024289468625" lon="7.300397746604258"><ele>399.0</ele><time>2026-04-09T15:19:31.001Z</time></trkpt><trkpt lat="44.82699531179991" lon="7.300288501195867"><ele>399.0</ele><time>2026-04-09T15:19:34.001Z</time></trkpt><trkpt lat="44.82697112380619" lon="7.300201482547318"><ele>399.0</ele><time>2026-04-09T15:19:36.001Z</time></trkpt><trkpt lat="44.826956453698195" lon="7.30011181679919"><ele>399.0</ele><time>2026-04-09T15:19:38.001Z</time></trkpt><trkpt lat="44.82692226977807" lon="7.29999018767314"><ele>399.42857142857144</ele><time>2026-04-09T15:19:41.001Z</time></trkpt><trkpt lat="44.82689867885263" lon="7.299900070472456"><ele>399.8571428571429</ele><time>2026-04-09T15:19:44.001Z</time></trkpt><trkpt lat="44.826866299437704" lon="7.299794986299119"><ele>400.2857142857143</ele><time>2026-04-09T15:19:48.001Z</time></trkpt><trkpt lat="44.826849142614606" lon="7.299707340359822"><ele>400.7142857142857</ele><time>2026-04-09T15:19:51.001Z</time></trkpt><trkpt lat="44.82683395905369" lon="7.299609137197874"><ele>401.14285714285717</ele><time>2026-04-09T15:19:54.001Z</time></trkpt><trkpt lat="44.82681825808261" lon="7.299521849513847"><ele>401.57142857142856</ele><time>2026-04-09T15:19:57.001Z</time></trkpt><trkpt lat="44.82679562166518" lon="7.299415770977948"><ele>402.0</ele><time>2026-04-09T15:20:01.001Z</time></trkpt><trkpt lat="44.82677953358581" lon="7.299307647465139"><ele>402.1666666666667</ele><time>2026-04-09T15:20:05.001Z</time></trkpt><trkpt lat="44.82676190752208" lon="7.299194318512359"><ele>402.33333333333337</ele><time>2026-04-09T15:20:08Z</time></trkpt><trkpt lat="44.82670176179194" lon="7.299228274880588"><ele>402.5</ele><time>2026-04-09T15:20:11Z</time></trkpt><trkpt lat="44.82664058604806" lon="7.299257113958656"><ele>402.6666666666667</ele><time>2026-04-09T15:20:13Z</time></trkpt><trkpt lat="44.826568845335515" lon="7.299284231892712"><ele>402.83333333333337</ele><time>2026-04-09T15:20:15Z</time></trkpt><trkpt lat="44.826493150844364" lon="7.299318193838259"><ele>403.0</ele><time>2026-04-09T15:20:17Z</time></trkpt><trkpt lat="44.82640686609189" lon="7.299349776532602"><ele>403.0</ele><time>2026-04-09T15:20:19Z</time></trkpt><trkpt lat="44.82630644344544" lon="7.29939550514499"><ele>403.0</ele><time>2026-04-09T15:20:21Z</time></trkpt><trkpt lat="44.82619706836827" lon="7.299440637378553"><ele>403.0</ele><time>2026-04-09T15:20:23Z</time></trkpt><trkpt lat="44.82609663427672" lon="7.299486411440889"><ele>403.0</ele><time>2026-04-09T15:20:25Z</time></trkpt><trkpt lat="44.826023344305064" lon="7.299515175524882"><ele>403.0</ele><time>2026-04-09T15:20:27Z</time></trkpt><trkpt lat="44.82594640799384" lon="7.299547556541941"><ele>402.50000000000006</ele><time>2026-04-09T15:20:30Z</time></trkpt><trkpt lat="44.82587153242381" lon="7.299576297376025"><ele>402.0</ele><time>2026-04-09T15:20:32Z</time></trkpt><trkpt lat="44.8257919366842" lon="7.299601190247652"><ele>401.5</ele><time>2026-04-09T15:20:35Z</time></trkpt><trkpt lat="44.82572698833941" lon="7.299621616202641"><ele>401.0</ele><time>2026-04-09T15:20:38Z</time></trkpt><trkpt lat="44.825695621202236" lon="7.29974181133406"><ele>400.50000000000006</ele><time>2026-04-09T15:20:43Z</time></trkpt><trkpt lat="44.82572876386567" lon="7.299825981838869"><ele>400.0</ele><time>2026-04-09T15:20:45Z</time></trkpt><trkpt lat="44.82575009410558" lon="7.299957616709143"><ele>399.50000000000006</ele><time>2026-04-09T15:20:48Z</time></trkpt><trkpt lat="44.82576658726986" lon="7.300049888314986"><ele>399.0</ele><time>2026-04-09T15:20:50.001Z</time></trkpt><trkpt lat="44.82579901049048" lon="7.300154332206814"><ele>398.5</ele><time>2026-04-09T15:20:52.001Z</time></trkpt><trkpt lat="44.825811219860526" lon="7.300260102173659"><ele>398.0</ele><time>2026-04-09T15:20:54.001Z</time></trkpt><trkpt lat="44.82582323516603" lon="7.300354078132992"><ele>397.50000000000006</ele><time>2026-04-09T15:20:56.001Z</time></trkpt><trkpt lat="44.82582642286611" lon="7.300460343955088"><ele>397.0</ele><time>2026-04-09T15:20:58.001Z</time></trkpt><trkpt lat="44.82583041687942" lon="7.300591937764613"><ele>396.20000000000005</ele><time>2026-04-09T15:21:00.001Z</time></trkpt><trkpt lat="44.82583532572454" lon="7.3007447649051915"><ele>395.4</ele><time>2026-04-09T15:21:02.001Z</time></trkpt><trkpt lat="44.82581970442762" lon="7.300897096689052"><ele>394.6</ele><time>2026-04-09T15:21:04.001Z</time></trkpt><trkpt lat="44.82576476335926" lon="7.300988511438721"><ele>393.79999999999995</ele><time>2026-04-09T15:21:10.001Z</time></trkpt><trkpt lat="44.825642460768606" lon="7.301010898494205"><ele>393.0</ele><time>2026-04-09T15:21:12.001Z</time></trkpt><trkpt lat="44.82553708073734" lon="7.301040575529986"><ele>393.0</ele><time>2026-04-09T15:21:14.001Z</time></trkpt><trkpt lat="44.82543391276751" lon="7.3010749377146285"><ele>393.0</ele><time>2026-04-09T15:21:16.001Z</time></trkpt><trkpt lat="44.82533253138113" lon="7.30110100011013"><ele>393.0</ele><time>2026-04-09T15:21:18.001Z</time></trkpt><trkpt lat="44.82524228485937" lon="7.301132966808564"><ele>393.0</ele><time>2026-04-09T15:21:20.001Z</time></trkpt><trkpt lat="44.825150660983525" lon="7.301147949177288"><ele>393.0</ele><time>2026-04-09T15:21:22.001Z</time></trkpt><trkpt lat="44.82505277429146" lon="7.3011732480988085"><ele>393.1666666666667</ele><time>2026-04-09T15:21:24.001Z</time></trkpt><trkpt lat="44.82496634851905" lon="7.301197157126056"><ele>393.33333333333337</ele><time>2026-04-09T15:21:26.001Z</time></trkpt><trkpt lat="44.82489127843877" lon="7.301201766154213"><ele>393.5</ele><time>2026-04-09T15:21:28.001Z</time></trkpt><trkpt lat="44.824818641908955" lon="7.301225852156069"><ele>393.6666666666667</ele><time>2026-04-09T15:21:30.001Z</time></trkpt><trkpt lat="44.82473298106874" lon="7.301244586461506"><ele>393.83333333333337</ele><time>2026-04-09T15:21:32.001Z</time></trkpt><trkpt lat="44.82465288379904" lon="7.30125974143326"><ele>394.0</ele><time>2026-04-09T15:21:34.001Z</time></trkpt><trkpt lat="44.82457801032905" lon="7.301295080333538"><ele>394.0</ele><time>2026-04-09T15:21:36.001Z</time></trkpt><trkpt lat="44.82453346354181" lon="7.301361151208645"><ele>394.0</ele><time>2026-04-09T15:21:38.001Z</time></trkpt><trkpt lat="44.824516670473606" lon="7.301462555519477"><ele>394.0</ele><time>2026-04-09T15:21:40.001Z</time></trkpt><trkpt lat="44.82455819501728" lon="7.301563046165873"><ele>394.0</ele><time>2026-04-09T15:21:42.001Z</time></trkpt><trkpt lat="44.82456295125441" lon="7.301670912282268"><ele>394.0</ele><time>2026-04-09T15:21:45.001Z</time></trkpt><trkpt lat="44.82456286122418" lon="7.301778951488162"><ele>394.0</ele><time>2026-04-09T15:21:47.001Z</time></trkpt><trkpt lat="44.824564376733306" lon="7.301884417849083"><ele>394.0</ele><time>2026-04-09T15:21:49.001Z</time></trkpt><trkpt lat="44.824568172358056" lon="7.302026097057188"><ele>393.6666666666667</ele><time>2026-04-09T15:21:52.001Z</time></trkpt><trkpt lat="44.82457074151067" lon="7.302138677868118"><ele>393.33333333333337</ele><time>2026-04-09T15:21:54.001Z</time></trkpt><trkpt lat="44.82456850081734" lon="7.302232120559132"><ele>393.0</ele><time>2026-04-09T15:21:57.001Z</time></trkpt><trkpt lat="44.82452025184226" lon="7.302309853746622"><ele>392.66666666666663</ele><time>2026-04-09T15:22:01.001Z</time></trkpt><trkpt lat="44.8245286660183" lon="7.302427472239915"><ele>392.3333333333333</ele><time>2026-04-09T15:22:04.001Z</time></trkpt><trkpt lat="44.82451426524024" lon="7.302557825058822"><ele>392.0</ele><time>2026-04-09T15:22:07.001Z</time></trkpt><trkpt lat="44.824504776274786" lon="7.302663722652227"><ele>391.66666666666663</ele><time>2026-04-09T15:22:09.001Z</time></trkpt><trkpt lat="44.82450599571306" lon="7.302797628012724"><ele>391.3333333333333</ele><time>2026-04-09T15:22:11.001Z</time></trkpt><trkpt lat="44.824504538562444" lon="7.302939721477075"><ele>391.0</ele><time>2026-04-09T15:22:13Z</time></trkpt><trkpt lat="44.82451041404137" lon="7.303072208161978"><ele>390.66666666666663</ele><time>2026-04-09T15:22:15Z</time></trkpt><trkpt lat="44.82452138086489" lon="7.3031753901580965"><ele>390.3333333333333</ele><time>2026-04-09T15:22:18Z</time></trkpt><trkpt lat="44.82454095247219" lon="7.303267979969041"><ele>390.0</ele><time>2026-04-09T15:22:23Z</time></trkpt><trkpt lat="44.824541632624424" lon="7.303401777331574"><ele>389.8</ele><time>2026-04-09T15:22:27Z</time></trkpt><trkpt lat="44.8245727662645" lon="7.303515493943842"><ele>389.6</ele><time>2026-04-09T15:22:29Z</time></trkpt><trkpt lat="44.82456090867329" lon="7.303658989032635"><ele>389.4</ele><time>2026-04-09T15:22:31Z</time></trkpt><trkpt lat="44.82456701278878" lon="7.303821911007785"><ele>389.2</ele><time>2026-04-09T15:22:33Z</time></trkpt><trkpt lat="44.82456910894907" lon="7.303983704062704"><ele>389.0</ele><time>2026-04-09T15:22:35Z</time></trkpt><trkpt lat="44.82457991817439" lon="7.304133210364725"><ele>388.4</ele><time>2026-04-09T15:22:37Z</time></trkpt><trkpt lat="44.824563667164774" lon="7.304278966659431"><ele>387.79999999999995</ele><time>2026-04-09T15:22:39Z</time></trkpt><trkpt lat="44.82456157594462" lon="7.30442947918354"><ele>387.20000000000005</ele><time>2026-04-09T15:22:41Z</time></trkpt><trkpt lat="44.82455437026601" lon="7.304573635443741"><ele>386.6</ele><time>2026-04-09T15:22:43Z</time></trkpt><trkpt lat="44.82453437684137" lon="7.30469563292567"><ele>386.0</ele><time>2026-04-09T15:22:45Z</time></trkpt><trkpt lat="44.824450671997184" lon="7.304757156340686"><ele>385.99999999999994</ele><time>2026-04-09T15:22:48Z</time></trkpt><trkpt lat="44.824379884075434" lon="7.304724739175793"><ele>386.0</ele><time>2026-04-09T15:22:50Z</time></trkpt><trkpt lat="44.82432260935807" lon="7.30466153285669"><ele>386.0</ele><time>2026-04-09T15:22:52Z</time></trkpt><trkpt lat="44.82424976603671" lon="7.304627731464172"><ele>386.0</ele><time>2026-04-09T15:22:54Z</time></trkpt><trkpt lat="44.82417836482852" lon="7.304738183365669"><ele>385.99999999999994</ele><time>2026-04-09T15:22:56Z</time></trkpt><trkpt lat="44.824123208401" lon="7.3048545184330935"><ele>386.0</ele><time>2026-04-09T15:22:58Z</time></trkpt><trkpt lat="44.82408422071432" lon="7.304989467369374"><ele>385.8333333333333</ele><time>2026-04-09T15:23:00Z</time></trkpt><trkpt lat="44.82404403229235" lon="7.305100336527233"><ele>385.66666666666663</ele><time>2026-04-09T15:23:03.001Z</time></trkpt><trkpt lat="44.824003758126246" lon="7.305195130986776"><ele>385.5</ele><time>2026-04-09T15:23:05.001Z</time></trkpt><trkpt lat="44.82395348359534" lon="7.305287932683618"><ele>385.33333333333337</ele><time>2026-04-09T15:23:07.001Z</time></trkpt><trkpt lat="44.82389503142821" lon="7.305374292307587"><ele>385.1666666666667</ele><time>2026-04-09T15:23:09.001Z</time></trkpt><trkpt lat="44.823832961199656" lon="7.305462177030807"><ele>385.0</ele><time>2026-04-09T15:23:11.001Z</time></trkpt><trkpt lat="44.82377308396215" lon="7.305567947260167"><ele>385.00000000000006</ele><time>2026-04-09T15:23:13.001Z</time></trkpt><trkpt lat="44.82370773247577" lon="7.30566495080306"><ele>385.0</ele><time>2026-04-09T15:23:15.001Z</time></trkpt><trkpt lat="44.8236574881812" lon="7.305762800041627"><ele>385.0</ele><time>2026-04-09T15:23:17.001Z</time></trkpt><trkpt lat="44.82361222857043" lon="7.305831312175219"><ele>385.0</ele><time>2026-04-09T15:23:19.001Z</time></trkpt><trkpt lat="44.82354891925298" lon="7.305904281254082"><ele>385.00000000000006</ele><time>2026-04-09T15:23:21.001Z</time></trkpt><trkpt lat="44.82347674566363" lon="7.305988518125346"><ele>385.0</ele><time>2026-04-09T15:23:23.001Z</time></trkpt><trkpt lat="44.82340864654449" lon="7.3060925021023"><ele>385.00000000000006</ele><time>2026-04-09T15:23:25.001Z</time></trkpt><trkpt lat="44.823333968114945" lon="7.306197254100278"><ele>385.0</ele><time>2026-04-09T15:23:27.001Z</time></trkpt><trkpt lat="44.823264904200535" lon="7.306298341052997"><ele>385.0</ele><time>2026-04-09T15:23:29.001Z</time></trkpt><trkpt lat="44.8232016105022" lon="7.306391125052841"><ele>385.0</ele><time>2026-04-09T15:23:31.001Z</time></trkpt><trkpt lat="44.8231509884961" lon="7.306453673404926"><ele>385.00000000000006</ele><time>2026-04-09T15:23:33.001Z</time></trkpt><trkpt lat="44.82309704785726" lon="7.306523193099556"><ele>385.0</ele><time>2026-04-09T15:23:35.001Z</time></trkpt><trkpt lat="44.823040940520215" lon="7.306594591855945"><ele>384.33333333333337</ele><time>2026-04-09T15:23:37.001Z</time></trkpt><trkpt lat="44.822979023613875" lon="7.306684165179738"><ele>383.6666666666667</ele><time>2026-04-09T15:23:39.001Z</time></trkpt><trkpt lat="44.82291381486597" lon="7.306771437288638"><ele>383.0</ele><time>2026-04-09T15:23:41.001Z</time></trkpt><trkpt lat="44.82284896243658" lon="7.306845958465181"><ele>382.33333333333337</ele><time>2026-04-09T15:23:43.001Z</time></trkpt><trkpt lat="44.82279232002049" lon="7.306923560904532"><ele>381.6666666666667</ele><time>2026-04-09T15:23:45.001Z</time></trkpt><trkpt lat="44.82274945012147" lon="7.307007119115775"><ele>381.0</ele><time>2026-04-09T15:23:49.001Z</time></trkpt><trkpt lat="44.822793352947535" lon="7.307106052805911"><ele>381.0</ele><time>2026-04-09T15:23:51.001Z</time></trkpt><trkpt lat="44.82280827501697" lon="7.307195726513335"><ele>381.0</ele><time>2026-04-09T15:23:53.001Z</time></trkpt><trkpt lat="44.82274515029628" lon="7.307279572137629"><ele>381.0</ele><time>2026-04-09T15:23:55.001Z</time></trkpt><trkpt lat="44.82264171592911" lon="7.307297589744076"><ele>381.0</ele><time>2026-04-09T15:23:57.001Z</time></trkpt><trkpt lat="44.82252117770028" lon="7.307335467510712"><ele>381.0</ele><time>2026-04-09T15:23:59.001Z</time></trkpt><trkpt lat="44.82245556742023" lon="7.307365184795818"><ele>381.0</ele><time>2026-04-09T15:24:00.001Z</time></trkpt><trkpt lat="44.82239095770269" lon="7.307396555398572"><ele>381.2857142857143</ele><time>2026-04-09T15:24:01.001Z</time></trkpt><trkpt lat="44.822329437374734" lon="7.307434306721777"><ele>381.5714285714286</ele><time>2026-04-09T15:24:02.001Z</time></trkpt><trkpt lat="44.82226944561601" lon="7.307475760639509"><ele>381.8571428571429</ele><time>2026-04-09T15:24:03.001Z</time></trkpt><trkpt lat="44.82220897809237" lon="7.307514516177272"><ele>382.1428571428571</ele><time>2026-04-09T15:24:04.001Z</time></trkpt><trkpt lat="44.822150173634164" lon="7.307552792754601"><ele>382.42857142857144</ele><time>2026-04-09T15:24:05.001Z</time></trkpt><trkpt lat="44.822092983574784" lon="7.307592859243129"><ele>382.7142857142857</ele><time>2026-04-09T15:24:06.001Z</time></trkpt><trkpt lat="44.822037466926666" lon="7.307635774115463"><ele>383.0</ele><time>2026-04-09T15:24:07.001Z</time></trkpt><trkpt lat="44.82192829296669" lon="7.307717913276409"><ele>383.0</ele><time>2026-04-09T15:24:09.001Z</time></trkpt><trkpt lat="44.821819200112536" lon="7.30780134537766"><ele>383.0</ele><time>2026-04-09T15:24:11.001Z</time></trkpt><trkpt lat="44.82170808160788" lon="7.30787459960148"><ele>383.0</ele><time>2026-04-09T15:24:13.001Z</time></trkpt><trkpt lat="44.82160268508183" lon="7.307958630177917"><ele>383.0</ele><time>2026-04-09T15:24:15.001Z</time></trkpt><trkpt lat="44.82150116245024" lon="7.308055976112364"><ele>383.25</ele><time>2026-04-09T15:24:17.001Z</time></trkpt><trkpt lat="44.82139250601939" lon="7.308124619554337"><ele>383.5</ele><time>2026-04-09T15:24:19Z</time></trkpt><trkpt lat="44.8212857169963" lon="7.308185244170691"><ele>383.75</ele><time>2026-04-09T15:24:21Z</time></trkpt><trkpt lat="44.8211901259274" lon="7.308251825096248"><ele>384.0</ele><time>2026-04-09T15:24:23Z</time></trkpt><trkpt lat="44.82108882943161" lon="7.308343872812479"><ele>383.99999999999994</ele><time>2026-04-09T15:24:25Z</time></trkpt><trkpt lat="44.82102179811217" lon="7.308390843510785"><ele>384.0</ele><time>2026-04-09T15:24:26Z</time></trkpt><trkpt lat="44.82095412616889" lon="7.308440955402733"><ele>384.0</ele><time>2026-04-09T15:24:27Z</time></trkpt><trkpt lat="44.820888038132765" lon="7.308491059133438"><ele>384.0</ele><time>2026-04-09T15:24:28Z</time></trkpt><trkpt lat="44.82082610695745" lon="7.308536735435809"><ele>384.0</ele><time>2026-04-09T15:24:29Z</time></trkpt><trkpt lat="44.820767229802016" lon="7.308581412123399"><ele>383.99999999999994</ele><time>2026-04-09T15:24:30Z</time></trkpt><trkpt lat="44.82071140062381" lon="7.308624779441201"><ele>384.0</ele><time>2026-04-09T15:24:31Z</time></trkpt><trkpt lat="44.82059773381897" lon="7.308709951629556"><ele>383.85714285714283</ele><time>2026-04-09T15:24:33Z</time></trkpt><trkpt lat="44.820539402967555" lon="7.308755127934918"><ele>383.7142857142857</ele><time>2026-04-09T15:24:34Z</time></trkpt><trkpt lat="44.82048019881072" lon="7.3087993739269965"><ele>383.57142857142856</ele><time>2026-04-09T15:24:35Z</time></trkpt><trkpt lat="44.82041971848724" lon="7.308842391075664"><ele>383.42857142857144</ele><time>2026-04-09T15:24:36Z</time></trkpt><trkpt lat="44.820358173625486" lon="7.308885463392848"><ele>383.2857142857143</ele><time>2026-04-09T15:24:37Z</time></trkpt><trkpt lat="44.82029921434479" lon="7.308929965173909"><ele>383.1428571428571</ele><time>2026-04-09T15:24:38Z</time></trkpt><trkpt lat="44.82024121259391" lon="7.308975656966674"><ele>383.0</ele><time>2026-04-09T15:24:39Z</time></trkpt><trkpt lat="44.820183135976684" lon="7.309020724606156"><ele>382.57142857142856</ele><time>2026-04-09T15:24:40Z</time></trkpt><trkpt lat="44.82012365232919" lon="7.30906382048305"><ele>382.1428571428571</ele><time>2026-04-09T15:24:41Z</time></trkpt><trkpt lat="44.82006430305573" lon="7.3091079289416125"><ele>381.7142857142857</ele><time>2026-04-09T15:24:42Z</time></trkpt><trkpt lat="44.82000697572552" lon="7.309152900371972"><ele>381.2857142857143</ele><time>2026-04-09T15:24:43Z</time></trkpt><trkpt lat="44.81994943334384" lon="7.309195817992956"><ele>380.8571428571429</ele><time>2026-04-09T15:24:44Z</time></trkpt><trkpt lat="44.819888976088585" lon="7.309237372176281"><ele>380.42857142857144</ele><time>2026-04-09T15:24:45Z</time></trkpt><trkpt lat="44.81983046198055" lon="7.309279750510268"><ele>380.0</ele><time>2026-04-09T15:24:46Z</time></trkpt><trkpt lat="44.819773204861534" lon="7.309325858083981"><ele>380.0</ele><time>2026-04-09T15:24:47Z</time></trkpt><trkpt lat="44.81971398794162" lon="7.309370750766003"><ele>380.0</ele><time>2026-04-09T15:24:48Z</time></trkpt><trkpt lat="44.8196565332247" lon="7.309414098063876"><ele>380.0</ele><time>2026-04-09T15:24:49Z</time></trkpt><trkpt lat="44.81959977856568" lon="7.309457498979058"><ele>380.0</ele><time>2026-04-09T15:24:50Z</time></trkpt><trkpt lat="44.819543117552215" lon="7.3095017489190015"><ele>380.0</ele><time>2026-04-09T15:24:51Z</time></trkpt><trkpt lat="44.819487252459915" lon="7.309546493664131"><ele>380.0</ele><time>2026-04-09T15:24:52Z</time></trkpt><trkpt lat="44.81943143354185" lon="7.309589334369574"><ele>380.0</ele><time>2026-04-09T15:24:53Z</time></trkpt><trkpt lat="44.81937346808157" lon="7.309628622854267"><ele>380.2</ele><time>2026-04-09T15:24:54Z</time></trkpt><trkpt lat="44.81931420489987" lon="7.30967045499279"><ele>380.4</ele><time>2026-04-09T15:24:55Z</time></trkpt><trkpt lat="44.8192026492559" lon="7.309756692968892"><ele>380.6</ele><time>2026-04-09T15:24:57Z</time></trkpt><trkpt lat="44.8190952226956" lon="7.30983792210741"><ele>380.8</ele><time>2026-04-09T15:24:59Z</time></trkpt><trkpt lat="44.81898842476324" lon="7.309914261316811"><ele>381.0</ele><time>2026-04-09T15:25:01Z</time></trkpt><trkpt lat="44.81888522616877" lon="7.3099942222694905"><ele>380.0</ele><time>2026-04-09T15:25:03Z</time></trkpt><trkpt lat="44.818779393316525" lon="7.310074630541311"><ele>379.0</ele><time>2026-04-09T15:25:05Z</time></trkpt><trkpt lat="44.81867528794147" lon="7.310153920109282"><ele>378.0</ele><time>2026-04-09T15:25:07Z</time></trkpt><trkpt lat="44.81857417522002" lon="7.310235614320147"><ele>377.0</ele><time>2026-04-09T15:25:09Z</time></trkpt><trkpt lat="44.81846699374587" lon="7.310314871487157"><ele>377.0</ele><time>2026-04-09T15:25:11.001Z</time></trkpt><trkpt lat="44.81836375907729" lon="7.310394435674166"><ele>377.0</ele><time>2026-04-09T15:25:13.001Z</time></trkpt><trkpt lat="44.818261879021684" lon="7.310473673891574"><ele>377.0</ele><time>2026-04-09T15:25:15.001Z</time></trkpt><trkpt lat="44.81815818337708" lon="7.310554527404446"><ele>377.0</ele><time>2026-04-09T15:25:17.001Z</time></trkpt><trkpt lat="44.81805649464098" lon="7.310630873397323"><ele>376.5</ele><time>2026-04-09T15:25:19.001Z</time></trkpt><trkpt lat="44.817957206372725" lon="7.310714819373992"><ele>376.0</ele><time>2026-04-09T15:25:21.001Z</time></trkpt><trkpt lat="44.817857492178014" lon="7.310787288923483"><ele>375.5</ele><time>2026-04-09T15:25:23.001Z</time></trkpt><trkpt lat="44.817758756647" lon="7.310857421767691"><ele>375.0</ele><time>2026-04-09T15:25:25.001Z</time></trkpt><trkpt lat="44.817660176146184" lon="7.310933738253761"><ele>375.6</ele><time>2026-04-09T15:25:27.001Z</time></trkpt><trkpt lat="44.81756171602403" lon="7.311010334981902"><ele>376.2</ele><time>2026-04-09T15:25:29.001Z</time></trkpt><trkpt lat="44.81746683791453" lon="7.311080766816598"><ele>376.79999999999995</ele><time>2026-04-09T15:25:31.001Z</time></trkpt><trkpt lat="44.81737165048314" lon="7.311148714865697"><ele>377.4</ele><time>2026-04-09T15:25:33.001Z</time></trkpt><trkpt lat="44.81727442505525" lon="7.3112230597557"><ele>378.0</ele><time>2026-04-09T15:25:35.001Z</time></trkpt><trkpt lat="44.817174338222856" lon="7.311297736320402"><ele>378.0</ele><time>2026-04-09T15:25:37.001Z</time></trkpt><trkpt lat="44.817074722912615" lon="7.311372354641233"><ele>378.0</ele><time>2026-04-09T15:25:39.001Z</time></trkpt><trkpt lat="44.81697428256458" lon="7.311444304793104"><ele>378.0</ele><time>2026-04-09T15:25:41.001Z</time></trkpt><trkpt lat="44.81687572203004" lon="7.311518642185074"><ele>378.0</ele><time>2026-04-09T15:25:43.001Z</time></trkpt><trkpt lat="44.81677767653894" lon="7.311591201395252"><ele>378.0</ele><time>2026-04-09T15:25:45.001Z</time></trkpt><trkpt lat="44.816680888658894" lon="7.311664601975602"><ele>377.4</ele><time>2026-04-09T15:25:47.001Z</time></trkpt><trkpt lat="44.81658424998523" lon="7.311739754418085"><ele>376.79999999999995</ele><time>2026-04-09T15:25:49.001Z</time></trkpt><trkpt lat="44.81648865407323" lon="7.311815439181482"><ele>376.2</ele><time>2026-04-09T15:25:51.001Z</time></trkpt><trkpt lat="44.81639135886164" lon="7.311889137934814"><ele>375.6</ele><time>2026-04-09T15:25:53.001Z</time></trkpt><trkpt lat="44.81629122036357" lon="7.311964157226766"><ele>375.0</ele><time>2026-04-09T15:25:55.001Z</time></trkpt><trkpt lat="44.81619040686951" lon="7.312039821175992"><ele>375.0</ele><time>2026-04-09T15:25:57.001Z</time></trkpt><trkpt lat="44.81608829759709" lon="7.312115353865686"><ele>375.0</ele><time>2026-04-09T15:25:59.001Z</time></trkpt><trkpt lat="44.81598569008541" lon="7.312194698127217"><ele>375.0</ele><time>2026-04-09T15:26:01.001Z</time></trkpt><trkpt lat="44.81587853145328" lon="7.3122736053968485"><ele>375.0</ele><time>2026-04-09T15:26:03.001Z</time></trkpt><trkpt lat="44.815773223224426" lon="7.312354669451976"><ele>375.5</ele><time>2026-04-09T15:26:05.001Z</time></trkpt><trkpt lat="44.81566975517822" lon="7.312436017456905"><ele>376.0</ele><time>2026-04-09T15:26:07.001Z</time></trkpt><trkpt lat="44.81556473849262" lon="7.312518111980169"><ele>376.5</ele><time>2026-04-09T15:26:09.001Z</time></trkpt><trkpt lat="44.81545670251034" lon="7.312597014109959"><ele>377.0</ele><time>2026-04-09T15:26:11.001Z</time></trkpt><trkpt lat="44.81535150494305" lon="7.312673305682944"><ele>377.0</ele><time>2026-04-09T15:26:13.001Z</time></trkpt><trkpt lat="44.815245326827295" lon="7.312754401811186"><ele>377.0</ele><time>2026-04-09T15:26:15.001Z</time></trkpt><trkpt lat="44.81514074333301" lon="7.3128390488878905"><ele>377.0</ele><time>2026-04-09T15:26:17.001Z</time></trkpt><trkpt lat="44.815037980076916" lon="7.312921706318072"><ele>377.0</ele><time>2026-04-09T15:26:19.001Z</time></trkpt><trkpt lat="44.81493722879204" lon="7.313003230814452"><ele>376.75</ele><time>2026-04-09T15:26:21.001Z</time></trkpt><trkpt lat="44.81483613606418" lon="7.3130796870506325"><ele>376.5</ele><time>2026-04-09T15:26:23.001Z</time></trkpt><trkpt lat="44.814743555866556" lon="7.313158940653932"><ele>376.25</ele><time>2026-04-09T15:26:25Z</time></trkpt><trkpt lat="44.81463822725085" lon="7.3132253694486655"><ele>376.0</ele><time>2026-04-09T15:26:27Z</time></trkpt><trkpt lat="44.81453000700616" lon="7.313286252604744"><ele>376.0</ele><time>2026-04-09T15:26:29Z</time></trkpt><trkpt lat="44.81442485747575" lon="7.313355940552199"><ele>376.0</ele><time>2026-04-09T15:26:31Z</time></trkpt><trkpt lat="44.8143203172238" lon="7.313425477924006"><ele>376.0</ele><time>2026-04-09T15:26:33Z</time></trkpt><trkpt lat="44.814214363865354" lon="7.313483741574785"><ele>376.0</ele><time>2026-04-09T15:26:35Z</time></trkpt><trkpt lat="44.814107917585794" lon="7.313535239344199"><ele>376.0</ele><time>2026-04-09T15:26:37Z</time></trkpt><trkpt lat="44.81399936037248" lon="7.313585578962033"><ele>376.0</ele><time>2026-04-09T15:26:39Z</time></trkpt><trkpt lat="44.81388735423185" lon="7.313636958633539"><ele>376.0</ele><time>2026-04-09T15:26:41Z</time></trkpt><trkpt lat="44.81377571901685" lon="7.313685048900542"><ele>376.0</ele><time>2026-04-09T15:26:43Z</time></trkpt><trkpt lat="44.81366529704325" lon="7.3137322802320845"><ele>376.0</ele><time>2026-04-09T15:26:45Z</time></trkpt><trkpt lat="44.81354424591891" lon="7.31376920313301"><ele>376.0</ele><time>2026-04-09T15:26:47Z</time></trkpt><trkpt lat="44.81342169419033" lon="7.3138047070471055"><ele>376.0</ele><time>2026-04-09T15:26:49Z</time></trkpt><trkpt lat="44.81335907558888" lon="7.3138209872368645"><ele>376.0</ele><time>2026-04-09T15:26:50Z</time></trkpt><trkpt lat="44.81329607519471" lon="7.31383939440845"><ele>376.0</ele><time>2026-04-09T15:26:51Z</time></trkpt><trkpt lat="44.81323400254308" lon="7.3138583661246965"><ele>376.0</ele><time>2026-04-09T15:26:52Z</time></trkpt><trkpt lat="44.81316940942298" lon="7.313875610683014"><ele>375.7142857142857</ele><time>2026-04-09T15:26:53Z</time></trkpt><trkpt lat="44.81310243047328" lon="7.313892354788043"><ele>375.42857142857144</ele><time>2026-04-09T15:26:54Z</time></trkpt><trkpt lat="44.81303673457894" lon="7.313912719377447"><ele>375.1428571428571</ele><time>2026-04-09T15:26:55Z</time></trkpt><trkpt lat="44.81297371105924" lon="7.313933177155606"><ele>374.8571428571429</ele><time>2026-04-09T15:26:56Z</time></trkpt><trkpt lat="44.81291024126788" lon="7.313952679462506"><ele>374.5714285714286</ele><time>2026-04-09T15:26:57Z</time></trkpt><trkpt lat="44.81284668786459" lon="7.313974043784492"><ele>374.2857142857143</ele><time>2026-04-09T15:26:58Z</time></trkpt><trkpt lat="44.812785202067765" lon="7.313996536448843"><ele>374.0</ele><time>2026-04-09T15:26:59Z</time></trkpt><trkpt lat="44.812668480493684" lon="7.314032662423015"><ele>374.25</ele><time>2026-04-09T15:27:01Z</time></trkpt><trkpt lat="44.812555680318425" lon="7.314064986482924"><ele>374.5</ele><time>2026-04-09T15:27:03Z</time></trkpt><trkpt lat="44.81244268611055" lon="7.314100443526599"><ele>374.75</ele><time>2026-04-09T15:27:05Z</time></trkpt><trkpt lat="44.8123274671741" lon="7.314136361881665"><ele>375.0</ele><time>2026-04-09T15:27:07Z</time></trkpt><trkpt lat="44.81221101390737" lon="7.31417277415967"><ele>375.0</ele><time>2026-04-09T15:27:09.001Z</time></trkpt><trkpt lat="44.812094296398854" lon="7.314206002352844"><ele>375.0</ele><time>2026-04-09T15:27:11.001Z</time></trkpt><trkpt lat="44.81197693809452" lon="7.314237513299828"><ele>375.0</ele><time>2026-04-09T15:27:13.001Z</time></trkpt><trkpt lat="44.81185954163866" lon="7.3142761405720025"><ele>375.0</ele><time>2026-04-09T15:27:15.001Z</time></trkpt><trkpt lat="44.811742829644594" lon="7.3143109190536375"><ele>375.25</ele><time>2026-04-09T15:27:17.001Z</time></trkpt><trkpt lat="44.811623242056974" lon="7.314340745817319"><ele>375.5</ele><time>2026-04-09T15:27:19.001Z</time></trkpt><trkpt lat="44.81151118638387" lon="7.314375123152511"><ele>375.75</ele><time>2026-04-09T15:27:21.001Z</time></trkpt><trkpt lat="44.81139355804829" lon="7.31440862715926"><ele>376.0</ele><time>2026-04-09T15:27:23.001Z</time></trkpt><trkpt lat="44.81127904603268" lon="7.314447614528365"><ele>376.0</ele><time>2026-04-09T15:27:25.001Z</time></trkpt><trkpt lat="44.81116200418829" lon="7.314480001320719"><ele>376.0</ele><time>2026-04-09T15:27:27.001Z</time></trkpt><trkpt lat="44.811046875933535" lon="7.31451688862808"><ele>376.0</ele><time>2026-04-09T15:27:29.001Z</time></trkpt><trkpt lat="44.81093327849146" lon="7.314552835952354"><ele>376.0</ele><time>2026-04-09T15:27:31.001Z</time></trkpt><trkpt lat="44.81082427675841" lon="7.314589220800182"><ele>376.0</ele><time>2026-04-09T15:27:33.001Z</time></trkpt><trkpt lat="44.810718182023805" lon="7.314621051867166"><ele>376.0</ele><time>2026-04-09T15:27:35.001Z</time></trkpt><trkpt lat="44.81060116141158" lon="7.314650761690448"><ele>376.0</ele><time>2026-04-09T15:27:37.001Z</time></trkpt><trkpt lat="44.81048746076321" lon="7.314685445503581"><ele>376.0</ele><time>2026-04-09T15:27:39.001Z</time></trkpt><trkpt lat="44.81036941591194" lon="7.31472134059991"><ele>375.75</ele><time>2026-04-09T15:27:41.001Z</time></trkpt><trkpt lat="44.81025232645326" lon="7.314754945923468"><ele>375.5</ele><time>2026-04-09T15:27:43.001Z</time></trkpt><trkpt lat="44.81013346403204" lon="7.314789812674281"><ele>375.25</ele><time>2026-04-09T15:27:45.001Z</time></trkpt><trkpt lat="44.810014074565025" lon="7.314826778941922"><ele>375.0</ele><time>2026-04-09T15:27:47.001Z</time></trkpt><trkpt lat="44.80989385475253" lon="7.314864060332585"><ele>376.75</ele><time>2026-04-09T15:27:49.001Z</time></trkpt><trkpt lat="44.809774917728525" lon="7.314899201402436"><ele>378.5</ele><time>2026-04-09T15:27:51.001Z</time></trkpt><trkpt lat="44.80965532406183" lon="7.314938706870542"><ele>380.25</ele><time>2026-04-09T15:27:53.001Z</time></trkpt><trkpt lat="44.80953477956578" lon="7.314971220666228"><ele>382.0</ele><time>2026-04-09T15:27:55.001Z</time></trkpt><trkpt lat="44.80941778050522" lon="7.315006309355544"><ele>381.25</ele><time>2026-04-09T15:27:57.001Z</time></trkpt><trkpt lat="44.809303356656415" lon="7.31504584559664"><ele>380.5</ele><time>2026-04-09T15:27:59.001Z</time></trkpt><trkpt lat="44.809186125520384" lon="7.31508419137727"><ele>379.75</ele><time>2026-04-09T15:28:01.001Z</time></trkpt><trkpt lat="44.80906988328933" lon="7.3151149571895235"><ele>379.0</ele><time>2026-04-09T15:28:03.001Z</time></trkpt><trkpt lat="44.80895666810691" lon="7.315148672060431"><ele>379.0</ele><time>2026-04-09T15:28:05.001Z</time></trkpt><trkpt lat="44.80884147535362" lon="7.315184317021027"><ele>379.0</ele><time>2026-04-09T15:28:07.001Z</time></trkpt><trkpt lat="44.80872654893251" lon="7.31521915598999"><ele>379.0</ele><time>2026-04-09T15:28:09.001Z</time></trkpt><trkpt lat="44.80861239455158" lon="7.315255866750084"><ele>379.0</ele><time>2026-04-09T15:28:11.001Z</time></trkpt><trkpt lat="44.8085002170573" lon="7.315290397282535"><ele>379.0</ele><time>2026-04-09T15:28:13.002Z</time></trkpt><trkpt lat="44.808389167786146" lon="7.315324028014425"><ele>379.0</ele><time>2026-04-09T15:28:15.002Z</time></trkpt><trkpt lat="44.808276325636506" lon="7.315357244367774"><ele>379.0</ele><time>2026-04-09T15:28:17.002Z</time></trkpt><trkpt lat="44.80816403052715" lon="7.315387557912711"><ele>379.0</ele><time>2026-04-09T15:28:19.002Z</time></trkpt><trkpt lat="44.80805328758624" lon="7.315418469389671"><ele>379.0</ele><time>2026-04-09T15:28:21.002Z</time></trkpt><trkpt lat="44.807941321410134" lon="7.315451496691849"><ele>379.0</ele><time>2026-04-09T15:28:23.002Z</time></trkpt><trkpt lat="44.80782989406463" lon="7.31548707256252"><ele>379.0</ele><time>2026-04-09T15:28:25.002Z</time></trkpt><trkpt lat="44.80771673886393" lon="7.31552317201833"><ele>379.0</ele><time>2026-04-09T15:28:27.002Z</time></trkpt><trkpt lat="44.80760388299516" lon="7.3155590015635035"><ele>378.75</ele><time>2026-04-09T15:28:29.002Z</time></trkpt><trkpt lat="44.807493008198705" lon="7.315590447292362"><ele>378.5</ele><time>2026-04-09T15:28:31Z</time></trkpt><trkpt lat="44.807381757735264" lon="7.315619798803417"><ele>378.25</ele><time>2026-04-09T15:28:33Z</time></trkpt><trkpt lat="44.807270394671235" lon="7.315649452050534"><ele>378.0</ele><time>2026-04-09T15:28:35Z</time></trkpt><trkpt lat="44.80716019749016" lon="7.315684490425204"><ele>378.0</ele><time>2026-04-09T15:28:37Z</time></trkpt><trkpt lat="44.807052146335984" lon="7.315719133991687"><ele>378.0</ele><time>2026-04-09T15:28:39Z</time></trkpt><trkpt lat="44.806944729714914" lon="7.315752669687584"><ele>378.0</ele><time>2026-04-09T15:28:41Z</time></trkpt><trkpt lat="44.806838040249005" lon="7.315788548969839"><ele>378.0</ele><time>2026-04-09T15:28:43Z</time></trkpt><trkpt lat="44.80672815086286" lon="7.315823376969657"><ele>378.0</ele><time>2026-04-09T15:28:45Z</time></trkpt><trkpt lat="44.8066168336962" lon="7.3158567647929305"><ele>378.5</ele><time>2026-04-09T15:28:47Z</time></trkpt><trkpt lat="44.806504750354776" lon="7.315890814464796"><ele>379.0</ele><time>2026-04-09T15:28:49Z</time></trkpt><trkpt lat="44.80639438293027" lon="7.3159295284030685"><ele>379.5</ele><time>2026-04-09T15:28:51Z</time></trkpt><trkpt lat="44.8062825276038" lon="7.315966932408728"><ele>380.0</ele><time>2026-04-09T15:28:53Z</time></trkpt><trkpt lat="44.80616962492785" lon="7.315997973969344"><ele>380.0</ele><time>2026-04-09T15:28:55Z</time></trkpt><trkpt lat="44.80605628282944" lon="7.316034012086256"><ele>380.0</ele><time>2026-04-09T15:28:57Z</time></trkpt><trkpt lat="44.80594195395037" lon="7.31606711581105"><ele>380.0</ele><time>2026-04-09T15:28:59Z</time></trkpt><trkpt lat="44.80582797940836" lon="7.316098926613487"><ele>380.0</ele><time>2026-04-09T15:29:01Z</time></trkpt><trkpt lat="44.805712330947806" lon="7.316130844804357"><ele>379.75</ele><time>2026-04-09T15:29:03Z</time></trkpt><trkpt lat="44.8055995371992" lon="7.316168372896917"><ele>379.5</ele><time>2026-04-09T15:29:05.001Z</time></trkpt><trkpt lat="44.805485497336285" lon="7.316202956044297"><ele>379.25</ele><time>2026-04-09T15:29:07.001Z</time></trkpt><trkpt lat="44.80537277299868" lon="7.316241391542169"><ele>379.0</ele><time>2026-04-09T15:29:09.001Z</time></trkpt><trkpt lat="44.80525592316762" lon="7.316274663614007"><ele>378.75</ele><time>2026-04-09T15:29:11.001Z</time></trkpt><trkpt lat="44.80514035453019" lon="7.316312583914424"><ele>378.5</ele><time>2026-04-09T15:29:13.001Z</time></trkpt><trkpt lat="44.80502367060912" lon="7.316352498349751"><ele>378.25</ele><time>2026-04-09T15:29:15.001Z</time></trkpt><trkpt lat="44.80490367480155" lon="7.316384951340145"><ele>378.0</ele><time>2026-04-09T15:29:17.001Z</time></trkpt><trkpt lat="44.8047824307496" lon="7.316426221558122"><ele>377.5</ele><time>2026-04-09T15:29:19.001Z</time></trkpt><trkpt lat="44.80466292677887" lon="7.316461624780883"><ele>377.0</ele><time>2026-04-09T15:29:21.001Z</time></trkpt><trkpt lat="44.80454369964307" lon="7.316500355593382"><ele>376.5</ele><time>2026-04-09T15:29:23.001Z</time></trkpt><trkpt lat="44.80442539410543" lon="7.316542103861287"><ele>376.0</ele><time>2026-04-09T15:29:25.001Z</time></trkpt><trkpt lat="44.804306237510296" lon="7.316572484083801"><ele>376.0</ele><time>2026-04-09T15:29:27.001Z</time></trkpt><trkpt lat="44.80418741854245" lon="7.316606987671555"><ele>376.0</ele><time>2026-04-09T15:29:29.001Z</time></trkpt><trkpt lat="44.80406850376892" lon="7.31663946927034"><ele>376.0</ele><time>2026-04-09T15:29:31.001Z</time></trkpt><trkpt lat="44.80394555418264" lon="7.316663801918965"><ele>376.0</ele><time>2026-04-09T15:29:33.001Z</time></trkpt><trkpt lat="44.80382364215858" lon="7.316681304977844"><ele>376.0</ele><time>2026-04-09T15:29:35.001Z</time></trkpt><trkpt lat="44.80370280491372" lon="7.316696774748479"><ele>376.0</ele><time>2026-04-09T15:29:37.001Z</time></trkpt><trkpt lat="44.80358523486296" lon="7.316710486700593"><ele>376.0</ele><time>2026-04-09T15:29:39.001Z</time></trkpt><trkpt lat="44.80346767297261" lon="7.316715966962305"><ele>376.0</ele><time>2026-04-09T15:29:41.001Z</time></trkpt><trkpt lat="44.80334954247086" lon="7.3167167102519395"><ele>376.0</ele><time>2026-04-09T15:29:43.001Z</time></trkpt><trkpt lat="44.80323450726719" lon="7.316713177287112"><ele>376.0</ele><time>2026-04-09T15:29:45.001Z</time></trkpt><trkpt lat="44.80313126563968" lon="7.316698638484222"><ele>376.0</ele><time>2026-04-09T15:29:47.001Z</time></trkpt><trkpt lat="44.80302528420721" lon="7.316695224837096"><ele>376.0</ele><time>2026-04-09T15:29:49.001Z</time></trkpt><trkpt lat="44.80292960553265" lon="7.316712753239119"><ele>376.0</ele><time>2026-04-09T15:29:51.001Z</time></trkpt><trkpt lat="44.80289553896839" lon="7.316802141968489"><ele>376.0</ele><time>2026-04-09T15:29:53.001Z</time></trkpt><trkpt lat="44.802823408027464" lon="7.316727257048332"><ele>376.0</ele><time>2026-04-09T15:29:59.001Z</time></trkpt><trkpt lat="44.802768510427775" lon="7.316643689579597"><ele>376.0</ele><time>2026-04-09T15:30:01.001Z</time></trkpt><trkpt lat="44.80267210752632" lon="7.316575788519306"><ele>376.0</ele><time>2026-04-09T15:30:03.001Z</time></trkpt><trkpt lat="44.80260658463674" lon="7.316566649334378"><ele>376.0</ele><time>2026-04-09T15:30:04.001Z</time></trkpt><trkpt lat="44.80253744351849" lon="7.316591993990417"><ele>376.0</ele><time>2026-04-09T15:30:05.001Z</time></trkpt><trkpt lat="44.80247002838271" lon="7.3166297910711515"><ele>376.0</ele><time>2026-04-09T15:30:06.001Z</time></trkpt><trkpt lat="44.80239725417833" lon="7.3166332390119795"><ele>376.0</ele><time>2026-04-09T15:30:07.001Z</time></trkpt><trkpt lat="44.80232773855522" lon="7.3166180624408925"><ele>376.0</ele><time>2026-04-09T15:30:08.002Z</time></trkpt><trkpt lat="44.80225783780613" lon="7.316602671285336"><ele>376.0</ele><time>2026-04-09T15:30:09.002Z</time></trkpt><trkpt lat="44.80218583339028" lon="7.316596953096762"><ele>376.0</ele><time>2026-04-09T15:30:10.002Z</time></trkpt><trkpt lat="44.80211436852242" lon="7.316596806791615"><ele>376.0</ele><time>2026-04-09T15:30:11.002Z</time></trkpt><trkpt lat="44.80204316133646" lon="7.316591875357682"><ele>376.0</ele><time>2026-04-09T15:30:12.002Z</time></trkpt><trkpt lat="44.80197671383022" lon="7.31658646774294"><ele>376.0</ele><time>2026-04-09T15:30:13.002Z</time></trkpt><trkpt lat="44.80190716878561" lon="7.31658322534745"><ele>376.0</ele><time>2026-04-09T15:30:14.002Z</time></trkpt><trkpt lat="44.801837824524625" lon="7.316580800434441"><ele>376.0</ele><time>2026-04-09T15:30:15.002Z</time></trkpt><trkpt lat="44.80176923819877" lon="7.316577265160547"><ele>376.0</ele><time>2026-04-09T15:30:16.002Z</time></trkpt><trkpt lat="44.80170162203793" lon="7.316576481205553"><ele>376.0</ele><time>2026-04-09T15:30:17.002Z</time></trkpt><trkpt lat="44.801634282238105" lon="7.316572778552643"><ele>376.0</ele><time>2026-04-09T15:30:18.002Z</time></trkpt><trkpt lat="44.80156925089986" lon="7.3165680815996295"><ele>376.0</ele><time>2026-04-09T15:30:19.002Z</time></trkpt><trkpt lat="44.80150148055818" lon="7.316560596975114"><ele>376.0</ele><time>2026-04-09T15:30:20.002Z</time></trkpt><trkpt lat="44.80143601464052" lon="7.316559623418835"><ele>376.0</ele><time>2026-04-09T15:30:21.002Z</time></trkpt><trkpt lat="44.80137233052337" lon="7.316556605462559"><ele>376.0</ele><time>2026-04-09T15:30:22.002Z</time></trkpt><trkpt lat="44.80130578690209" lon="7.3165525252619386"><ele>376.0</ele><time>2026-04-09T15:30:23.002Z</time></trkpt><trkpt lat="44.80117867112788" lon="7.316545649102761"><ele>376.0</ele><time>2026-04-09T15:30:25.002Z</time></trkpt><trkpt lat="44.801114638222536" lon="7.316545487561363"><ele>376.0</ele><time>2026-04-09T15:30:26.002Z</time></trkpt><trkpt lat="44.80104907747787" lon="7.316542768879402"><ele>375.4</ele><time>2026-04-09T15:30:27.002Z</time></trkpt><trkpt lat="44.80098558996723" lon="7.316540029865965"><ele>374.8</ele><time>2026-04-09T15:30:28.002Z</time></trkpt><trkpt lat="44.800862020692335" lon="7.316539563165656"><ele>374.2</ele><time>2026-04-09T15:30:30.002Z</time></trkpt><trkpt lat="44.80073814813818" lon="7.316539911216032"><ele>373.59999999999997</ele><time>2026-04-09T15:30:32.002Z</time></trkpt><trkpt lat="44.80061538308582" lon="7.316540156767547"><ele>373.0</ele><time>2026-04-09T15:30:34.002Z</time></trkpt><trkpt lat="44.80055219242704" lon="7.316538641538103"><ele>373.0</ele><time>2026-04-09T15:30:35.002Z</time></trkpt><trkpt lat="44.80042814928301" lon="7.316534229039665"><ele>373.0</ele><time>2026-04-09T15:30:37Z</time></trkpt><trkpt lat="44.800306072382426" lon="7.316528235367538"><ele>373.0</ele><time>2026-04-09T15:30:39Z</time></trkpt><trkpt lat="44.8001821866767" lon="7.316515783570305"><ele>373.0</ele><time>2026-04-09T15:30:41Z</time></trkpt><trkpt lat="44.80005853867764" lon="7.3165075106215545"><ele>373.0</ele><time>2026-04-09T15:30:43Z</time></trkpt><trkpt lat="44.79999529029771" lon="7.316504570692453"><ele>373.0</ele><time>2026-04-09T15:30:44Z</time></trkpt><trkpt lat="44.79993235188314" lon="7.316500803118561"><ele>373.0</ele><time>2026-04-09T15:30:45Z</time></trkpt><trkpt lat="44.79986900590467" lon="7.316494602044173"><ele>373.0</ele><time>2026-04-09T15:30:46Z</time></trkpt><trkpt lat="44.799805618612695" lon="7.316489285954203"><ele>373.0</ele><time>2026-04-09T15:30:47Z</time></trkpt><trkpt lat="44.79974219808479" lon="7.316483225347023"><ele>373.0</ele><time>2026-04-09T15:30:48Z</time></trkpt><trkpt lat="44.79967900163906" lon="7.316476433858128"><ele>373.0</ele><time>2026-04-09T15:30:49Z</time></trkpt><trkpt lat="44.79961513057467" lon="7.316469632420995"><ele>373.0</ele><time>2026-04-09T15:30:50Z</time></trkpt><trkpt lat="44.79949147334743" lon="7.316463301067317"><ele>373.0</ele><time>2026-04-09T15:30:52Z</time></trkpt><trkpt lat="44.79936725325774" lon="7.316454993533278"><ele>373.0</ele><time>2026-04-09T15:30:54Z</time></trkpt><trkpt lat="44.79924241865236" lon="7.316449878939191"><ele>373.0</ele><time>2026-04-09T15:30:56Z</time></trkpt><trkpt lat="44.7991170158829" lon="7.3164415800096405"><ele>373.0</ele><time>2026-04-09T15:30:58Z</time></trkpt><trkpt lat="44.79899235131137" lon="7.3164329068462095"><ele>373.0</ele><time>2026-04-09T15:31:00Z</time></trkpt><trkpt lat="44.798928617319234" lon="7.316428687259859"><ele>373.0</ele><time>2026-04-09T15:31:01Z</time></trkpt><trkpt lat="44.798865361218816" lon="7.316424139241778"><ele>373.0</ele><time>2026-04-09T15:31:02Z</time></trkpt><trkpt lat="44.79880180408704" lon="7.316417930973502"><ele>373.0</ele><time>2026-04-09T15:31:03Z</time></trkpt><trkpt lat="44.7987382190313" lon="7.316414478842201"><ele>373.0</ele><time>2026-04-09T15:31:04Z</time></trkpt><trkpt lat="44.79867341023085" lon="7.31641125402403"><ele>373.0</ele><time>2026-04-09T15:31:05Z</time></trkpt><trkpt lat="44.798608216867" lon="7.316406151794868"><ele>373.0</ele><time>2026-04-09T15:31:06Z</time></trkpt><trkpt lat="44.798544424766796" lon="7.3164012270805445"><ele>373.0</ele><time>2026-04-09T15:31:07.001Z</time></trkpt><trkpt lat="44.79847953347771" lon="7.316398004936414"><ele>372.625</ele><time>2026-04-09T15:31:08.001Z</time></trkpt><trkpt lat="44.798415434599264" lon="7.31639784178228"><ele>372.25</ele><time>2026-04-09T15:31:09.001Z</time></trkpt><trkpt lat="44.79835166600991" lon="7.316395193283786"><ele>371.875</ele><time>2026-04-09T15:31:10.001Z</time></trkpt><trkpt lat="44.798287985799305" lon="7.316391710326566"><ele>371.5</ele><time>2026-04-09T15:31:11.001Z</time></trkpt><trkpt lat="44.7982242994935" lon="7.316386766849478"><ele>371.125</ele><time>2026-04-09T15:31:12.001Z</time></trkpt><trkpt lat="44.79816002622964" lon="7.316384119235024"><ele>370.75</ele><time>2026-04-09T15:31:13.001Z</time></trkpt><trkpt lat="44.79809700291195" lon="7.316381057443875"><ele>370.375</ele><time>2026-04-09T15:31:14.001Z</time></trkpt><trkpt lat="44.79803396174567" lon="7.316378456482579"><ele>370.0</ele><time>2026-04-09T15:31:15.001Z</time></trkpt><trkpt lat="44.79797083401892" lon="7.316378068243276"><ele>370.0</ele><time>2026-04-09T15:31:16.001Z</time></trkpt><trkpt lat="44.797844902693846" lon="7.316367820446407"><ele>370.0</ele><time>2026-04-09T15:31:18.001Z</time></trkpt><trkpt lat="44.79778086503326" lon="7.3163613694961835"><ele>370.0</ele><time>2026-04-09T15:31:19.001Z</time></trkpt><trkpt lat="44.797715358916285" lon="7.316358624816286"><ele>370.0</ele><time>2026-04-09T15:31:20.001Z</time></trkpt><trkpt lat="44.797651686064334" lon="7.316355033091434"><ele>370.0</ele><time>2026-04-09T15:31:21.001Z</time></trkpt><trkpt lat="44.79758734317287" lon="7.316349690571924"><ele>370.0</ele><time>2026-04-09T15:31:22.001Z</time></trkpt><trkpt lat="44.797521790417335" lon="7.316343292957029"><ele>369.99999999999994</ele><time>2026-04-09T15:31:23.001Z</time></trkpt><trkpt lat="44.797456296818545" lon="7.316338279614602"><ele>370.0</ele><time>2026-04-09T15:31:24.001Z</time></trkpt><trkpt lat="44.79739146736608" lon="7.316329048274391"><ele>370.0</ele><time>2026-04-09T15:31:25.001Z</time></trkpt><trkpt lat="44.797327196642506" lon="7.3163224034546"><ele>370.0</ele><time>2026-04-09T15:31:26.001Z</time></trkpt><trkpt lat="44.79726166406433" lon="7.316316572613014"><ele>370.0</ele><time>2026-04-09T15:31:27.001Z</time></trkpt><trkpt lat="44.797195689704566" lon="7.316315171650087"><ele>369.99999999999994</ele><time>2026-04-09T15:31:28.001Z</time></trkpt><trkpt lat="44.79713022974621" lon="7.316313392829708"><ele>370.0</ele><time>2026-04-09T15:31:29.001Z</time></trkpt><trkpt lat="44.79706521134279" lon="7.31631149756448"><ele>369.99999999999994</ele><time>2026-04-09T15:31:30.001Z</time></trkpt><trkpt lat="44.79699868382343" lon="7.316306263598033"><ele>370.0</ele><time>2026-04-09T15:31:31.001Z</time></trkpt><trkpt lat="44.796931479790054" lon="7.31630034478253"><ele>370.0</ele><time>2026-04-09T15:31:32.001Z</time></trkpt><trkpt lat="44.796866302073816" lon="7.316297098989276"><ele>370.0</ele><time>2026-04-09T15:31:33.001Z</time></trkpt><trkpt lat="44.7967986167988" lon="7.316291542777993"><ele>370.0</ele><time>2026-04-09T15:31:34.001Z</time></trkpt><trkpt lat="44.79673121472324" lon="7.316285900334268"><ele>369.99999999999994</ele><time>2026-04-09T15:31:35.001Z</time></trkpt><trkpt lat="44.796664256135315" lon="7.316280956750076"><ele>370.0</ele><time>2026-04-09T15:31:36.001Z</time></trkpt><trkpt lat="44.796595840567846" lon="7.316275274086373"><ele>370.57142857142856</ele><time>2026-04-09T15:31:37.001Z</time></trkpt><trkpt lat="44.79652821448911" lon="7.3162695707631995"><ele>371.1428571428571</ele><time>2026-04-09T15:31:38.001Z</time></trkpt><trkpt lat="44.79645984308588" lon="7.316265309273561"><ele>371.71428571428567</ele><time>2026-04-09T15:31:39.001Z</time></trkpt><trkpt lat="44.79639114792017" lon="7.316261356506606"><ele>372.2857142857143</ele><time>2026-04-09T15:31:40.001Z</time></trkpt><trkpt lat="44.79632167752232" lon="7.316257854153277"><ele>372.8571428571429</ele><time>2026-04-09T15:31:41.001Z</time></trkpt><trkpt lat="44.79625317132565" lon="7.316253089873147"><ele>373.4285714285714</ele><time>2026-04-09T15:31:42.001Z</time></trkpt><trkpt lat="44.79618530618197" lon="7.316247935694233"><ele>374.0</ele><time>2026-04-09T15:31:43.001Z</time></trkpt><trkpt lat="44.79611941762557" lon="7.316244454398635"><ele>374.0</ele><time>2026-04-09T15:31:44.001Z</time></trkpt><trkpt lat="44.796054880014445" lon="7.3162441572278025"><ele>374.0</ele><time>2026-04-09T15:31:45.001Z</time></trkpt><trkpt lat="44.795990170748055" lon="7.316246855388245"><ele>374.0</ele><time>2026-04-09T15:31:46.001Z</time></trkpt><trkpt lat="44.79592202164072" lon="7.316248203661956"><ele>374.0</ele><time>2026-04-09T15:31:47.001Z</time></trkpt><trkpt lat="44.7958518670385" lon="7.316243029346362"><ele>374.0</ele><time>2026-04-09T15:31:48.001Z</time></trkpt><trkpt lat="44.795785768678876" lon="7.316234433638822"><ele>374.0</ele><time>2026-04-09T15:31:49.001Z</time></trkpt><trkpt lat="44.79571962626098" lon="7.316226953181032"><ele>374.0</ele><time>2026-04-09T15:31:50.001Z</time></trkpt><trkpt lat="44.79565424984091" lon="7.316218348302839"><ele>373.57142857142856</ele><time>2026-04-09T15:31:51.001Z</time></trkpt><trkpt lat="44.79558730269549" lon="7.316212486874844"><ele>373.14285714285717</ele><time>2026-04-09T15:31:52.001Z</time></trkpt><trkpt lat="44.795520108098266" lon="7.316209047195922"><ele>372.7142857142857</ele><time>2026-04-09T15:31:53.001Z</time></trkpt><trkpt lat="44.795453308832954" lon="7.316203521998466"><ele>372.2857142857143</ele><time>2026-04-09T15:31:54.001Z</time></trkpt><trkpt lat="44.79538628859496" lon="7.316198343565563"><ele>371.8571428571429</ele><time>2026-04-09T15:31:55.001Z</time></trkpt><trkpt lat="44.79531807879014" lon="7.316194206197193"><ele>371.42857142857144</ele><time>2026-04-09T15:31:56.001Z</time></trkpt><trkpt lat="44.79524903840234" lon="7.316192217223177"><ele>371.0</ele><time>2026-04-09T15:31:57.001Z</time></trkpt><trkpt lat="44.795182555828696" lon="7.316191565590675"><ele>371.0</ele><time>2026-04-09T15:31:58.001Z</time></trkpt><trkpt lat="44.79511469658014" lon="7.316189087968976"><ele>371.0</ele><time>2026-04-09T15:31:59.001Z</time></trkpt><trkpt lat="44.795048059521264" lon="7.3161838244660595"><ele>371.0</ele><time>2026-04-09T15:32:00.001Z</time></trkpt><trkpt lat="44.79498179490366" lon="7.316176065866956"><ele>371.0</ele><time>2026-04-09T15:32:01.001Z</time></trkpt><trkpt lat="44.79491613720259" lon="7.316169623591967"><ele>371.0</ele><time>2026-04-09T15:32:02.001Z</time></trkpt><trkpt lat="44.794849447870064" lon="7.316164410279162"><ele>371.0</ele><time>2026-04-09T15:32:03.001Z</time></trkpt><trkpt lat="44.79478295590166" lon="7.316161304911119"><ele>371.0</ele><time>2026-04-09T15:32:04.001Z</time></trkpt><trkpt lat="44.794715817996725" lon="7.316158890992125"><ele>371.0</ele><time>2026-04-09T15:32:05.001Z</time></trkpt><trkpt lat="44.79464920485591" lon="7.316155436941305"><ele>371.0</ele><time>2026-04-09T15:32:06.001Z</time></trkpt><trkpt lat="44.79458198917049" lon="7.316150923403979"><ele>371.0</ele><time>2026-04-09T15:32:07.001Z</time></trkpt><trkpt lat="44.79451340234497" lon="7.316144660439413"><ele>371.0</ele><time>2026-04-09T15:32:08.002Z</time></trkpt><trkpt lat="44.79444489747161" lon="7.316137129800136"><ele>371.0</ele><time>2026-04-09T15:32:09.002Z</time></trkpt><trkpt lat="44.7943753276043" lon="7.316133134459907"><ele>371.0</ele><time>2026-04-09T15:32:10.002Z</time></trkpt><trkpt lat="44.79430534444261" lon="7.3161302299117885"><ele>371.0</ele><time>2026-04-09T15:32:11.002Z</time></trkpt><trkpt lat="44.7942344967606" lon="7.3161282987814875"><ele>370.85714285714283</ele><time>2026-04-09T15:32:12.002Z</time></trkpt><trkpt lat="44.794164153776435" lon="7.316125592912601"><ele>370.7142857142857</ele><time>2026-04-09T15:32:13.002Z</time></trkpt><trkpt lat="44.79409403887696" lon="7.316121101381919"><ele>370.57142857142856</ele><time>2026-04-09T15:32:14.002Z</time></trkpt><trkpt lat="44.79402532839235" lon="7.316114952380645"><ele>370.42857142857144</ele><time>2026-04-09T15:32:15.002Z</time></trkpt><trkpt lat="44.79395740180869" lon="7.31610955040483"><ele>370.2857142857143</ele><time>2026-04-09T15:32:16.002Z</time></trkpt><trkpt lat="44.793889636812885" lon="7.316105768427548"><ele>370.1428571428571</ele><time>2026-04-09T15:32:17.002Z</time></trkpt><trkpt lat="44.79382311156916" lon="7.316103392227149"><ele>370.0</ele><time>2026-04-09T15:32:18.002Z</time></trkpt><trkpt lat="44.79375541750064" lon="7.316099748310549"><ele>369.99999999999994</ele><time>2026-04-09T15:32:19.002Z</time></trkpt><trkpt lat="44.793689518768325" lon="7.316093644055392"><ele>370.0</ele><time>2026-04-09T15:32:20.002Z</time></trkpt><trkpt lat="44.79362375251786" lon="7.316090052955874"><ele>370.0</ele><time>2026-04-09T15:32:21.002Z</time></trkpt><trkpt lat="44.79355777863574" lon="7.3160880389682035"><ele>370.0</ele><time>2026-04-09T15:32:22.002Z</time></trkpt><trkpt lat="44.79349022230519" lon="7.3160848469754205"><ele>370.0</ele><time>2026-04-09T15:32:23.002Z</time></trkpt><trkpt lat="44.79342353860588" lon="7.316080108414876"><ele>369.99999999999994</ele><time>2026-04-09T15:32:24.002Z</time></trkpt><trkpt lat="44.79335603163546" lon="7.316075302538376"><ele>370.0</ele><time>2026-04-09T15:32:25.002Z</time></trkpt><trkpt lat="44.79328929886955" lon="7.316071344921712"><ele>369.71428571428567</ele><time>2026-04-09T15:32:26.002Z</time></trkpt><trkpt lat="44.7932223178817" lon="7.316068407824544"><ele>369.42857142857144</ele><time>2026-04-09T15:32:27.002Z</time></trkpt><trkpt lat="44.793155656665085" lon="7.316063744642252"><ele>369.1428571428571</ele><time>2026-04-09T15:32:28.002Z</time></trkpt><trkpt lat="44.79308833534129" lon="7.316057359649119"><ele>368.85714285714283</ele><time>2026-04-09T15:32:29.002Z</time></trkpt><trkpt lat="44.79302116320514" lon="7.316052258762662"><ele>368.57142857142856</ele><time>2026-04-09T15:32:30.002Z</time></trkpt><trkpt lat="44.7929538055227" lon="7.316047499632003"><ele>368.2857142857143</ele><time>2026-04-09T15:32:31.002Z</time></trkpt><trkpt lat="44.792886702048925" lon="7.316042791343867"><ele>368.0</ele><time>2026-04-09T15:32:32.002Z</time></trkpt><trkpt lat="44.7928187946811" lon="7.316037764646832"><ele>368.0</ele><time>2026-04-09T15:32:33.002Z</time></trkpt><trkpt lat="44.79275232131439" lon="7.316032074307512"><ele>368.0</ele><time>2026-04-09T15:32:34.002Z</time></trkpt><trkpt lat="44.79268397454101" lon="7.316025968597772"><ele>368.0</ele><time>2026-04-09T15:32:35.002Z</time></trkpt><trkpt lat="44.79261548387374" lon="7.316025087224755"><ele>368.0</ele><time>2026-04-09T15:32:36.002Z</time></trkpt><trkpt lat="44.79254625478098" lon="7.316020835504426"><ele>368.0</ele><time>2026-04-09T15:32:37.002Z</time></trkpt><trkpt lat="44.79247839562227" lon="7.3160144858697915"><ele>368.0</ele><time>2026-04-09T15:32:38.002Z</time></trkpt><trkpt lat="44.792411744169705" lon="7.316010800045137"><ele>368.0</ele><time>2026-04-09T15:32:39.002Z</time></trkpt><trkpt lat="44.79234421307419" lon="7.316008592643506"><ele>367.5714285714286</ele><time>2026-04-09T15:32:40.002Z</time></trkpt><trkpt lat="44.79227905294373" lon="7.316004245127829"><ele>367.1428571428571</ele><time>2026-04-09T15:32:41.002Z</time></trkpt><trkpt lat="44.79221420299849" lon="7.316002168421173"><ele>366.7142857142857</ele><time>2026-04-09T15:32:42.002Z</time></trkpt><trkpt lat="44.79214854622793" lon="7.315998655724806"><ele>366.28571428571433</ele><time>2026-04-09T15:32:43Z</time></trkpt><trkpt lat="44.79208357630979" lon="7.315993406290338"><ele>365.8571428571429</ele><time>2026-04-09T15:32:44Z</time></trkpt><trkpt lat="44.792019183369845" lon="7.315985180529879"><ele>365.42857142857144</ele><time>2026-04-09T15:32:45Z</time></trkpt><trkpt lat="44.79195525977088" lon="7.315978422304088"><ele>365.0</ele><time>2026-04-09T15:32:46Z</time></trkpt><trkpt lat="44.79189087544465" lon="7.3159734394899605"><ele>365.125</ele><time>2026-04-09T15:32:47Z</time></trkpt><trkpt lat="44.79182671059918" lon="7.315969137941713"><ele>365.25</ele><time>2026-04-09T15:32:48Z</time></trkpt><trkpt lat="44.7917628837077" lon="7.3159651145030695"><ele>365.375</ele><time>2026-04-09T15:32:49Z</time></trkpt><trkpt lat="44.79169859057809" lon="7.315962043674281"><ele>365.5</ele><time>2026-04-09T15:32:50Z</time></trkpt><trkpt lat="44.791633974765915" lon="7.3159591687241265"><ele>365.625</ele><time>2026-04-09T15:32:51Z</time></trkpt><trkpt lat="44.791570201337784" lon="7.315953754767824"><ele>365.75</ele><time>2026-04-09T15:32:52Z</time></trkpt><trkpt lat="44.79150663666232" lon="7.315948725523235"><ele>365.875</ele><time>2026-04-09T15:32:53Z</time></trkpt><trkpt lat="44.791443154931656" lon="7.315943491657247"><ele>366.0</ele><time>2026-04-09T15:32:54Z</time></trkpt><trkpt lat="44.79131797926255" lon="7.315933292584773"><ele>366.0</ele><time>2026-04-09T15:32:56Z</time></trkpt><trkpt lat="44.79119502140814" lon="7.315926497228194"><ele>366.0</ele><time>2026-04-09T15:32:58Z</time></trkpt><trkpt lat="44.7910751783928" lon="7.315920106437031"><ele>366.0</ele><time>2026-04-09T15:33:00Z</time></trkpt><trkpt lat="44.79095417725783" lon="7.315917293963578"><ele>366.0</ele><time>2026-04-09T15:33:02Z</time></trkpt><trkpt lat="44.79083342316991" lon="7.315908540900538"><ele>365.75</ele><time>2026-04-09T15:33:04Z</time></trkpt><trkpt lat="44.79071449090754" lon="7.315891656019848"><ele>365.5</ele><time>2026-04-09T15:33:06Z</time></trkpt><trkpt lat="44.790596712426336" lon="7.315884676352037"><ele>365.25</ele><time>2026-04-09T15:33:08Z</time></trkpt><trkpt lat="44.79047990253166" lon="7.315876966472326"><ele>365.0</ele><time>2026-04-09T15:33:10.001Z</time></trkpt><trkpt lat="44.79036206427368" lon="7.315866553978783"><ele>365.0</ele><time>2026-04-09T15:33:12.001Z</time></trkpt><trkpt lat="44.7902457357456" lon="7.315858569224321"><ele>365.0</ele><time>2026-04-09T15:33:14.001Z</time></trkpt><trkpt lat="44.79013555045884" lon="7.3158476311958545"><ele>365.0</ele><time>2026-04-09T15:33:16.001Z</time></trkpt><trkpt lat="44.790028461140395" lon="7.315846805375787"><ele>365.0</ele><time>2026-04-09T15:33:18.001Z</time></trkpt><trkpt lat="44.789919179081735" lon="7.315844853462458"><ele>365.0</ele><time>2026-04-09T15:33:20.001Z</time></trkpt><trkpt lat="44.78980450743456" lon="7.315842238597952"><ele>365.25</ele><time>2026-04-09T15:33:22.001Z</time></trkpt><trkpt lat="44.789684295693235" lon="7.315851086991666"><ele>365.5</ele><time>2026-04-09T15:33:24.001Z</time></trkpt><trkpt lat="44.78956268975688" lon="7.315835320817274"><ele>365.75</ele><time>2026-04-09T15:33:26.001Z</time></trkpt><trkpt lat="44.78944261151256" lon="7.31581034210532"><ele>366.0</ele><time>2026-04-09T15:33:28.001Z</time></trkpt><trkpt lat="44.78932185013917" lon="7.315801025693692"><ele>366.25</ele><time>2026-04-09T15:33:30.001Z</time></trkpt><trkpt lat="44.789201146345825" lon="7.31579571513271"><ele>366.5</ele><time>2026-04-09T15:33:32.001Z</time></trkpt><trkpt lat="44.78907986200284" lon="7.315790247416165"><ele>366.75</ele><time>2026-04-09T15:33:34.001Z</time></trkpt><trkpt lat="44.78895866014008" lon="7.315778292875464"><ele>367.0</ele><time>2026-04-09T15:33:36.001Z</time></trkpt><trkpt lat="44.78883720909176" lon="7.315767626509964"><ele>367.0</ele><time>2026-04-09T15:33:38.001Z</time></trkpt><trkpt lat="44.7887179102814" lon="7.3157565075143225"><ele>367.0</ele><time>2026-04-09T15:33:40.001Z</time></trkpt><trkpt lat="44.7885995422418" lon="7.315734092601245"><ele>367.0</ele><time>2026-04-09T15:33:42.001Z</time></trkpt><trkpt lat="44.78848117032606" lon="7.315706560059689"><ele>367.0</ele><time>2026-04-09T15:33:44.001Z</time></trkpt><trkpt lat="44.7883608170211" lon="7.315667951372576"><ele>367.0</ele><time>2026-04-09T15:33:46.001Z</time></trkpt><trkpt lat="44.788243170097786" lon="7.315637005398227"><ele>367.0</ele><time>2026-04-09T15:33:48.001Z</time></trkpt><trkpt lat="44.78812458202319" lon="7.3156047076699"><ele>367.0</ele><time>2026-04-09T15:33:50.001Z</time></trkpt><trkpt lat="44.788005515392925" lon="7.315558981295625"><ele>367.0</ele><time>2026-04-09T15:33:52.001Z</time></trkpt><trkpt lat="44.787888084252515" lon="7.315506887396228"><ele>367.25</ele><time>2026-04-09T15:33:54.001Z</time></trkpt><trkpt lat="44.7877752074075" lon="7.315450541293086"><ele>367.5</ele><time>2026-04-09T15:33:56.001Z</time></trkpt><trkpt lat="44.78766251096923" lon="7.315389927067552"><ele>367.75</ele><time>2026-04-09T15:33:58.001Z</time></trkpt><trkpt lat="44.787548068729855" lon="7.315328280918315"><ele>368.0</ele><time>2026-04-09T15:34:00.001Z</time></trkpt><trkpt lat="44.78743195494364" lon="7.315265257123247"><ele>368.0</ele><time>2026-04-09T15:34:02.001Z</time></trkpt><trkpt lat="44.78732089764182" lon="7.315201009223368"><ele>368.0</ele><time>2026-04-09T15:34:04.001Z</time></trkpt><trkpt lat="44.787211288920204" lon="7.315128732862739"><ele>368.0</ele><time>2026-04-09T15:34:06.001Z</time></trkpt><trkpt lat="44.787100526899465" lon="7.315051861035722"><ele>368.0</ele><time>2026-04-09T15:34:08.001Z</time></trkpt><trkpt lat="44.78699117823858" lon="7.31497598901982"><ele>368.0</ele><time>2026-04-09T15:34:10.001Z</time></trkpt><trkpt lat="44.78688154400562" lon="7.314903641022004"><ele>368.0</ele><time>2026-04-09T15:34:12.002Z</time></trkpt><trkpt lat="44.786773095937086" lon="7.31482876736247"><ele>368.0</ele><time>2026-04-09T15:34:14.002Z</time></trkpt><trkpt lat="44.78666290961764" lon="7.3147557528194325"><ele>368.0</ele><time>2026-04-09T15:34:16.002Z</time></trkpt><trkpt lat="44.78655209036208" lon="7.3146829246160605"><ele>367.5</ele><time>2026-04-09T15:34:18.002Z</time></trkpt><trkpt lat="44.78644318918247" lon="7.314609017324247"><ele>367.0</ele><time>2026-04-09T15:34:20.002Z</time></trkpt><trkpt lat="44.786334460172604" lon="7.314536079643222"><ele>366.5</ele><time>2026-04-09T15:34:22.002Z</time></trkpt><trkpt lat="44.78622675731357" lon="7.314462366965563"><ele>366.0</ele><time>2026-04-09T15:34:24.002Z</time></trkpt><trkpt lat="44.786119257690416" lon="7.31438921792193"><ele>365.5</ele><time>2026-04-09T15:34:26.002Z</time></trkpt><trkpt lat="44.78600882496168" lon="7.3143178712707195"><ele>365.0</ele><time>2026-04-09T15:34:28.002Z</time></trkpt><trkpt lat="44.78590601890074" lon="7.314249256671776"><ele>364.5</ele><time>2026-04-09T15:34:30.002Z</time></trkpt><trkpt lat="44.785801735391615" lon="7.314179060012373"><ele>364.0</ele><time>2026-04-09T15:34:32.002Z</time></trkpt><trkpt lat="44.78570031772876" lon="7.314106722673693"><ele>364.0</ele><time>2026-04-09T15:34:34.002Z</time></trkpt><trkpt lat="44.785593940152204" lon="7.314037374959699"><ele>364.0</ele><time>2026-04-09T15:34:36.002Z</time></trkpt><trkpt lat="44.785486667352636" lon="7.3139679512944324"><ele>364.0</ele><time>2026-04-09T15:34:38.002Z</time></trkpt><trkpt lat="44.78538264956088" lon="7.313900996682736"><ele>364.0</ele><time>2026-04-09T15:34:40.002Z</time></trkpt><trkpt lat="44.785274960808444" lon="7.3138338331419375"><ele>364.25</ele><time>2026-04-09T15:34:42.002Z</time></trkpt><trkpt lat="44.78516960158618" lon="7.313757892718343"><ele>364.5</ele><time>2026-04-09T15:34:44.002Z</time></trkpt><trkpt lat="44.7850640547279" lon="7.313684095794215"><ele>364.75</ele><time>2026-04-09T15:34:46.002Z</time></trkpt><trkpt lat="44.78495494330356" lon="7.313611180317749"><ele>365.0</ele><time>2026-04-09T15:34:48.002Z</time></trkpt><trkpt lat="44.78484448979634" lon="7.31353951385082"><ele>365.0</ele><time>2026-04-09T15:34:50Z</time></trkpt><trkpt lat="44.78473396746345" lon="7.313468976012658"><ele>365.0</ele><time>2026-04-09T15:34:52Z</time></trkpt><trkpt lat="44.784622339235185" lon="7.313398525039211"><ele>365.0</ele><time>2026-04-09T15:34:54Z</time></trkpt><trkpt lat="44.784512882994036" lon="7.313324541891546"><ele>365.0</ele><time>2026-04-09T15:34:56Z</time></trkpt><trkpt lat="44.7844038758379" lon="7.313251370691649"><ele>364.75</ele><time>2026-04-09T15:34:58Z</time></trkpt><trkpt lat="44.78429322153375" lon="7.313176492681876"><ele>364.5</ele><time>2026-04-09T15:35:00Z</time></trkpt><trkpt lat="44.784184022919526" lon="7.313099251693353"><ele>364.25</ele><time>2026-04-09T15:35:02Z</time></trkpt><trkpt lat="44.78407128358497" lon="7.313026483212452"><ele>364.0</ele><time>2026-04-09T15:35:04Z</time></trkpt><trkpt lat="44.783960338144254" lon="7.312953661387709"><ele>364.0</ele><time>2026-04-09T15:35:06Z</time></trkpt><trkpt lat="44.78384681831715" lon="7.312878493271704"><ele>364.0</ele><time>2026-04-09T15:35:08Z</time></trkpt><trkpt lat="44.78373402843858" lon="7.3128034346550805"><ele>364.0</ele><time>2026-04-09T15:35:10Z</time></trkpt><trkpt lat="44.78367595048771" lon="7.312766353409047"><ele>364.0</ele><time>2026-04-09T15:35:11Z</time></trkpt><trkpt lat="44.7836185333099" lon="7.312729067921089"><ele>364.0</ele><time>2026-04-09T15:35:12Z</time></trkpt><trkpt lat="44.783506665020205" lon="7.312654351875446"><ele>364.0</ele><time>2026-04-09T15:35:14.001Z</time></trkpt><trkpt lat="44.78339411181816" lon="7.312579066827867"><ele>364.0</ele><time>2026-04-09T15:35:16.001Z</time></trkpt><trkpt lat="44.783281984399665" lon="7.312508355875336"><ele>364.0</ele><time>2026-04-09T15:35:18.001Z</time></trkpt><trkpt lat="44.78317211346154" lon="7.312432593266036"><ele>364.0</ele><time>2026-04-09T15:35:20.001Z</time></trkpt><trkpt lat="44.78306376742292" lon="7.312359451063575"><ele>364.0</ele><time>2026-04-09T15:35:22.001Z</time></trkpt><trkpt lat="44.78295487263413" lon="7.312287588671132"><ele>364.0</ele><time>2026-04-09T15:35:24.001Z</time></trkpt><trkpt lat="44.782846363834174" lon="7.312215651412628"><ele>364.0</ele><time>2026-04-09T15:35:26.001Z</time></trkpt><trkpt lat="44.78273705029294" lon="7.312146120673584"><ele>364.0</ele><time>2026-04-09T15:35:28.001Z</time></trkpt><trkpt lat="44.78262606791632" lon="7.312076075411735"><ele>364.0</ele><time>2026-04-09T15:35:30.001Z</time></trkpt><trkpt lat="44.782519307306444" lon="7.312001443796842"><ele>364.0</ele><time>2026-04-09T15:35:32.001Z</time></trkpt><trkpt lat="44.78241034637275" lon="7.311926082297682"><ele>364.0</ele><time>2026-04-09T15:35:34.001Z</time></trkpt><trkpt lat="44.78229708094735" lon="7.311859562824874"><ele>364.0</ele><time>2026-04-09T15:35:36.001Z</time></trkpt><trkpt lat="44.782189439404846" lon="7.3117846532754545"><ele>364.0</ele><time>2026-04-09T15:35:38.001Z</time></trkpt><trkpt lat="44.782083452812316" lon="7.31171085837366"><ele>364.0</ele><time>2026-04-09T15:35:40.001Z</time></trkpt><trkpt lat="44.781976059646" lon="7.311642836784211"><ele>364.0</ele><time>2026-04-09T15:35:42.001Z</time></trkpt><trkpt lat="44.781869883501294" lon="7.311575010763923"><ele>364.0</ele><time>2026-04-09T15:35:44.001Z</time></trkpt><trkpt lat="44.78176091302805" lon="7.311506620157767"><ele>364.0</ele><time>2026-04-09T15:35:46.001Z</time></trkpt><trkpt lat="44.78165269449717" lon="7.311429316635561"><ele>364.0</ele><time>2026-04-09T15:35:48.001Z</time></trkpt><trkpt lat="44.781542441444145" lon="7.311359489058705"><ele>364.0</ele><time>2026-04-09T15:35:50.001Z</time></trkpt><trkpt lat="44.781431908683174" lon="7.3112879971848646"><ele>364.0</ele><time>2026-04-09T15:35:52.001Z</time></trkpt><trkpt lat="44.78132269357161" lon="7.311216594070745"><ele>364.0</ele><time>2026-04-09T15:35:54.001Z</time></trkpt><trkpt lat="44.781211291011864" lon="7.311149181972704"><ele>364.0</ele><time>2026-04-09T15:35:56.001Z</time></trkpt><trkpt lat="44.78110084534601" lon="7.3110731013723145"><ele>364.0</ele><time>2026-04-09T15:35:58.001Z</time></trkpt><trkpt lat="44.78098895700206" lon="7.310997154803859"><ele>364.0</ele><time>2026-04-09T15:36:00.001Z</time></trkpt><trkpt lat="44.78087519752252" lon="7.31092225981957"><ele>363.8333333333333</ele><time>2026-04-09T15:36:02.001Z</time></trkpt><trkpt lat="44.780817413399404" lon="7.310886217904798"><ele>363.66666666666663</ele><time>2026-04-09T15:36:03.001Z</time></trkpt><trkpt lat="44.78070589750517" lon="7.310807494346845"><ele>363.5</ele><time>2026-04-09T15:36:05.001Z</time></trkpt><trkpt lat="44.780647949902665" lon="7.3107690184662575"><ele>363.3333333333333</ele><time>2026-04-09T15:36:06.001Z</time></trkpt><trkpt lat="44.78059089273862" lon="7.310729571675686"><ele>363.1666666666667</ele><time>2026-04-09T15:36:07.001Z</time></trkpt><trkpt lat="44.78047717179165" lon="7.31065228477216"><ele>363.0</ele><time>2026-04-09T15:36:09.001Z</time></trkpt><trkpt lat="44.780418813072174" lon="7.310612780444396"><ele>362.875</ele><time>2026-04-09T15:36:10.001Z</time></trkpt><trkpt lat="44.78036173517633" lon="7.310574246788735"><ele>362.75</ele><time>2026-04-09T15:36:11.001Z</time></trkpt><trkpt lat="44.78030417647994" lon="7.310536586753641"><ele>362.625</ele><time>2026-04-09T15:36:12.001Z</time></trkpt><trkpt lat="44.78024639141302" lon="7.310498004927596"><ele>362.5</ele><time>2026-04-09T15:36:13.001Z</time></trkpt><trkpt lat="44.780189248619365" lon="7.310459499720486"><ele>362.375</ele><time>2026-04-09T15:36:14.001Z</time></trkpt><trkpt lat="44.78013297137749" lon="7.310419400978209"><ele>362.25</ele><time>2026-04-09T15:36:15.002Z</time></trkpt><trkpt lat="44.780075966560396" lon="7.310380238648466"><ele>362.125</ele><time>2026-04-09T15:36:16.002Z</time></trkpt><trkpt lat="44.78001842344093" lon="7.310343343588575"><ele>362.0</ele><time>2026-04-09T15:36:17.002Z</time></trkpt><trkpt lat="44.77995985861302" lon="7.310307675357647"><ele>361.7142857142857</ele><time>2026-04-09T15:36:18.002Z</time></trkpt><trkpt lat="44.779902067164734" lon="7.310271232915486"><ele>361.42857142857144</ele><time>2026-04-09T15:36:19.002Z</time></trkpt><trkpt lat="44.77978543713262" lon="7.310204081776837"><ele>361.1428571428571</ele><time>2026-04-09T15:36:21.002Z</time></trkpt><trkpt lat="44.77972530583099" lon="7.31017309114382"><ele>360.8571428571429</ele><time>2026-04-09T15:36:22.002Z</time></trkpt><trkpt lat="44.77966521910815" lon="7.310142984911201"><ele>360.5714285714286</ele><time>2026-04-09T15:36:23.002Z</time></trkpt><trkpt lat="44.77960510396484" lon="7.310113938559779"><ele>360.2857142857143</ele><time>2026-04-09T15:36:24.002Z</time></trkpt><trkpt lat="44.77954485397466" lon="7.310086980417693"><ele>360.0</ele><time>2026-04-09T15:36:25.002Z</time></trkpt><trkpt lat="44.77948243461566" lon="7.310061827475144"><ele>360.0</ele><time>2026-04-09T15:36:26.002Z</time></trkpt><trkpt lat="44.779363535869194" lon="7.3100147484004285"><ele>360.0</ele><time>2026-04-09T15:36:28.002Z</time></trkpt><trkpt lat="44.779242138043536" lon="7.3099691126786235"><ele>360.0</ele><time>2026-04-09T15:36:30.002Z</time></trkpt><trkpt lat="44.77912246919747" lon="7.3099282654056426"><ele>360.0</ele><time>2026-04-09T15:36:32.002Z</time></trkpt><trkpt lat="44.77900506146028" lon="7.309892936752477"><ele>360.0</ele><time>2026-04-09T15:36:34.002Z</time></trkpt><trkpt lat="44.77888757161376" lon="7.309863762798031"><ele>360.0</ele><time>2026-04-09T15:36:36.002Z</time></trkpt><trkpt lat="44.77877165844872" lon="7.30983855112663"><ele>360.0</ele><time>2026-04-09T15:36:38.002Z</time></trkpt><trkpt lat="44.77865489794101" lon="7.309823732432874"><ele>360.0</ele><time>2026-04-09T15:36:40.002Z</time></trkpt><trkpt lat="44.77854094278871" lon="7.3098113533108835"><ele>359.8</ele><time>2026-04-09T15:36:42.002Z</time></trkpt><trkpt lat="44.77843752648381" lon="7.309799103782322"><ele>359.6</ele><time>2026-04-09T15:36:44.002Z</time></trkpt><trkpt lat="44.77835256468896" lon="7.309792677491601"><ele>359.4</ele><time>2026-04-09T15:36:46.002Z</time></trkpt><trkpt lat="44.778266886106586" lon="7.30978558501944"><ele>359.2</ele><time>2026-04-09T15:36:48.002Z</time></trkpt><trkpt lat="44.77817397228584" lon="7.309782042153758"><ele>359.0</ele><time>2026-04-09T15:36:50.002Z</time></trkpt><trkpt lat="44.77809246764671" lon="7.309804013384895"><ele>359.0</ele><time>2026-04-09T15:36:52.002Z</time></trkpt><trkpt lat="44.77797976143741" lon="7.309808846892099"><ele>359.0</ele><time>2026-04-09T15:36:54Z</time></trkpt><trkpt lat="44.77791372763913" lon="7.309812917941069"><ele>359.0</ele><time>2026-04-09T15:36:55Z</time></trkpt><trkpt lat="44.77784347349741" lon="7.309822666639003"><ele>359.0</ele><time>2026-04-09T15:36:56Z</time></trkpt><trkpt lat="44.777768151437186" lon="7.309828019604619"><ele>359.0</ele><time>2026-04-09T15:36:57Z</time></trkpt><trkpt lat="44.77768847358633" lon="7.309827691089022"><ele>359.0</ele><time>2026-04-09T15:36:58Z</time></trkpt><trkpt lat="44.77761211997377" lon="7.309834857848524"><ele>359.0</ele><time>2026-04-09T15:36:59Z</time></trkpt><trkpt lat="44.77753039543811" lon="7.3098487978684465"><ele>359.0</ele><time>2026-04-09T15:37:00Z</time></trkpt><trkpt lat="44.777451073155746" lon="7.3098570386753945"><ele>359.0</ele><time>2026-04-09T15:37:01Z</time></trkpt><trkpt lat="44.77737220896723" lon="7.30986295290395"><ele>359.0</ele><time>2026-04-09T15:37:02Z</time></trkpt><trkpt lat="44.77729618332612" lon="7.309876289027983"><ele>359.0</ele><time>2026-04-09T15:37:03Z</time></trkpt><trkpt lat="44.777221316074844" lon="7.309883261778014"><ele>359.0</ele><time>2026-04-09T15:37:04Z</time></trkpt><trkpt lat="44.7771514009616" lon="7.309897034628408"><ele>359.0</ele><time>2026-04-09T15:37:05Z</time></trkpt><trkpt lat="44.77708259729172" lon="7.309907538493646"><ele>359.0</ele><time>2026-04-09T15:37:06Z</time></trkpt><trkpt lat="44.77701594854461" lon="7.309921108033007"><ele>359.0</ele><time>2026-04-09T15:37:07Z</time></trkpt><trkpt lat="44.776900295620294" lon="7.309937369996823"><ele>359.0</ele><time>2026-04-09T15:37:09Z</time></trkpt><trkpt lat="44.77680576392742" lon="7.309952205051271"><ele>359.0</ele><time>2026-04-09T15:37:11Z</time></trkpt><trkpt lat="44.77671700702746" lon="7.309960321881996"><ele>359.0</ele><time>2026-04-09T15:37:13Z</time></trkpt><trkpt lat="44.77661797177573" lon="7.309970020746861"><ele>359.4</ele><time>2026-04-09T15:37:15Z</time></trkpt><trkpt lat="44.77649917325795" lon="7.3099775947624686"><ele>359.79999999999995</ele><time>2026-04-09T15:37:17Z</time></trkpt><trkpt lat="44.77637944977704" lon="7.309995091767311"><ele>360.20000000000005</ele><time>2026-04-09T15:37:19Z</time></trkpt><trkpt lat="44.7762561596029" lon="7.310013604175894"><ele>360.6</ele><time>2026-04-09T15:37:21.001Z</time></trkpt><trkpt lat="44.7761932765173" lon="7.310023372163456"><ele>361.0</ele><time>2026-04-09T15:37:22.001Z</time></trkpt><trkpt lat="44.77606998802379" lon="7.310043230123538"><ele>360.8333333333333</ele><time>2026-04-09T15:37:24.001Z</time></trkpt><trkpt lat="44.775944715022284" lon="7.310058996201322"><ele>360.66666666666663</ele><time>2026-04-09T15:37:26.001Z</time></trkpt><trkpt lat="44.775880767154284" lon="7.310067667637079"><ele>360.5</ele><time>2026-04-09T15:37:27.001Z</time></trkpt><trkpt lat="44.77575487793054" lon="7.310090735321572"><ele>360.3333333333333</ele><time>2026-04-09T15:37:29.001Z</time></trkpt><trkpt lat="44.77568996441003" lon="7.310095585037155"><ele>360.1666666666667</ele><time>2026-04-09T15:37:30.001Z</time></trkpt><trkpt lat="44.7756255968596" lon="7.310100674739097"><ele>360.0</ele><time>2026-04-09T15:37:31.001Z</time></trkpt><trkpt lat="44.77556101961491" lon="7.310106103038461"><ele>360.0</ele><time>2026-04-09T15:37:32.001Z</time></trkpt><trkpt lat="44.775435330729266" lon="7.310119875488755"><ele>360.0</ele><time>2026-04-09T15:37:34.001Z</time></trkpt><trkpt lat="44.775372637991545" lon="7.310127927943488"><ele>360.0</ele><time>2026-04-09T15:37:35.001Z</time></trkpt><trkpt lat="44.77524813291323" lon="7.310145192210157"><ele>360.0</ele><time>2026-04-09T15:37:37.001Z</time></trkpt><trkpt lat="44.77512480720544" lon="7.310161986197614"><ele>360.0</ele><time>2026-04-09T15:37:39.001Z</time></trkpt><trkpt lat="44.77500291046883" lon="7.310180324805831"><ele>359.75</ele><time>2026-04-09T15:37:41.001Z</time></trkpt><trkpt lat="44.77488281138876" lon="7.310197349044948"><ele>359.5</ele><time>2026-04-09T15:37:43.001Z</time></trkpt><trkpt lat="44.774762398843066" lon="7.310214653111267"><ele>359.25</ele><time>2026-04-09T15:37:45.001Z</time></trkpt><trkpt lat="44.77464323867497" lon="7.310230485588341"><ele>359.0</ele><time>2026-04-09T15:37:47.001Z</time></trkpt><trkpt lat="44.774523710574755" lon="7.310243251964888"><ele>359.0</ele><time>2026-04-09T15:37:49.001Z</time></trkpt><trkpt lat="44.77440356345976" lon="7.310257508782409"><ele>359.0</ele><time>2026-04-09T15:37:51.001Z</time></trkpt><trkpt lat="44.77428440966591" lon="7.3102772769274305"><ele>359.0</ele><time>2026-04-09T15:37:53.001Z</time></trkpt><trkpt lat="44.774163984243785" lon="7.310293666414868"><ele>359.0</ele><time>2026-04-09T15:37:55.001Z</time></trkpt><trkpt lat="44.77404226761771" lon="7.310311334627389"><ele>358.75</ele><time>2026-04-09T15:37:57.001Z</time></trkpt><trkpt lat="44.77392279805662" lon="7.310333035909703"><ele>358.5</ele><time>2026-04-09T15:37:59.001Z</time></trkpt><trkpt lat="44.773804594418905" lon="7.310350201573999"><ele>358.25</ele><time>2026-04-09T15:38:01.001Z</time></trkpt><trkpt lat="44.773684958182294" lon="7.310364487047931"><ele>358.0</ele><time>2026-04-09T15:38:03.001Z</time></trkpt><trkpt lat="44.77357577403718" lon="7.310375760210516"><ele>358.4</ele><time>2026-04-09T15:38:05.001Z</time></trkpt><trkpt lat="44.77347919794888" lon="7.310389871489923"><ele>358.79999999999995</ele><time>2026-04-09T15:38:07.001Z</time></trkpt><trkpt lat="44.77338754781645" lon="7.310404513699682"><ele>359.2</ele><time>2026-04-09T15:38:09.001Z</time></trkpt><trkpt lat="44.7732899559799" lon="7.310420883040586"><ele>359.6</ele><time>2026-04-09T15:38:11.001Z</time></trkpt><trkpt lat="44.773167264908054" lon="7.310438782347728"><ele>360.0</ele><time>2026-04-09T15:38:13.001Z</time></trkpt><trkpt lat="44.77309491127681" lon="7.310449164688436"><ele>360.0</ele><time>2026-04-09T15:38:14.001Z</time></trkpt><trkpt lat="44.7730157265302" lon="7.310456495813096"><ele>360.0</ele><time>2026-04-09T15:38:15.001Z</time></trkpt><trkpt lat="44.77293899376338" lon="7.310465631566514"><ele>360.0</ele><time>2026-04-09T15:38:16.001Z</time></trkpt><trkpt lat="44.772864280523116" lon="7.310475111566214"><ele>360.0</ele><time>2026-04-09T15:38:17.001Z</time></trkpt><trkpt lat="44.77279150791186" lon="7.310485069010434"><ele>360.0</ele><time>2026-04-09T15:38:18.001Z</time></trkpt><trkpt lat="44.7727199030417" lon="7.310495010619445"><ele>360.0</ele><time>2026-04-09T15:38:19.002Z</time></trkpt><trkpt lat="44.772649377410346" lon="7.3105043645968655"><ele>360.0</ele><time>2026-04-09T15:38:20.002Z</time></trkpt><trkpt lat="44.77258361540725" lon="7.310516432806151"><ele>359.8333333333333</ele><time>2026-04-09T15:38:21.002Z</time></trkpt><trkpt lat="44.772517684411255" lon="7.310524937307755"><ele>359.6666666666667</ele><time>2026-04-09T15:38:22.002Z</time></trkpt><trkpt lat="44.77245058238358" lon="7.310532786001409"><ele>359.5</ele><time>2026-04-09T15:38:23.002Z</time></trkpt><trkpt lat="44.77238429903064" lon="7.31054194222314"><ele>359.33333333333337</ele><time>2026-04-09T15:38:24.002Z</time></trkpt><trkpt lat="44.77232068169165" lon="7.310549229026169"><ele>359.1666666666667</ele><time>2026-04-09T15:38:25.002Z</time></trkpt><trkpt lat="44.77225777409897" lon="7.310557172337136"><ele>359.0</ele><time>2026-04-09T15:38:26.002Z</time></trkpt><trkpt lat="44.77213547398694" lon="7.310571469494577"><ele>359.0</ele><time>2026-04-09T15:38:28.002Z</time></trkpt><trkpt lat="44.77201576708605" lon="7.310584411710973"><ele>359.0</ele><time>2026-04-09T15:38:30.002Z</time></trkpt><trkpt lat="44.77189646537702" lon="7.310601263357032"><ele>359.0</ele><time>2026-04-09T15:38:32.002Z</time></trkpt><trkpt lat="44.771779242582824" lon="7.310615824440852"><ele>359.0</ele><time>2026-04-09T15:38:34.002Z</time></trkpt><trkpt lat="44.77166504186588" lon="7.310636211768283"><ele>359.0</ele><time>2026-04-09T15:38:36.002Z</time></trkpt><trkpt lat="44.7715488498993" lon="7.310651077757793"><ele>359.0</ele><time>2026-04-09T15:38:38.002Z</time></trkpt><trkpt lat="44.77143289369926" lon="7.31066443861658"><ele>359.0</ele><time>2026-04-09T15:38:40.002Z</time></trkpt><trkpt lat="44.771317671447854" lon="7.310682318738899"><ele>359.0</ele><time>2026-04-09T15:38:42.002Z</time></trkpt><trkpt lat="44.77120361273197" lon="7.310698753042678"><ele>359.0</ele><time>2026-04-09T15:38:44.002Z</time></trkpt><trkpt lat="44.77108933608603" lon="7.310713604980275"><ele>359.0</ele><time>2026-04-09T15:38:46.002Z</time></trkpt><trkpt lat="44.770977538343615" lon="7.31072585374785"><ele>359.0</ele><time>2026-04-09T15:38:48.002Z</time></trkpt><trkpt lat="44.77086576077599" lon="7.310744007603118"><ele>359.0</ele><time>2026-04-09T15:38:50.002Z</time></trkpt><trkpt lat="44.77075707100592" lon="7.310760068788836"><ele>359.0</ele><time>2026-04-09T15:38:52.002Z</time></trkpt><trkpt lat="44.77064839298524" lon="7.310774783467456"><ele>359.6</ele><time>2026-04-09T15:38:54.002Z</time></trkpt><trkpt lat="44.77053927250498" lon="7.310792402014096"><ele>360.2</ele><time>2026-04-09T15:38:56.002Z</time></trkpt><trkpt lat="44.77042836102238" lon="7.310807892693737"><ele>360.8</ele><time>2026-04-09T15:38:58.002Z</time></trkpt><trkpt lat="44.77032145375778" lon="7.310820079799102"><ele>361.40000000000003</ele><time>2026-04-09T15:39:00Z</time></trkpt><trkpt lat="44.77022557377997" lon="7.310832225809682"><ele>362.0</ele><time>2026-04-09T15:39:02Z</time></trkpt><trkpt lat="44.770130255094635" lon="7.310843110823292"><ele>362.25</ele><time>2026-04-09T15:39:04Z</time></trkpt><trkpt lat="44.77002135920642" lon="7.310858472965509"><ele>362.5</ele><time>2026-04-09T15:39:06Z</time></trkpt><trkpt lat="44.769906650029775" lon="7.310871611563739"><ele>362.75</ele><time>2026-04-09T15:39:08Z</time></trkpt><trkpt lat="44.76979036754653" lon="7.3108896819845794"><ele>363.0</ele><time>2026-04-09T15:39:10Z</time></trkpt><trkpt lat="44.769674166458344" lon="7.310903205691783"><ele>363.0</ele><time>2026-04-09T15:39:12Z</time></trkpt><trkpt lat="44.76955492890007" lon="7.310917526814446"><ele>363.0</ele><time>2026-04-09T15:39:14Z</time></trkpt><trkpt lat="44.769439324971316" lon="7.310932407083036"><ele>363.0</ele><time>2026-04-09T15:39:16Z</time></trkpt><trkpt lat="44.76932171685124" lon="7.310943701068616"><ele>363.0</ele><time>2026-04-09T15:39:18Z</time></trkpt><trkpt lat="44.76920314807925" lon="7.310961461747191"><ele>362.0</ele><time>2026-04-09T15:39:20Z</time></trkpt><trkpt lat="44.76908630695707" lon="7.310976799430151"><ele>361.0</ele><time>2026-04-09T15:39:22Z</time></trkpt><trkpt lat="44.76896802196001" lon="7.310991469064086"><ele>360.0</ele><time>2026-04-09T15:39:24.001Z</time></trkpt><trkpt lat="44.76884618556176" lon="7.3110105310943565"><ele>359.0</ele><time>2026-04-09T15:39:26.001Z</time></trkpt><trkpt lat="44.76872268779609" lon="7.311028049970916"><ele>359.0</ele><time>2026-04-09T15:39:28.001Z</time></trkpt><trkpt lat="44.76860016934113" lon="7.31104497233268"><ele>359.0</ele><time>2026-04-09T15:39:30.001Z</time></trkpt><trkpt lat="44.76847989899479" lon="7.311060512153213"><ele>359.0</ele><time>2026-04-09T15:39:32.001Z</time></trkpt><trkpt lat="44.76835860807818" lon="7.311074181404739"><ele>359.0</ele><time>2026-04-09T15:39:34.001Z</time></trkpt><trkpt lat="44.7682386262846" lon="7.31109046920393"><ele>359.0</ele><time>2026-04-09T15:39:36.001Z</time></trkpt><trkpt lat="44.7681196439283" lon="7.311109832178837"><ele>359.0</ele><time>2026-04-09T15:39:38.001Z</time></trkpt><trkpt lat="44.76800106600109" lon="7.311129058787733"><ele>359.0</ele><time>2026-04-09T15:39:40.001Z</time></trkpt><trkpt lat="44.767884002192694" lon="7.311146563877477"><ele>359.0</ele><time>2026-04-09T15:39:42.001Z</time></trkpt><trkpt lat="44.76776650898169" lon="7.31116191304093"><ele>358.25</ele><time>2026-04-09T15:39:44.001Z</time></trkpt><trkpt lat="44.767649960117126" lon="7.311176341021988"><ele>357.5</ele><time>2026-04-09T15:39:46.001Z</time></trkpt><trkpt lat="44.76753296329439" lon="7.311194374799383"><ele>356.75</ele><time>2026-04-09T15:39:48.001Z</time></trkpt><trkpt lat="44.76741793935985" lon="7.3112109168015555"><ele>356.0</ele><time>2026-04-09T15:39:50.001Z</time></trkpt><trkpt lat="44.767302696070495" lon="7.3112260700271285"><ele>356.0</ele><time>2026-04-09T15:39:52.001Z</time></trkpt><trkpt lat="44.767187410769395" lon="7.311241588448007"><ele>356.0</ele><time>2026-04-09T15:39:54.001Z</time></trkpt><trkpt lat="44.767073465235335" lon="7.311260441822043"><ele>356.0</ele><time>2026-04-09T15:39:56.001Z</time></trkpt><trkpt lat="44.76696121127843" lon="7.311287872658674"><ele>356.0</ele><time>2026-04-09T15:39:58.001Z</time></trkpt><trkpt lat="44.76684889487806" lon="7.311312479973319"><ele>356.0</ele><time>2026-04-09T15:40:00.001Z</time></trkpt><trkpt lat="44.76673834181505" lon="7.311347318069867"><ele>356.0</ele><time>2026-04-09T15:40:02.001Z</time></trkpt><trkpt lat="44.766628301163415" lon="7.311389487752311"><ele>356.0</ele><time>2026-04-09T15:40:04.001Z</time></trkpt><trkpt lat="44.766519787279414" lon="7.3114309871777685"><ele>356.0</ele><time>2026-04-09T15:40:06.001Z</time></trkpt><trkpt lat="44.7664113867407" lon="7.311478746138053"><ele>356.0</ele><time>2026-04-09T15:40:08.001Z</time></trkpt><trkpt lat="44.766304933431066" lon="7.311533412665873"><ele>356.0</ele><time>2026-04-09T15:40:10.001Z</time></trkpt><trkpt lat="44.766198244708114" lon="7.3115947578224985"><ele>356.0</ele><time>2026-04-09T15:40:12.001Z</time></trkpt><trkpt lat="44.766092892888395" lon="7.311660520084598"><ele>356.0</ele><time>2026-04-09T15:40:14.001Z</time></trkpt><trkpt lat="44.76598903761087" lon="7.31172831751932"><ele>356.4</ele><time>2026-04-09T15:40:16.001Z</time></trkpt><trkpt lat="44.765888841441864" lon="7.311800761258401"><ele>356.8</ele><time>2026-04-09T15:40:18.001Z</time></trkpt><trkpt lat="44.765791902509086" lon="7.31187679778498"><ele>357.2</ele><time>2026-04-09T15:40:20.001Z</time></trkpt><trkpt lat="44.765695699435085" lon="7.311955729710565"><ele>357.59999999999997</ele><time>2026-04-09T15:40:22.002Z</time></trkpt><trkpt lat="44.7656032627524" lon="7.312044406588935"><ele>358.0</ele><time>2026-04-09T15:40:24.002Z</time></trkpt><trkpt lat="44.765512144942825" lon="7.3121341169305865"><ele>358.0</ele><time>2026-04-09T15:40:26.002Z</time></trkpt><trkpt lat="44.765420513231994" lon="7.3122253802235715"><ele>358.0</ele><time>2026-04-09T15:40:28.002Z</time></trkpt><trkpt lat="44.76533282119507" lon="7.3123209817409185"><ele>358.0</ele><time>2026-04-09T15:40:30.002Z</time></trkpt><trkpt lat="44.765249513144894" lon="7.3124240444183055"><ele>358.0</ele><time>2026-04-09T15:40:32.002Z</time></trkpt><trkpt lat="44.765166396098856" lon="7.312532585818504"><ele>358.0</ele><time>2026-04-09T15:40:34.002Z</time></trkpt><trkpt lat="44.765082363971715" lon="7.312642017850843"><ele>358.0</ele><time>2026-04-09T15:40:36.002Z</time></trkpt><trkpt lat="44.76499142189335" lon="7.31273908412109"><ele>358.0</ele><time>2026-04-09T15:40:38.002Z</time></trkpt><trkpt lat="44.764904342338596" lon="7.312837938253366"><ele>358.0</ele><time>2026-04-09T15:40:40.002Z</time></trkpt><trkpt lat="44.76482066432912" lon="7.31294105626371"><ele>358.0</ele><time>2026-04-09T15:40:42.002Z</time></trkpt><trkpt lat="44.764733939036276" lon="7.313043479410778"><ele>357.59999999999997</ele><time>2026-04-09T15:40:44.002Z</time></trkpt><trkpt lat="44.76464771221745" lon="7.31314694714539"><ele>357.2</ele><time>2026-04-09T15:40:46.002Z</time></trkpt><trkpt lat="44.76456024347198" lon="7.313251260982935"><ele>356.8</ele><time>2026-04-09T15:40:48.002Z</time></trkpt><trkpt lat="44.764475329402195" lon="7.31335364136346"><ele>356.4</ele><time>2026-04-09T15:40:50.002Z</time></trkpt><trkpt lat="44.76439260906591" lon="7.31345346631613"><ele>356.0</ele><time>2026-04-09T15:40:52.002Z</time></trkpt><trkpt lat="44.76430860124461" lon="7.31355166791222"><ele>356.6</ele><time>2026-04-09T15:40:54.002Z</time></trkpt><trkpt lat="44.76422745751738" lon="7.313649753313972"><ele>357.20000000000005</ele><time>2026-04-09T15:40:56.002Z</time></trkpt><trkpt lat="44.76414741905006" lon="7.313751095709222"><ele>357.79999999999995</ele><time>2026-04-09T15:40:58.002Z</time></trkpt><trkpt lat="44.76406463734539" lon="7.313850745123113"><ele>358.4</ele><time>2026-04-09T15:41:00.002Z</time></trkpt><trkpt lat="44.76398239719335" lon="7.313949919563713"><ele>359.0</ele><time>2026-04-09T15:41:02.002Z</time></trkpt><trkpt lat="44.76390491259898" lon="7.314047666738621"><ele>359.0</ele><time>2026-04-09T15:41:04.002Z</time></trkpt><trkpt lat="44.763828447078104" lon="7.314144509068423"><ele>359.0</ele><time>2026-04-09T15:41:06Z</time></trkpt><trkpt lat="44.76375112345384" lon="7.314242305221048"><ele>359.0</ele><time>2026-04-09T15:41:08Z</time></trkpt><trkpt lat="44.76367368452206" lon="7.3143486565560645"><ele>359.0</ele><time>2026-04-09T15:41:10Z</time></trkpt><trkpt lat="44.7635969951789" lon="7.314454089905465"><ele>359.0</ele><time>2026-04-09T15:41:12Z</time></trkpt><trkpt lat="44.76351843195355" lon="7.3145535481457875"><ele>359.4</ele><time>2026-04-09T15:41:14Z</time></trkpt><trkpt lat="44.76343932719518" lon="7.314652561513481"><ele>359.79999999999995</ele><time>2026-04-09T15:41:16Z</time></trkpt><trkpt lat="44.76335633566675" lon="7.3147426677737535"><ele>360.20000000000005</ele><time>2026-04-09T15:41:18Z</time></trkpt><trkpt lat="44.76327291481388" lon="7.314830814617049"><ele>360.6</ele><time>2026-04-09T15:41:20Z</time></trkpt><trkpt lat="44.7631924934462" lon="7.314925941978745"><ele>361.0</ele><time>2026-04-09T15:41:22Z</time></trkpt><trkpt lat="44.763112133233214" lon="7.315026141601144"><ele>361.0</ele><time>2026-04-09T15:41:24Z</time></trkpt><trkpt lat="44.76303075173281" lon="7.315128902997321"><ele>361.0</ele><time>2026-04-09T15:41:26.001Z</time></trkpt><trkpt lat="44.76294606500779" lon="7.315227132272132"><ele>361.0</ele><time>2026-04-09T15:41:28.001Z</time></trkpt><trkpt lat="44.762859475895524" lon="7.3153247857247505"><ele>361.0</ele><time>2026-04-09T15:41:30.001Z</time></trkpt><trkpt lat="44.76277474226621" lon="7.315428520668684"><ele>361.0</ele><time>2026-04-09T15:41:32.001Z</time></trkpt><trkpt lat="44.76269288566536" lon="7.315530249937776"><ele>361.16666666666663</ele><time>2026-04-09T15:41:34.001Z</time></trkpt><trkpt lat="44.76261236694686" lon="7.315628469055686"><ele>361.3333333333333</ele><time>2026-04-09T15:41:36.001Z</time></trkpt><trkpt lat="44.76253721872087" lon="7.3157184386771155"><ele>361.5</ele><time>2026-04-09T15:41:38.001Z</time></trkpt><trkpt lat="44.762467613724425" lon="7.315803756615176"><ele>361.6666666666667</ele><time>2026-04-09T15:41:40.001Z</time></trkpt><trkpt lat="44.76240627605655" lon="7.315880017502327"><ele>361.83333333333337</ele><time>2026-04-09T15:41:42.001Z</time></trkpt><trkpt lat="44.76234948976161" lon="7.315937029277567"><ele>362.0</ele><time>2026-04-09T15:41:44.001Z</time></trkpt><trkpt lat="44.762283377934324" lon="7.316030914393658"><ele>362.0</ele><time>2026-04-09T15:41:47.001Z</time></trkpt><trkpt lat="44.76222528739519" lon="7.316097991787109"><ele>362.0</ele><time>2026-04-09T15:41:49.001Z</time></trkpt><trkpt lat="44.76215933560331" lon="7.316182909247723"><ele>362.0</ele><time>2026-04-09T15:41:51.001Z</time></trkpt><trkpt lat="44.76208750493665" lon="7.3162857003236175"><ele>362.0</ele><time>2026-04-09T15:41:53.001Z</time></trkpt><trkpt lat="44.762013970702284" lon="7.31639262670262"><ele>362.0</ele><time>2026-04-09T15:41:55.001Z</time></trkpt><trkpt lat="44.76193030769411" lon="7.316489943670249"><ele>362.20000000000005</ele><time>2026-04-09T15:41:57.001Z</time></trkpt><trkpt lat="44.76184478829755" lon="7.3165884287230485"><ele>362.4</ele><time>2026-04-09T15:41:59.001Z</time></trkpt><trkpt lat="44.76176046122814" lon="7.3166897748104915"><ele>362.6</ele><time>2026-04-09T15:42:01.001Z</time></trkpt><trkpt lat="44.76167431392104" lon="7.3167891453496505"><ele>362.79999999999995</ele><time>2026-04-09T15:42:03.001Z</time></trkpt><trkpt lat="44.76158856927674" lon="7.3168900158400465"><ele>363.0</ele><time>2026-04-09T15:42:05.001Z</time></trkpt><trkpt lat="44.76150549644973" lon="7.316992714429876"><ele>363.0</ele><time>2026-04-09T15:42:07.001Z</time></trkpt><trkpt lat="44.76141876197182" lon="7.31709359317812"><ele>363.0</ele><time>2026-04-09T15:42:09.001Z</time></trkpt><trkpt lat="44.76133038103082" lon="7.3171846770205935"><ele>363.0</ele><time>2026-04-09T15:42:11.001Z</time></trkpt><trkpt lat="44.76124701052768" lon="7.317287131677156"><ele>363.0</ele><time>2026-04-09T15:42:13.001Z</time></trkpt><trkpt lat="44.7611631887839" lon="7.31739102616329"><ele>363.0</ele><time>2026-04-09T15:42:15.001Z</time></trkpt><trkpt lat="44.76108058775994" lon="7.317500116903878"><ele>363.0</ele><time>2026-04-09T15:42:17.001Z</time></trkpt><trkpt lat="44.76099447327296" lon="7.3176040846629915"><ele>363.0</ele><time>2026-04-09T15:42:19.001Z</time></trkpt><trkpt lat="44.76091161608443" lon="7.317705698984902"><ele>363.0</ele><time>2026-04-09T15:42:21.001Z</time></trkpt><trkpt lat="44.760826832092334" lon="7.3178135466240075"><ele>363.0</ele><time>2026-04-09T15:42:23.001Z</time></trkpt><trkpt lat="44.76074020446643" lon="7.317921112585454"><ele>363.0</ele><time>2026-04-09T15:42:25.002Z</time></trkpt><trkpt lat="44.76065206322011" lon="7.3180271262860135"><ele>363.0</ele><time>2026-04-09T15:42:27.002Z</time></trkpt><trkpt lat="44.76056513820729" lon="7.318134856879808"><ele>363.0</ele><time>2026-04-09T15:42:29.002Z</time></trkpt><trkpt lat="44.76047836821675" lon="7.318239397899739"><ele>363.0</ele><time>2026-04-09T15:42:31.002Z</time></trkpt><trkpt lat="44.760393235103564" lon="7.31834469814975"><ele>363.0</ele><time>2026-04-09T15:42:33.002Z</time></trkpt><trkpt lat="44.76030985362919" lon="7.318450736250971"><ele>363.0</ele><time>2026-04-09T15:42:35.002Z</time></trkpt><trkpt lat="44.7602256352835" lon="7.318557932652779"><ele>363.0</ele><time>2026-04-09T15:42:37.002Z</time></trkpt><trkpt lat="44.760139037438094" lon="7.318664370865913"><ele>363.0</ele><time>2026-04-09T15:42:39.002Z</time></trkpt><trkpt lat="44.760055516170674" lon="7.318772152401993"><ele>363.0</ele><time>2026-04-09T15:42:41.002Z</time></trkpt><trkpt lat="44.75996894528321" lon="7.318879022311643"><ele>363.0</ele><time>2026-04-09T15:42:43.002Z</time></trkpt><trkpt lat="44.7598780684019" lon="7.318979509494632"><ele>363.0</ele><time>2026-04-09T15:42:45.002Z</time></trkpt><trkpt lat="44.75979362840793" lon="7.3190869878096745"><ele>363.0</ele><time>2026-04-09T15:42:47.002Z</time></trkpt><trkpt lat="44.759711527206086" lon="7.319196388643186"><ele>362.75</ele><time>2026-04-09T15:42:49.002Z</time></trkpt><trkpt lat="44.759620101444156" lon="7.319292852315567"><ele>362.5</ele><time>2026-04-09T15:42:51.002Z</time></trkpt><trkpt lat="44.759529003066895" lon="7.319389514123774"><ele>362.25</ele><time>2026-04-09T15:42:53.002Z</time></trkpt><trkpt lat="44.75944148776344" lon="7.319491411430455"><ele>362.0</ele><time>2026-04-09T15:42:55.002Z</time></trkpt><trkpt lat="44.75935513167627" lon="7.3195929713135275"><ele>362.0</ele><time>2026-04-09T15:42:57.002Z</time></trkpt><trkpt lat="44.75926666473312" lon="7.319692652793149"><ele>362.0</ele><time>2026-04-09T15:42:59.002Z</time></trkpt><trkpt lat="44.7591783097708" lon="7.319786550121829"><ele>362.0</ele><time>2026-04-09T15:43:01.002Z</time></trkpt><trkpt lat="44.75908691807363" lon="7.319879630046106"><ele>362.0</ele><time>2026-04-09T15:43:03.002Z</time></trkpt><trkpt lat="44.759005240471716" lon="7.319956648972582"><ele>362.0</ele><time>2026-04-09T15:43:05.002Z</time></trkpt><trkpt lat="44.75894905342374" lon="7.320007990669903"><ele>361.8</ele><time>2026-04-09T15:43:07.002Z</time></trkpt><trkpt lat="44.758872051654485" lon="7.320048559653654"><ele>361.6</ele><time>2026-04-09T15:43:09.002Z</time></trkpt><trkpt lat="44.758812644085324" lon="7.320167541826473"><ele>361.40000000000003</ele><time>2026-04-09T15:43:11.002Z</time></trkpt><trkpt lat="44.75871238073867" lon="7.320248548508646"><ele>361.20000000000005</ele><time>2026-04-09T15:43:13Z</time></trkpt><trkpt lat="44.75861184341623" lon="7.320331912287088"><ele>361.0</ele><time>2026-04-09T15:43:15Z</time></trkpt><trkpt lat="44.75850745531042" lon="7.320410125229203"><ele>361.0</ele><time>2026-04-09T15:43:17Z</time></trkpt><trkpt lat="44.75840208264736" lon="7.320480893452152"><ele>361.0</ele><time>2026-04-09T15:43:19Z</time></trkpt><trkpt lat="44.75829594186961" lon="7.320551951133122"><ele>361.0</ele><time>2026-04-09T15:43:21Z</time></trkpt><trkpt lat="44.75818501021797" lon="7.32062251136362"><ele>361.0</ele><time>2026-04-09T15:43:23Z</time></trkpt><trkpt lat="44.75807345263261" lon="7.320687314272311"><ele>361.0</ele><time>2026-04-09T15:43:25Z</time></trkpt><trkpt lat="44.75796273990346" lon="7.320752568835542"><ele>361.0</ele><time>2026-04-09T15:43:27Z</time></trkpt><trkpt lat="44.75785478732453" lon="7.3208195086834795"><ele>361.0</ele><time>2026-04-09T15:43:29Z</time></trkpt><trkpt lat="44.75774596230729" lon="7.320882280985359"><ele>361.0</ele><time>2026-04-09T15:43:31Z</time></trkpt><trkpt lat="44.7576356879702" lon="7.320947085282183"><ele>360.25</ele><time>2026-04-09T15:43:33Z</time></trkpt><trkpt lat="44.757528356993404" lon="7.321010987739975"><ele>359.5</ele><time>2026-04-09T15:43:35.001Z</time></trkpt><trkpt lat="44.7574172353655" lon="7.321075173522841"><ele>358.75</ele><time>2026-04-09T15:43:37.001Z</time></trkpt><trkpt lat="44.75730868788163" lon="7.321138619537401"><ele>358.0</ele><time>2026-04-09T15:43:39.001Z</time></trkpt><trkpt lat="44.757200798668755" lon="7.321203056821625"><ele>358.0</ele><time>2026-04-09T15:43:41.001Z</time></trkpt><trkpt lat="44.75709046709228" lon="7.321265287620074"><ele>358.0</ele><time>2026-04-09T15:43:43.001Z</time></trkpt><trkpt lat="44.756982239490505" lon="7.321328606343018"><ele>358.0</ele><time>2026-04-09T15:43:45.001Z</time></trkpt><trkpt lat="44.756874749931626" lon="7.321394742370742"><ele>358.0</ele><time>2026-04-09T15:43:47.001Z</time></trkpt><trkpt lat="44.75677395319037" lon="7.3214652577924575"><ele>358.59999999999997</ele><time>2026-04-09T15:43:49.001Z</time></trkpt><trkpt lat="44.75667767471176" lon="7.321543712003941"><ele>359.2</ele><time>2026-04-09T15:43:51.001Z</time></trkpt><trkpt lat="44.756582925102926" lon="7.3216271043895675"><ele>359.8</ele><time>2026-04-09T15:43:53.001Z</time></trkpt><trkpt lat="44.756491950965085" lon="7.321714010822206"><ele>360.4</ele><time>2026-04-09T15:43:55.001Z</time></trkpt><trkpt lat="44.756399738910474" lon="7.321801481913731"><ele>361.0</ele><time>2026-04-09T15:43:57.001Z</time></trkpt><trkpt lat="44.75630868680894" lon="7.3218954316733775"><ele>361.0</ele><time>2026-04-09T15:43:59.001Z</time></trkpt><trkpt lat="44.75621700019639" lon="7.321989379356427"><ele>361.0</ele><time>2026-04-09T15:44:01.001Z</time></trkpt><trkpt lat="44.756130916243755" lon="7.322084783599636"><ele>361.0</ele><time>2026-04-09T15:44:03.001Z</time></trkpt><trkpt lat="44.75604840525037" lon="7.322181575946329"><ele>361.0</ele><time>2026-04-09T15:44:05.001Z</time></trkpt><trkpt lat="44.75596864743006" lon="7.32227929817196"><ele>361.0</ele><time>2026-04-09T15:44:07.001Z</time></trkpt><trkpt lat="44.75589087361928" lon="7.3223764471025055"><ele>361.0</ele><time>2026-04-09T15:44:09.001Z</time></trkpt><trkpt lat="44.75581376114998" lon="7.3224714270973905"><ele>361.0</ele><time>2026-04-09T15:44:11.001Z</time></trkpt><trkpt lat="44.75574016675995" lon="7.322578712941028"><ele>361.0</ele><time>2026-04-09T15:44:13.001Z</time></trkpt><trkpt lat="44.75566620572245" lon="7.322688227320015"><ele>361.0</ele><time>2026-04-09T15:44:15.001Z</time></trkpt><trkpt lat="44.75559707133078" lon="7.32280037490651"><ele>361.0</ele><time>2026-04-09T15:44:17.001Z</time></trkpt><trkpt lat="44.75552530422073" lon="7.32291074553538"><ele>361.0</ele><time>2026-04-09T15:44:19.001Z</time></trkpt><trkpt lat="44.75545611176322" lon="7.323024126833802"><ele>361.0</ele><time>2026-04-09T15:44:21.001Z</time></trkpt><trkpt lat="44.755390024019746" lon="7.32313927631024"><ele>361.0</ele><time>2026-04-09T15:44:23.001Z</time></trkpt><trkpt lat="44.7553214526109" lon="7.323253072503245"><ele>361.0</ele><time>2026-04-09T15:44:25.001Z</time></trkpt><trkpt lat="44.75525448523976" lon="7.323366273426906"><ele>361.0</ele><time>2026-04-09T15:44:27.001Z</time></trkpt><trkpt lat="44.75518853737912" lon="7.323478706301265"><ele>361.0</ele><time>2026-04-09T15:44:29.001Z</time></trkpt><trkpt lat="44.755121640349685" lon="7.323590462707126"><ele>361.0</ele><time>2026-04-09T15:44:31.002Z</time></trkpt><trkpt lat="44.75505638182728" lon="7.323701742604206"><ele>361.0</ele><time>2026-04-09T15:44:33.002Z</time></trkpt><trkpt lat="44.75499065309756" lon="7.323811537887321"><ele>361.0</ele><time>2026-04-09T15:44:35.002Z</time></trkpt><trkpt lat="44.75492665813905" lon="7.323923962935401"><ele>361.0</ele><time>2026-04-09T15:44:37.002Z</time></trkpt><trkpt lat="44.754859011168186" lon="7.324034730059022"><ele>360.6</ele><time>2026-04-09T15:44:39.002Z</time></trkpt><trkpt lat="44.7547900225518" lon="7.324145735849112"><ele>360.20000000000005</ele><time>2026-04-09T15:44:41.002Z</time></trkpt><trkpt lat="44.75471527394658" lon="7.324255177931024"><ele>359.79999999999995</ele><time>2026-04-09T15:44:43.002Z</time></trkpt><trkpt lat="44.75463442906889" lon="7.324363849783606"><ele>359.4</ele><time>2026-04-09T15:44:45.002Z</time></trkpt><trkpt lat="44.75454859491392" lon="7.324472797878832"><ele>359.0</ele><time>2026-04-09T15:44:47.002Z</time></trkpt><trkpt lat="44.75446311692645" lon="7.324584976921841"><ele>359.0</ele><time>2026-04-09T15:44:49.002Z</time></trkpt><trkpt lat="44.7543702087433" lon="7.324696227625567"><ele>359.0</ele><time>2026-04-09T15:44:51.002Z</time></trkpt><trkpt lat="44.754276377223064" lon="7.324799695371648"><ele>359.0</ele><time>2026-04-09T15:44:53.002Z</time></trkpt><trkpt lat="44.754182103801774" lon="7.324901674896711"><ele>359.0</ele><time>2026-04-09T15:44:55.002Z</time></trkpt><trkpt lat="44.75408612922972" lon="7.324999951596413"><ele>359.0</ele><time>2026-04-09T15:44:57.002Z</time></trkpt><trkpt lat="44.75398764647997" lon="7.325090761019894"><ele>359.0</ele><time>2026-04-09T15:44:59.002Z</time></trkpt><trkpt lat="44.75389471449535" lon="7.325175028261494"><ele>359.0</ele><time>2026-04-09T15:45:01.002Z</time></trkpt><trkpt lat="44.753807328483646" lon="7.325250617720276"><ele>359.0</ele><time>2026-04-09T15:45:03.002Z</time></trkpt><trkpt lat="44.75372415441351" lon="7.325317071275106"><ele>359.0</ele><time>2026-04-09T15:45:05.002Z</time></trkpt><trkpt lat="44.753641576575944" lon="7.325375205262674"><ele>359.0</ele><time>2026-04-09T15:45:07.002Z</time></trkpt><trkpt lat="44.753576514900516" lon="7.325423431921874"><ele>359.0</ele><time>2026-04-09T15:45:09.002Z</time></trkpt><trkpt lat="44.753504152201174" lon="7.325471847559904"><ele>359.0</ele><time>2026-04-09T15:45:12.002Z</time></trkpt><trkpt lat="44.75343116520135" lon="7.325519995189454"><ele>359.0</ele><time>2026-04-09T15:45:15.002Z</time></trkpt><trkpt lat="44.75336738474847" lon="7.325563629726826"><ele>359.0</ele><time>2026-04-09T15:45:17.002Z</time></trkpt><trkpt lat="44.75329149845479" lon="7.325633957023243"><ele>359.0</ele><time>2026-04-09T15:45:19Z</time></trkpt><trkpt lat="44.75319623564939" lon="7.325675970592159"><ele>359.0</ele><time>2026-04-09T15:45:21Z</time></trkpt><trkpt lat="44.75309931000203" lon="7.325728892004893"><ele>359.0</ele><time>2026-04-09T15:45:23Z</time></trkpt><trkpt lat="44.752984602083195" lon="7.325767834986017"><ele>359.0</ele><time>2026-04-09T15:45:25Z</time></trkpt><trkpt lat="44.75286931082496" lon="7.325827265281655"><ele>359.0</ele><time>2026-04-09T15:45:27Z</time></trkpt><trkpt lat="44.75275641540175" lon="7.325886763852407"><ele>359.5</ele><time>2026-04-09T15:45:29Z</time></trkpt><trkpt lat="44.75264462434416" lon="7.325943168336561"><ele>360.0</ele><time>2026-04-09T15:45:31Z</time></trkpt><trkpt lat="44.752535257236204" lon="7.325999303889736"><ele>360.5</ele><time>2026-04-09T15:45:33Z</time></trkpt><trkpt lat="44.752425963626564" lon="7.326055833407023"><ele>361.0</ele><time>2026-04-09T15:45:35Z</time></trkpt><trkpt lat="44.75232159045891" lon="7.32611278178261"><ele>361.0</ele><time>2026-04-09T15:45:37Z</time></trkpt><trkpt lat="44.75221518388689" lon="7.326166576461374"><ele>361.0</ele><time>2026-04-09T15:45:39Z</time></trkpt><trkpt lat="44.75211351858476" lon="7.3262224139565975"><ele>361.0</ele><time>2026-04-09T15:45:41Z</time></trkpt><trkpt lat="44.75201271953893" lon="7.326277647750721"><ele>361.0</ele><time>2026-04-09T15:45:43Z</time></trkpt><trkpt lat="44.751913503331124" lon="7.326335662491492"><ele>361.0</ele><time>2026-04-09T15:45:45.001Z</time></trkpt><trkpt lat="44.75181614155364" lon="7.326398113621703"><ele>360.4</ele><time>2026-04-09T15:45:47.001Z</time></trkpt><trkpt lat="44.75172074346741" lon="7.32646674098995"><ele>359.8</ele><time>2026-04-09T15:45:49.001Z</time></trkpt><trkpt lat="44.751622724876" lon="7.326538056238125"><ele>359.2</ele><time>2026-04-09T15:45:51.001Z</time></trkpt><trkpt lat="44.75152873683177" lon="7.326613411985015"><ele>358.59999999999997</ele><time>2026-04-09T15:45:53.001Z</time></trkpt><trkpt lat="44.75143716603977" lon="7.326698963686246"><ele>358.0</ele><time>2026-04-09T15:45:55.001Z</time></trkpt><trkpt lat="44.75134389411629" lon="7.326778833346387"><ele>358.0</ele><time>2026-04-09T15:45:57.001Z</time></trkpt><trkpt lat="44.75125336118915" lon="7.3268667753759775"><ele>358.0</ele><time>2026-04-09T15:45:59.001Z</time></trkpt><trkpt lat="44.75116655068702" lon="7.326962167334058"><ele>358.0</ele><time>2026-04-09T15:46:01.001Z</time></trkpt><trkpt lat="44.75108387849285" lon="7.327056987937264"><ele>358.0</ele><time>2026-04-09T15:46:03.001Z</time></trkpt><trkpt lat="44.75100073739038" lon="7.327154636034086"><ele>358.0</ele><time>2026-04-09T15:46:05.001Z</time></trkpt><trkpt lat="44.750921832226496" lon="7.327253955268466"><ele>358.0</ele><time>2026-04-09T15:46:07.001Z</time></trkpt><trkpt lat="44.750851737642144" lon="7.327360268489113"><ele>358.0</ele><time>2026-04-09T15:46:09.001Z</time></trkpt><trkpt lat="44.75078384601276" lon="7.327467734570182"><ele>358.0</ele><time>2026-04-09T15:46:11.001Z</time></trkpt><trkpt lat="44.75071652635731" lon="7.327575694291097"><ele>358.0</ele><time>2026-04-09T15:46:13.001Z</time></trkpt><trkpt lat="44.75064792877419" lon="7.327677452002449"><ele>358.0</ele><time>2026-04-09T15:46:15.001Z</time></trkpt><trkpt lat="44.75058056755985" lon="7.327781449694606"><ele>358.0</ele><time>2026-04-09T15:46:17.001Z</time></trkpt><trkpt lat="44.750514819210984" lon="7.327882643765513"><ele>358.0</ele><time>2026-04-09T15:46:19.001Z</time></trkpt><trkpt lat="44.75044924126863" lon="7.327984687311523"><ele>358.0</ele><time>2026-04-09T15:46:21.001Z</time></trkpt><trkpt lat="44.75038194816582" lon="7.328090409314642"><ele>358.0</ele><time>2026-04-09T15:46:23.001Z</time></trkpt><trkpt lat="44.75031153954357" lon="7.328202029565792"><ele>358.0</ele><time>2026-04-09T15:46:25.001Z</time></trkpt><trkpt lat="44.75023639651785" lon="7.3283168749183005"><ele>358.0</ele><time>2026-04-09T15:46:27.001Z</time></trkpt><trkpt lat="44.750159557736374" lon="7.328431092132045"><ele>358.0</ele><time>2026-04-09T15:46:29.001Z</time></trkpt><trkpt lat="44.75008473975652" lon="7.328546617257299"><ele>358.0</ele><time>2026-04-09T15:46:31.001Z</time></trkpt><trkpt lat="44.750011325448305" lon="7.32865855424346"><ele>358.0</ele><time>2026-04-09T15:46:33.001Z</time></trkpt><trkpt lat="44.74993582198234" lon="7.328768283126173"><ele>358.0</ele><time>2026-04-09T15:46:35.001Z</time></trkpt><trkpt lat="44.749862361840556" lon="7.328876754274832"><ele>357.4</ele><time>2026-04-09T15:46:37.001Z</time></trkpt><trkpt lat="44.749789033965335" lon="7.328988479851075"><ele>356.79999999999995</ele><time>2026-04-09T15:46:39.001Z</time></trkpt><trkpt lat="44.7497132265668" lon="7.329095651700635"><ele>356.2</ele><time>2026-04-09T15:46:41.002Z</time></trkpt><trkpt lat="44.749635953870346" lon="7.329202423846719"><ele>355.6</ele><time>2026-04-09T15:46:43.002Z</time></trkpt><trkpt lat="44.749553512748236" lon="7.329305566701289"><ele>355.0</ele><time>2026-04-09T15:46:45.002Z</time></trkpt><trkpt lat="44.74947542457578" lon="7.329414034366587"><ele>355.0</ele><time>2026-04-09T15:46:47.002Z</time></trkpt><trkpt lat="44.7493938454768" lon="7.329523848170306"><ele>355.0</ele><time>2026-04-09T15:46:49.002Z</time></trkpt><trkpt lat="44.74931247930915" lon="7.329630116692993"><ele>355.0</ele><time>2026-04-09T15:46:51.002Z</time></trkpt><trkpt lat="44.749230209719535" lon="7.329734549383106"><ele>355.0</ele><time>2026-04-09T15:46:53.002Z</time></trkpt><trkpt lat="44.74914670014884" lon="7.329835451152033"><ele>355.0</ele><time>2026-04-09T15:46:55.002Z</time></trkpt><trkpt lat="44.74906239930224" lon="7.329933534322216"><ele>355.2</ele><time>2026-04-09T15:46:57.002Z</time></trkpt><trkpt lat="44.74897931772358" lon="7.330031917131228"><ele>355.4</ele><time>2026-04-09T15:46:59.002Z</time></trkpt><trkpt lat="44.74889612316083" lon="7.330128816967685"><ele>355.6</ele><time>2026-04-09T15:47:01.002Z</time></trkpt><trkpt lat="44.748810168297034" lon="7.330222794497679"><ele>355.8</ele><time>2026-04-09T15:47:03.002Z</time></trkpt><trkpt lat="44.74872119796054" lon="7.330314779576068"><ele>356.0</ele><time>2026-04-09T15:47:05.002Z</time></trkpt><trkpt lat="44.748633190592635" lon="7.330408018875052"><ele>356.0</ele><time>2026-04-09T15:47:07.002Z</time></trkpt><trkpt lat="44.74854561037872" lon="7.330497667195757"><ele>356.0</ele><time>2026-04-09T15:47:09.002Z</time></trkpt><trkpt lat="44.74845680249874" lon="7.330585152265726"><ele>356.0</ele><time>2026-04-09T15:47:11.002Z</time></trkpt><trkpt lat="44.74836850861816" lon="7.330675141747692"><ele>356.0</ele><time>2026-04-09T15:47:13.002Z</time></trkpt><trkpt lat="44.748278075800805" lon="7.330760402494257"><ele>356.0</ele><time>2026-04-09T15:47:15.002Z</time></trkpt><trkpt lat="44.74818389436777" lon="7.330845734072153"><ele>355.5</ele><time>2026-04-09T15:47:17.002Z</time></trkpt><trkpt lat="44.748085814855635" lon="7.33092853740282"><ele>355.0</ele><time>2026-04-09T15:47:19.002Z</time></trkpt><trkpt lat="44.74798770427308" lon="7.331011838580222"><ele>354.5</ele><time>2026-04-09T15:47:21.002Z</time></trkpt><trkpt lat="44.74788944189854" lon="7.331094867545343"><ele>354.0</ele><time>2026-04-09T15:47:23.002Z</time></trkpt><trkpt lat="44.74778998838164" lon="7.331178926675791"><ele>354.6</ele><time>2026-04-09T15:47:25Z</time></trkpt><trkpt lat="44.74768973421747" lon="7.33125601972803"><ele>355.2</ele><time>2026-04-09T15:47:27Z</time></trkpt><trkpt lat="44.747591949666926" lon="7.331329448925385"><ele>355.8</ele><time>2026-04-09T15:47:29Z</time></trkpt><trkpt lat="44.747493631762225" lon="7.331402084618052"><ele>356.40000000000003</ele><time>2026-04-09T15:47:31Z</time></trkpt><trkpt lat="44.7473946309291" lon="7.331473047024384"><ele>357.0</ele><time>2026-04-09T15:47:33Z</time></trkpt><trkpt lat="44.747294290332015" lon="7.331542689902528"><ele>357.0</ele><time>2026-04-09T15:47:35Z</time></trkpt><trkpt lat="44.74719602050533" lon="7.331613980955666"><ele>357.0</ele><time>2026-04-09T15:47:37Z</time></trkpt><trkpt lat="44.74709845492054" lon="7.331684253308841"><ele>357.0</ele><time>2026-04-09T15:47:39Z</time></trkpt><trkpt lat="44.74699848699906" lon="7.3317531854865665"><ele>357.0</ele><time>2026-04-09T15:47:41Z</time></trkpt><trkpt lat="44.74689592210115" lon="7.331816893092763"><ele>357.0</ele><time>2026-04-09T15:47:43Z</time></trkpt><trkpt lat="44.74679377754616" lon="7.331876345151927"><ele>357.0</ele><time>2026-04-09T15:47:45Z</time></trkpt><trkpt lat="44.74668838468561" lon="7.3319321480616555"><ele>357.0</ele><time>2026-04-09T15:47:47Z</time></trkpt><trkpt lat="44.746586747579116" lon="7.3319878997649806"><ele>357.0</ele><time>2026-04-09T15:47:49Z</time></trkpt><trkpt lat="44.74648747595779" lon="7.332046049892586"><ele>357.0</ele><time>2026-04-09T15:47:51Z</time></trkpt><trkpt lat="44.74638532590325" lon="7.332099239970922"><ele>357.0</ele><time>2026-04-09T15:47:53Z</time></trkpt><trkpt lat="44.74628447308605" lon="7.332154123206293"><ele>357.0</ele><time>2026-04-09T15:47:55Z</time></trkpt><trkpt lat="44.74618296812804" lon="7.332203074818598"><ele>357.0</ele><time>2026-04-09T15:47:57Z</time></trkpt><trkpt lat="44.74608003924932" lon="7.332254233870051"><ele>357.0</ele><time>2026-04-09T15:47:59Z</time></trkpt><trkpt lat="44.74597437727763" lon="7.332297408021453"><ele>357.0</ele><time>2026-04-09T15:48:01Z</time></trkpt><trkpt lat="44.74587007462466" lon="7.332340472825577"><ele>357.0</ele><time>2026-04-09T15:48:03.001Z</time></trkpt><trkpt lat="44.74576474162614" lon="7.332385880467266"><ele>356.8</ele><time>2026-04-09T15:48:05.001Z</time></trkpt><trkpt lat="44.7456583872924" lon="7.3324264056493025"><ele>356.6</ele><time>2026-04-09T15:48:07.001Z</time></trkpt><trkpt lat="44.7455545502502" lon="7.332469257550214"><ele>356.40000000000003</ele><time>2026-04-09T15:48:09.001Z</time></trkpt><trkpt lat="44.74544958065293" lon="7.332500388616661"><ele>356.20000000000005</ele><time>2026-04-09T15:48:11.001Z</time></trkpt><trkpt lat="44.7453452065307" lon="7.332536983948064"><ele>356.0</ele><time>2026-04-09T15:48:13.001Z</time></trkpt><trkpt lat="44.745238811570125" lon="7.332573631199844"><ele>356.6</ele><time>2026-04-09T15:48:15.001Z</time></trkpt><trkpt lat="44.745133451116615" lon="7.332604487109279"><ele>357.20000000000005</ele><time>2026-04-09T15:48:17.001Z</time></trkpt><trkpt lat="44.7450283091623" lon="7.332630696766801"><ele>357.79999999999995</ele><time>2026-04-09T15:48:19.001Z</time></trkpt><trkpt lat="44.74492296759988" lon="7.332659916194846"><ele>358.4</ele><time>2026-04-09T15:48:21.001Z</time></trkpt><trkpt lat="44.744821859632474" lon="7.3326872460952055"><ele>359.0</ele><time>2026-04-09T15:48:23.001Z</time></trkpt><trkpt lat="44.74471466623446" lon="7.332708773642227"><ele>359.0</ele><time>2026-04-09T15:48:25.001Z</time></trkpt><trkpt lat="44.74460780865882" lon="7.332732122660548"><ele>359.0</ele><time>2026-04-09T15:48:27.001Z</time></trkpt><trkpt lat="44.74450069489597" lon="7.332751211687739"><ele>359.0</ele><time>2026-04-09T15:48:29.001Z</time></trkpt><trkpt lat="44.74439048001927" lon="7.332770398047774"><ele>359.0</ele><time>2026-04-09T15:48:31.001Z</time></trkpt><trkpt lat="44.744279878742816" lon="7.332786922114777"><ele>359.0</ele><time>2026-04-09T15:48:33.001Z</time></trkpt><trkpt lat="44.74416980418162" lon="7.33280182090996"><ele>359.2</ele><time>2026-04-09T15:48:35.001Z</time></trkpt><trkpt lat="44.74406047237303" lon="7.33281649670874"><ele>359.4</ele><time>2026-04-09T15:48:37.001Z</time></trkpt><trkpt lat="44.74394824820614" lon="7.332825847097545"><ele>359.6</ele><time>2026-04-09T15:48:39.001Z</time></trkpt><trkpt lat="44.7438367161922" lon="7.33284054369567"><ele>359.8</ele><time>2026-04-09T15:48:41.001Z</time></trkpt><trkpt lat="44.743725219340035" lon="7.332853466212982"><ele>360.0</ele><time>2026-04-09T15:48:43.001Z</time></trkpt><trkpt lat="44.743613248708805" lon="7.3328586319251245"><ele>359.75</ele><time>2026-04-09T15:48:45.001Z</time></trkpt><trkpt lat="44.74350046317709" lon="7.332865170314253"><ele>359.5</ele><time>2026-04-09T15:48:47.001Z</time></trkpt><trkpt lat="44.743387595845014" lon="7.332876670247459"><ele>359.25</ele><time>2026-04-09T15:48:49.001Z</time></trkpt><trkpt lat="44.7432755697762" lon="7.332888310584948"><ele>359.0</ele><time>2026-04-09T15:48:51.001Z</time></trkpt><trkpt lat="44.74316308202559" lon="7.33290051489542"><ele>359.0</ele><time>2026-04-09T15:48:53.001Z</time></trkpt><trkpt lat="44.74305178000052" lon="7.332917329164888"><ele>359.0</ele><time>2026-04-09T15:48:55.001Z</time></trkpt><trkpt lat="44.74294099887284" lon="7.3329308243202505"><ele>359.0</ele><time>2026-04-09T15:48:57.002Z</time></trkpt><trkpt lat="44.74282654493589" lon="7.332940492881579"><ele>359.0</ele><time>2026-04-09T15:48:59.002Z</time></trkpt><trkpt lat="44.742711742849366" lon="7.332948763897918"><ele>359.0</ele><time>2026-04-09T15:49:01.002Z</time></trkpt><trkpt lat="44.74259538555062" lon="7.332955606553731"><ele>359.0</ele><time>2026-04-09T15:49:03.002Z</time></trkpt><trkpt lat="44.74248011447092" lon="7.332955004799722"><ele>359.0</ele><time>2026-04-09T15:49:05.002Z</time></trkpt><trkpt lat="44.74236632535052" lon="7.332962189974935"><ele>359.0</ele><time>2026-04-09T15:49:07.002Z</time></trkpt><trkpt lat="44.74225421856058" lon="7.332972598280881"><ele>359.0</ele><time>2026-04-09T15:49:09.002Z</time></trkpt><trkpt lat="44.74214266049442" lon="7.332982246236474"><ele>359.0</ele><time>2026-04-09T15:49:11.002Z</time></trkpt><trkpt lat="44.7420323619004" lon="7.332992341189596"><ele>359.0</ele><time>2026-04-09T15:49:13.002Z</time></trkpt><trkpt lat="44.74192546130811" lon="7.333002020414238"><ele>359.0</ele><time>2026-04-09T15:49:15.002Z</time></trkpt><trkpt lat="44.741818709677226" lon="7.333006275111443"><ele>359.0</ele><time>2026-04-09T15:49:17.002Z</time></trkpt><trkpt lat="44.74171199948607" lon="7.33302047532174"><ele>359.4</ele><time>2026-04-09T15:49:19.002Z</time></trkpt><trkpt lat="44.74160619315963" lon="7.3330360053819925"><ele>359.79999999999995</ele><time>2026-04-09T15:49:21.002Z</time></trkpt><trkpt lat="44.741498578202666" lon="7.333032626244978"><ele>360.20000000000005</ele><time>2026-04-09T15:49:23.002Z</time></trkpt><trkpt lat="44.74139165269656" lon="7.333041147709702"><ele>360.6</ele><time>2026-04-09T15:49:25.002Z</time></trkpt><trkpt lat="44.7412833268786" lon="7.333053259715273"><ele>361.0</ele><time>2026-04-09T15:49:27.002Z</time></trkpt><trkpt lat="44.74117318499183" lon="7.333059903976253"><ele>361.0</ele><time>2026-04-09T15:49:29.002Z</time></trkpt><trkpt lat="44.741064300501435" lon="7.333067497278066"><ele>361.0</ele><time>2026-04-09T15:49:31Z</time></trkpt><trkpt lat="44.74095518933643" lon="7.333076829473926"><ele>361.0</ele><time>2026-04-09T15:49:33Z</time></trkpt><trkpt lat="44.740845351409085" lon="7.333086683424225"><ele>361.0</ele><time>2026-04-09T15:49:35Z</time></trkpt><trkpt lat="44.740737221790454" lon="7.333092342300689"><ele>361.0</ele><time>2026-04-09T15:49:37Z</time></trkpt><trkpt lat="44.74062732661348" lon="7.333101554807865"><ele>360.4</ele><time>2026-04-09T15:49:39Z</time></trkpt><trkpt lat="44.74051775574117" lon="7.333110492356344"><ele>359.8</ele><time>2026-04-09T15:49:41Z</time></trkpt><trkpt lat="44.740408339760734" lon="7.33311825579665"><ele>359.2</ele><time>2026-04-09T15:49:43Z</time></trkpt><trkpt lat="44.740297818145926" lon="7.333129612120351"><ele>358.59999999999997</ele><time>2026-04-09T15:49:45Z</time></trkpt><trkpt lat="44.74018685785006" lon="7.333134940852354"><ele>358.0</ele><time>2026-04-09T15:49:47Z</time></trkpt><trkpt lat="44.74007579250726" lon="7.333142541872511"><ele>357.79999999999995</ele><time>2026-04-09T15:49:49Z</time></trkpt><trkpt lat="44.7399661210758" lon="7.333155420863625"><ele>357.6</ele><time>2026-04-09T15:49:51Z</time></trkpt><trkpt lat="44.73985601227773" lon="7.333164228654495"><ele>357.4</ele><time>2026-04-09T15:49:53Z</time></trkpt><trkpt lat="44.739744023812584" lon="7.333171082334197"><ele>357.20000000000005</ele><time>2026-04-09T15:49:55Z</time></trkpt><trkpt lat="44.73963180534086" lon="7.333175961562929"><ele>357.0</ele><time>2026-04-09T15:49:57Z</time></trkpt><trkpt lat="44.739519621102" lon="7.333187266405416"><ele>357.0</ele><time>2026-04-09T15:49:59Z</time></trkpt><trkpt lat="44.7394094455143" lon="7.333195330040234"><ele>357.0</ele><time>2026-04-09T15:50:01.001Z</time></trkpt><trkpt lat="44.73929891996075" lon="7.33320491325135"><ele>357.0</ele><time>2026-04-09T15:50:03.001Z</time></trkpt><trkpt lat="44.739190728663196" lon="7.333214464592684"><ele>357.0</ele><time>2026-04-09T15:50:05.001Z</time></trkpt><trkpt lat="44.73908232824351" lon="7.333219473153853"><ele>357.0</ele><time>2026-04-09T15:50:07.001Z</time></trkpt><trkpt lat="44.73897385298515" lon="7.333231894744667"><ele>356.8</ele><time>2026-04-09T15:50:09.001Z</time></trkpt><trkpt lat="44.73886523458041" lon="7.3332439310474635"><ele>356.6</ele><time>2026-04-09T15:50:11.001Z</time></trkpt><trkpt lat="44.73875576851683" lon="7.33325341501905"><ele>356.40000000000003</ele><time>2026-04-09T15:50:13.001Z</time></trkpt><trkpt lat="44.738647827878474" lon="7.3332602245390754"><ele>356.20000000000005</ele><time>2026-04-09T15:50:15.001Z</time></trkpt><trkpt lat="44.73854139032301" lon="7.333267538157548"><ele>356.0</ele><time>2026-04-09T15:50:17.001Z</time></trkpt><trkpt lat="44.73843292138658" lon="7.33327843411212"><ele>356.4</ele><time>2026-04-09T15:50:19.001Z</time></trkpt><trkpt lat="44.73832392682933" lon="7.333287458115662"><ele>356.8</ele><time>2026-04-09T15:50:21.001Z</time></trkpt><trkpt lat="44.73821623293383" lon="7.3332932901490855"><ele>357.2</ele><time>2026-04-09T15:50:23.001Z</time></trkpt><trkpt lat="44.738106126802215" lon="7.333300798155193"><ele>357.59999999999997</ele><time>2026-04-09T15:50:25.001Z</time></trkpt><trkpt lat="44.737997949738805" lon="7.333311109854599"><ele>358.0</ele><time>2026-04-09T15:50:27.001Z</time></trkpt><trkpt lat="44.73789323379112" lon="7.333322520047119"><ele>358.0</ele><time>2026-04-09T15:50:29.001Z</time></trkpt><trkpt lat="44.737788112298766" lon="7.333331009235264"><ele>358.0</ele><time>2026-04-09T15:50:31.001Z</time></trkpt><trkpt lat="44.73768342024836" lon="7.333340768275017"><ele>358.0</ele><time>2026-04-09T15:50:33.001Z</time></trkpt><trkpt lat="44.73757692267141" lon="7.333349996600671"><ele>358.0</ele><time>2026-04-09T15:50:35.001Z</time></trkpt><trkpt lat="44.73746929189404" lon="7.333358214179151"><ele>358.0</ele><time>2026-04-09T15:50:37.001Z</time></trkpt><trkpt lat="44.73736187405194" lon="7.333366352658017"><ele>358.4</ele><time>2026-04-09T15:50:39.001Z</time></trkpt><trkpt lat="44.737252279489034" lon="7.333372136045523"><ele>358.79999999999995</ele><time>2026-04-09T15:50:41.001Z</time></trkpt><trkpt lat="44.73714423202742" lon="7.333384527363588"><ele>359.2</ele><time>2026-04-09T15:50:43.001Z</time></trkpt><trkpt lat="44.73703674406423" lon="7.333393495924147"><ele>359.6</ele><time>2026-04-09T15:50:45.001Z</time></trkpt><trkpt lat="44.73692931565741" lon="7.333402420522706"><ele>360.0</ele><time>2026-04-09T15:50:47.001Z</time></trkpt><trkpt lat="44.73682174662483" lon="7.333406486251909"><ele>360.0</ele><time>2026-04-09T15:50:49.002Z</time></trkpt><trkpt lat="44.73671429950887" lon="7.333415598323363"><ele>360.0</ele><time>2026-04-09T15:50:51.002Z</time></trkpt><trkpt lat="44.73660706582422" lon="7.3334264807236025"><ele>360.0</ele><time>2026-04-09T15:50:53.002Z</time></trkpt><trkpt lat="44.73649993502434" lon="7.333437003470669"><ele>360.0</ele><time>2026-04-09T15:50:55.002Z</time></trkpt><trkpt lat="44.73639676847648" lon="7.333444866764964"><ele>360.0</ele><time>2026-04-09T15:50:57.002Z</time></trkpt><trkpt lat="44.736288156536105" lon="7.333449396009185"><ele>360.0</ele><time>2026-04-09T15:50:59.002Z</time></trkpt><trkpt lat="44.73617577443043" lon="7.333454603007116"><ele>360.0</ele><time>2026-04-09T15:51:01.002Z</time></trkpt><trkpt lat="44.736062858764114" lon="7.33345376839949"><ele>360.0</ele><time>2026-04-09T15:51:03.002Z</time></trkpt><trkpt lat="44.735952091787865" lon="7.33345300816303"><ele>360.0</ele><time>2026-04-09T15:51:05.002Z</time></trkpt><trkpt lat="44.7358427505295" lon="7.3334517239815895"><ele>360.0</ele><time>2026-04-09T15:51:07.002Z</time></trkpt><trkpt lat="44.73573266466689" lon="7.333445045752328"><ele>360.0</ele><time>2026-04-09T15:51:09.002Z</time></trkpt><trkpt lat="44.73562561996721" lon="7.333421079309241"><ele>360.0</ele><time>2026-04-09T15:51:11.002Z</time></trkpt><trkpt lat="44.73552140121462" lon="7.33339937691354"><ele>360.0</ele><time>2026-04-09T15:51:13.002Z</time></trkpt><trkpt lat="44.735414112665886" lon="7.333371605613675"><ele>360.0</ele><time>2026-04-09T15:51:15.002Z</time></trkpt><trkpt lat="44.73530828747294" lon="7.3333365868083575"><ele>360.0</ele><time>2026-04-09T15:51:17.002Z</time></trkpt><trkpt lat="44.73520049450265" lon="7.333296967223967"><ele>360.0</ele><time>2026-04-09T15:51:19.002Z</time></trkpt><trkpt lat="44.73509901677893" lon="7.333262930541632"><ele>360.0</ele><time>2026-04-09T15:51:21.002Z</time></trkpt><trkpt lat="44.73500566635709" lon="7.333223064277652"><ele>360.0</ele><time>2026-04-09T15:51:23.002Z</time></trkpt><trkpt lat="44.73491582939093" lon="7.333177221422626"><ele>360.0</ele><time>2026-04-09T15:51:25.002Z</time></trkpt><trkpt lat="44.73481726614831" lon="7.333130875135876"><ele>360.0</ele><time>2026-04-09T15:51:27.002Z</time></trkpt><trkpt lat="44.734719678110835" lon="7.333078537028702"><ele>360.6</ele><time>2026-04-09T15:51:29.002Z</time></trkpt><trkpt lat="44.73462283225388" lon="7.33302139047189"><ele>361.2</ele><time>2026-04-09T15:51:31.002Z</time></trkpt><trkpt lat="44.7345290642591" lon="7.332959959557118"><ele>361.79999999999995</ele><time>2026-04-09T15:51:33.002Z</time></trkpt><trkpt lat="44.73443912411995" lon="7.332891790458295"><ele>362.4</ele><time>2026-04-09T15:51:35.002Z</time></trkpt><trkpt lat="44.73434953413502" lon="7.332819955614556"><ele>363.0</ele><time>2026-04-09T15:51:37Z</time></trkpt><trkpt lat="44.734256725584835" lon="7.332748917146642"><ele>363.0</ele><time>2026-04-09T15:51:39Z</time></trkpt><trkpt lat="44.73416636634488" lon="7.3326707397590205"><ele>363.0</ele><time>2026-04-09T15:51:41Z</time></trkpt><trkpt lat="44.734075877200844" lon="7.332594341510411"><ele>363.0</ele><time>2026-04-09T15:51:43Z</time></trkpt><trkpt lat="44.73398490954461" lon="7.33251984250705"><ele>363.0</ele><time>2026-04-09T15:51:45Z</time></trkpt><trkpt lat="44.733895704933886" lon="7.332448283946006"><ele>363.0</ele><time>2026-04-09T15:51:47Z</time></trkpt><trkpt lat="44.733806232663234" lon="7.332375912534738"><ele>363.0</ele><time>2026-04-09T15:51:49Z</time></trkpt><trkpt lat="44.733719547511114" lon="7.3323035943073736"><ele>363.0</ele><time>2026-04-09T15:51:51Z</time></trkpt><trkpt lat="44.733639451293435" lon="7.332236296623324"><ele>363.0</ele><time>2026-04-09T15:51:53Z</time></trkpt><trkpt lat="44.73357987653372" lon="7.332192313514841"><ele>363.0</ele><time>2026-04-09T15:51:56Z</time></trkpt><trkpt lat="44.73352141969714" lon="7.33214036113403"><ele>363.0</ele><time>2026-04-09T15:51:59.001Z</time></trkpt><trkpt lat="44.733448497525174" lon="7.332085604485392"><ele>363.0</ele><time>2026-04-09T15:52:01Z</time></trkpt><trkpt lat="44.73336358564586" lon="7.332028776441183"><ele>363.4</ele><time>2026-04-09T15:52:03.001Z</time></trkpt><trkpt lat="44.73327235595558" lon="7.331978314511599"><ele>363.79999999999995</ele><time>2026-04-09T15:52:05.001Z</time></trkpt><trkpt lat="44.73317439020383" lon="7.33192578772337"><ele>364.2</ele><time>2026-04-09T15:52:07.001Z</time></trkpt><trkpt lat="44.733071018138645" lon="7.331875836070064"><ele>364.6</ele><time>2026-04-09T15:52:09.001Z</time></trkpt><trkpt lat="44.73296567108858" lon="7.331819403579731"><ele>365.0</ele><time>2026-04-09T15:52:11.001Z</time></trkpt><trkpt lat="44.73285869490104" lon="7.33175902795174"><ele>365.0</ele><time>2026-04-09T15:52:13.001Z</time></trkpt><trkpt lat="44.732750696181895" lon="7.331701631575296"><ele>365.0</ele><time>2026-04-09T15:52:15.001Z</time></trkpt><trkpt lat="44.732638416746425" lon="7.331644441771652"><ele>365.0</ele><time>2026-04-09T15:52:17.001Z</time></trkpt><trkpt lat="44.73252751713741" lon="7.331587935205458"><ele>365.0</ele><time>2026-04-09T15:52:19.001Z</time></trkpt><trkpt lat="44.732416444421084" lon="7.331529644382775"><ele>364.75</ele><time>2026-04-09T15:52:21.001Z</time></trkpt><trkpt lat="44.732306918552716" lon="7.331467020490238"><ele>364.5</ele><time>2026-04-09T15:52:23.001Z</time></trkpt><trkpt lat="44.732196275572626" lon="7.331412711443524"><ele>364.25</ele><time>2026-04-09T15:52:25.001Z</time></trkpt><trkpt lat="44.73208659135932" lon="7.331349417044527"><ele>364.0</ele><time>2026-04-09T15:52:27.001Z</time></trkpt><trkpt lat="44.7319773004707" lon="7.331290974127861"><ele>363.75</ele><time>2026-04-09T15:52:29.001Z</time></trkpt><trkpt lat="44.73186952391431" lon="7.331230487692664"><ele>363.5</ele><time>2026-04-09T15:52:31.001Z</time></trkpt><trkpt lat="44.73175888365152" lon="7.33117293965521"><ele>363.25</ele><time>2026-04-09T15:52:33.001Z</time></trkpt><trkpt lat="44.73165006050866" lon="7.331116538961439"><ele>363.0</ele><time>2026-04-09T15:52:35.001Z</time></trkpt><trkpt lat="44.73154260242455" lon="7.331060346615938"><ele>363.0</ele><time>2026-04-09T15:52:37.001Z</time></trkpt><trkpt lat="44.73143555076814" lon="7.331001843169994"><ele>363.0</ele><time>2026-04-09T15:52:39.001Z</time></trkpt><trkpt lat="44.73132961432969" lon="7.330943122291165"><ele>363.0</ele><time>2026-04-09T15:52:41.001Z</time></trkpt><trkpt lat="44.731226409776895" lon="7.330888141478763"><ele>363.0</ele><time>2026-04-09T15:52:43.001Z</time></trkpt><trkpt lat="44.731129219415806" lon="7.330838515677132"><ele>363.0</ele><time>2026-04-09T15:52:45.001Z</time></trkpt><trkpt lat="44.731036630844855" lon="7.330795011779464"><ele>362.0</ele><time>2026-04-09T15:52:47.001Z</time></trkpt><trkpt lat="44.730956523385764" lon="7.3307587453739655"><ele>361.0</ele><time>2026-04-09T15:52:49.001Z</time></trkpt><trkpt lat="44.730863914349165" lon="7.330700895632947"><ele>360.0</ele><time>2026-04-09T15:52:52.002Z</time></trkpt><trkpt lat="44.73077217641194" lon="7.330662709991211"><ele>359.0</ele><time>2026-04-09T15:52:54.002Z</time></trkpt><trkpt lat="44.730667212214655" lon="7.330630932691515"><ele>358.0</ele><time>2026-04-09T15:52:56.002Z</time></trkpt><trkpt lat="44.730558268670485" lon="7.330619938460233"><ele>358.0</ele><time>2026-04-09T15:52:58.002Z</time></trkpt><trkpt lat="44.730445137998046" lon="7.330604934791798"><ele>358.0</ele><time>2026-04-09T15:53:00.002Z</time></trkpt><trkpt lat="44.730330937297" lon="7.3305860881786735"><ele>358.0</ele><time>2026-04-09T15:53:02.002Z</time></trkpt><trkpt lat="44.730216479879395" lon="7.330569655287997"><ele>358.0</ele><time>2026-04-09T15:53:04.002Z</time></trkpt><trkpt lat="44.73010619103621" lon="7.3305556383033235"><ele>359.2</ele><time>2026-04-09T15:53:06.002Z</time></trkpt><trkpt lat="44.72999338007543" lon="7.330536931547582"><ele>360.4</ele><time>2026-04-09T15:53:08.002Z</time></trkpt><trkpt lat="44.72988374761836" lon="7.330523958272829"><ele>361.59999999999997</ele><time>2026-04-09T15:53:10.002Z</time></trkpt><trkpt lat="44.72977293549475" lon="7.330511785386361"><ele>362.79999999999995</ele><time>2026-04-09T15:53:12.002Z</time></trkpt><trkpt lat="44.72966439571425" lon="7.330489955845216"><ele>364.0</ele><time>2026-04-09T15:53:14.002Z</time></trkpt><trkpt lat="44.72955962087592" lon="7.330474002548356"><ele>364.0</ele><time>2026-04-09T15:53:16.002Z</time></trkpt><trkpt lat="44.72946027756556" lon="7.330456046136989"><ele>364.0</ele><time>2026-04-09T15:53:18.002Z</time></trkpt><trkpt lat="44.72937056768639" lon="7.330456824348193"><ele>364.0</ele><time>2026-04-09T15:53:20.002Z</time></trkpt><trkpt lat="44.72929433949595" lon="7.330501315902564"><ele>364.0</ele><time>2026-04-09T15:53:22.002Z</time></trkpt><trkpt lat="44.72924193932464" lon="7.330580103251838"><ele>364.0</ele><time>2026-04-09T15:53:25.002Z</time></trkpt><trkpt lat="44.72929265992914" lon="7.330633713231759"><ele>364.0</ele><time>2026-04-09T15:53:27.002Z</time></trkpt><trkpt lat="44.72935837750495" lon="7.330582113193776"><ele>364.0</ele><time>2026-04-09T15:53:29.002Z</time></trkpt><trkpt lat="44.72935794371778" lon="7.330467737638674"><ele>364.0</ele><time>2026-04-09T15:53:31.002Z</time></trkpt><trkpt lat="44.72945533378756" lon="7.330441953732788"><ele>364.0</ele><time>2026-04-09T15:53:34.002Z</time></trkpt><trkpt lat="44.72954409294086" lon="7.330484990515035"><ele>364.0</ele><time>2026-04-09T15:53:36.002Z</time></trkpt><trkpt lat="44.72964478951681" lon="7.330496437358382"><ele>364.0</ele><time>2026-04-09T15:53:38.002Z</time></trkpt><trkpt lat="44.72974945337908" lon="7.33051083612034"><ele>364.0</ele><time>2026-04-09T15:53:40.002Z</time></trkpt><trkpt lat="44.729853282704624" lon="7.330524102732957"><ele>364.0</ele><time>2026-04-09T15:53:42Z</time></trkpt><trkpt lat="44.72996205785424" lon="7.330535910909462"><ele>364.0</ele><time>2026-04-09T15:53:44Z</time></trkpt><trkpt lat="44.73006365975235" lon="7.3305504504285794"><ele>364.0</ele><time>2026-04-09T15:53:46Z</time></trkpt><trkpt lat="44.73016278061795" lon="7.330567754011813"><ele>364.0</ele><time>2026-04-09T15:53:48Z</time></trkpt><trkpt lat="44.730264984219815" lon="7.33058364192522"><ele>362.79999999999995</ele><time>2026-04-09T15:53:50Z</time></trkpt><trkpt lat="44.73036391959654" lon="7.330593132523005"><ele>361.59999999999997</ele><time>2026-04-09T15:53:52Z</time></trkpt><trkpt lat="44.730461644166176" lon="7.3306016073995535"><ele>360.4</ele><time>2026-04-09T15:53:54Z</time></trkpt><trkpt lat="44.73055359774141" lon="7.33060562365463"><ele>359.2</ele><time>2026-04-09T15:53:56Z</time></trkpt><trkpt lat="44.73064089639423" lon="7.3306146961600485"><ele>358.0</ele><time>2026-04-09T15:53:58Z</time></trkpt><trkpt lat="44.730718824465605" lon="7.330627048872742"><ele>358.0</ele><time>2026-04-09T15:54:00Z</time></trkpt><trkpt lat="44.730789505352945" lon="7.33066595671385"><ele>358.0</ele><time>2026-04-09T15:54:02.001Z</time></trkpt><trkpt lat="44.73085704520664" lon="7.3307162961452335"><ele>358.0</ele><time>2026-04-09T15:54:04.001Z</time></trkpt><trkpt lat="44.73094045036065" lon="7.330745869210102"><ele>358.0</ele><time>2026-04-09T15:54:06.001Z</time></trkpt><trkpt lat="44.731036686407" lon="7.330790312856868"><ele>358.0</ele><time>2026-04-09T15:54:08.001Z</time></trkpt><trkpt lat="44.731138871132345" lon="7.330835376124915"><ele>358.0</ele><time>2026-04-09T15:54:10.001Z</time></trkpt><trkpt lat="44.73124464670301" lon="7.33088331786615"><ele>359.0</ele><time>2026-04-09T15:54:12.001Z</time></trkpt><trkpt lat="44.731352291437645" lon="7.330935874003644"><ele>360.0</ele><time>2026-04-09T15:54:14.001Z</time></trkpt><trkpt lat="44.73145314562782" lon="7.330992936364839"><ele>361.0</ele><time>2026-04-09T15:54:16.001Z</time></trkpt><trkpt lat="44.73155083635567" lon="7.331059427499074"><ele>362.0</ele><time>2026-04-09T15:54:18.001Z</time></trkpt><trkpt lat="44.731652108732064" lon="7.33111133706872"><ele>363.0</ele><time>2026-04-09T15:54:20.001Z</time></trkpt><trkpt lat="44.73175462184032" lon="7.331168727370809"><ele>363.0</ele><time>2026-04-09T15:54:22.001Z</time></trkpt><trkpt lat="44.73185782734143" lon="7.33122083331106"><ele>363.0</ele><time>2026-04-09T15:54:24.001Z</time></trkpt><trkpt lat="44.73196042324366" lon="7.331276391417646"><ele>363.0</ele><time>2026-04-09T15:54:26.001Z</time></trkpt><trkpt lat="44.732060258463385" lon="7.331329576269464"><ele>363.0</ele><time>2026-04-09T15:54:28.001Z</time></trkpt><trkpt lat="44.732161045286226" lon="7.331384465772737"><ele>363.0</ele><time>2026-04-09T15:54:30.001Z</time></trkpt><trkpt lat="44.73226124163705" lon="7.331434349335892"><ele>362.59999999999997</ele><time>2026-04-09T15:54:32.001Z</time></trkpt><trkpt lat="44.732361707598045" lon="7.331487482930277"><ele>362.2</ele><time>2026-04-09T15:54:34.001Z</time></trkpt><trkpt lat="44.73246062193635" lon="7.331542555923085"><ele>361.8</ele><time>2026-04-09T15:54:36.001Z</time></trkpt><trkpt lat="44.73255974086115" lon="7.331595130740679"><ele>361.4</ele><time>2026-04-09T15:54:38.001Z</time></trkpt><trkpt lat="44.73265594619548" lon="7.33164816094817"><ele>361.0</ele><time>2026-04-09T15:54:40.001Z</time></trkpt><trkpt lat="44.73275353177215" lon="7.33169864559921"><ele>361.8</ele><time>2026-04-09T15:54:42.001Z</time></trkpt><trkpt lat="44.73284938758554" lon="7.331750831655052"><ele>362.6</ele><time>2026-04-09T15:54:44.001Z</time></trkpt><trkpt lat="44.73294471740615" lon="7.33180020679793"><ele>363.4</ele><time>2026-04-09T15:54:46.001Z</time></trkpt><trkpt lat="44.73303710546852" lon="7.331853351455384"><ele>364.2</ele><time>2026-04-09T15:54:48.002Z</time></trkpt><trkpt lat="44.73313176594654" lon="7.331903138873833"><ele>365.0</ele><time>2026-04-09T15:54:50.002Z</time></trkpt><trkpt lat="44.73322496314226" lon="7.331960560958951"><ele>365.0</ele><time>2026-04-09T15:54:52.002Z</time></trkpt><trkpt lat="44.73331712695687" lon="7.3320128467470695"><ele>365.0</ele><time>2026-04-09T15:54:54.002Z</time></trkpt><trkpt lat="44.73339977478934" lon="7.332057676576038"><ele>365.0</ele><time>2026-04-09T15:54:56.002Z</time></trkpt><trkpt lat="44.73346653648113" lon="7.3321138130434695"><ele>365.0</ele><time>2026-04-09T15:54:58.002Z</time></trkpt><trkpt lat="44.73353938177012" lon="7.332170356226444"><ele>365.0</ele><time>2026-04-09T15:55:00.002Z</time></trkpt><trkpt lat="44.73362734197309" lon="7.332232621906931"><ele>365.0</ele><time>2026-04-09T15:55:02.002Z</time></trkpt><trkpt lat="44.733719442231134" lon="7.332308993769278"><ele>364.5</ele><time>2026-04-09T15:55:04.002Z</time></trkpt><trkpt lat="44.73381616714441" lon="7.332391460693046"><ele>364.0</ele><time>2026-04-09T15:55:06.002Z</time></trkpt><trkpt lat="44.733913770906724" lon="7.332477416668289"><ele>363.5</ele><time>2026-04-09T15:55:08.002Z</time></trkpt><trkpt lat="44.73401447330957" lon="7.332558653043838"><ele>363.0</ele><time>2026-04-09T15:55:10.002Z</time></trkpt><trkpt lat="44.734117704270105" lon="7.332640323912528"><ele>363.0</ele><time>2026-04-09T15:55:12.002Z</time></trkpt><trkpt lat="44.73421751118469" lon="7.332721419617847"><ele>363.0</ele><time>2026-04-09T15:55:14.002Z</time></trkpt><trkpt lat="44.73431792756387" lon="7.332806157845301"><ele>363.0</ele><time>2026-04-09T15:55:16.002Z</time></trkpt><trkpt lat="44.73441821948841" lon="7.332886887590229"><ele>363.0</ele><time>2026-04-09T15:55:18.002Z</time></trkpt><trkpt lat="44.734523325079934" lon="7.332957745532126"><ele>363.0</ele><time>2026-04-09T15:55:20.002Z</time></trkpt><trkpt lat="44.734629048160166" lon="7.333027227129732"><ele>363.0</ele><time>2026-04-09T15:55:22.002Z</time></trkpt><trkpt lat="44.73473592901149" lon="7.333092440447554"><ele>363.0</ele><time>2026-04-09T15:55:24.002Z</time></trkpt><trkpt lat="44.73483797309799" lon="7.333144795736528"><ele>363.0</ele><time>2026-04-09T15:55:26.002Z</time></trkpt><trkpt lat="44.734940226311025" lon="7.333193737503136"><ele>362.4</ele><time>2026-04-09T15:55:28.002Z</time></trkpt><trkpt lat="44.7350437657387" lon="7.33323723183381"><ele>361.79999999999995</ele><time>2026-04-09T15:55:30.002Z</time></trkpt><trkpt lat="44.735149509714475" lon="7.333280228958754"><ele>361.2</ele><time>2026-04-09T15:55:32.001Z</time></trkpt><trkpt lat="44.73522490405838" lon="7.333309310932563"><ele>360.6</ele><time>2026-04-09T15:55:34.001Z</time></trkpt><trkpt lat="44.73532263396279" lon="7.333337879517001"><ele>360.0</ele><time>2026-04-09T15:55:36.001Z</time></trkpt><trkpt lat="44.73542664024802" lon="7.333369427262317"><ele>359.8</ele><time>2026-04-09T15:55:38.002Z</time></trkpt><trkpt lat="44.73552332485338" lon="7.333391739058746"><ele>359.6</ele><time>2026-04-09T15:55:40.002Z</time></trkpt><trkpt lat="44.735616552397325" lon="7.3334190258090315"><ele>359.4</ele><time>2026-04-09T15:55:42.002Z</time></trkpt><trkpt lat="44.73571984851424" lon="7.33343737695087"><ele>359.2</ele><time>2026-04-09T15:55:44.002Z</time></trkpt><trkpt lat="44.73582931505545" lon="7.33345060475594"><ele>359.0</ele><time>2026-04-09T15:55:46.002Z</time></trkpt><trkpt lat="44.735940370641465" lon="7.333458930816643"><ele>359.0</ele><time>2026-04-09T15:55:47.999Z</time></trkpt><trkpt lat="44.73604938816243" lon="7.333454901459396"><ele>359.0</ele><time>2026-04-09T15:55:49.999Z</time></trkpt><trkpt lat="44.736161417301844" lon="7.333452861023836"><ele>359.0</ele><time>2026-04-09T15:55:51.999Z</time></trkpt><trkpt lat="44.7362727809443" lon="7.333450377550333"><ele>359.0</ele><time>2026-04-09T15:55:53.999Z</time></trkpt><trkpt lat="44.73638485987119" lon="7.333447990014722"><ele>359.0</ele><time>2026-04-09T15:55:55.999Z</time></trkpt><trkpt lat="44.73649845809634" lon="7.33343700347175"><ele>359.25</ele><time>2026-04-09T15:55:57.999Z</time></trkpt><trkpt lat="44.736612750633924" lon="7.333425641629919"><ele>359.5</ele><time>2026-04-09T15:55:59.999Z</time></trkpt><trkpt lat="44.73672828499424" lon="7.333417863641014"><ele>359.75</ele><time>2026-04-09T15:56:01.999Z</time></trkpt><trkpt lat="44.73684158408303" lon="7.333411810009681"><ele>360.0</ele><time>2026-04-09T15:56:04Z</time></trkpt><trkpt lat="44.736954434278935" lon="7.33339896857089"><ele>360.0</ele><time>2026-04-09T15:56:06Z</time></trkpt><trkpt lat="44.73706879968289" lon="7.333388634894815"><ele>360.0</ele><time>2026-04-09T15:56:08Z</time></trkpt><trkpt lat="44.737183026322015" lon="7.333382351948004"><ele>360.0</ele><time>2026-04-09T15:56:10Z</time></trkpt><trkpt lat="44.737298261271675" lon="7.333371516464537"><ele>360.0</ele><time>2026-04-09T15:56:12Z</time></trkpt><trkpt lat="44.737415412386916" lon="7.333363100287562"><ele>360.0</ele><time>2026-04-09T15:56:14Z</time></trkpt><trkpt lat="44.73753183842657" lon="7.3333518255276315"><ele>360.0</ele><time>2026-04-09T15:56:16Z</time></trkpt><trkpt lat="44.73765024348672" lon="7.33334004445314"><ele>360.0</ele><time>2026-04-09T15:56:18Z</time></trkpt><trkpt lat="44.73776831856175" lon="7.333328267257755"><ele>360.0</ele><time>2026-04-09T15:56:20Z</time></trkpt><trkpt lat="44.737884950671216" lon="7.333318546146977"><ele>359.5</ele><time>2026-04-09T15:56:22Z</time></trkpt><trkpt lat="44.73800219836185" lon="7.333310030035827"><ele>359.0</ele><time>2026-04-09T15:56:24Z</time></trkpt><trkpt lat="44.73811741612148" lon="7.333301076469387"><ele>358.5</ele><time>2026-04-09T15:56:26Z</time></trkpt><trkpt lat="44.73823314946056" lon="7.333289523238055"><ele>358.0</ele><time>2026-04-09T15:56:28Z</time></trkpt><trkpt lat="44.73834970059807" lon="7.333279397168939"><ele>358.0</ele><time>2026-04-09T15:56:30Z</time></trkpt><trkpt lat="44.73846518543419" lon="7.3332706868527415"><ele>358.0</ele><time>2026-04-09T15:56:32Z</time></trkpt><trkpt lat="44.73858137713126" lon="7.3332626559030665"><ele>358.0</ele><time>2026-04-09T15:56:34Z</time></trkpt><trkpt lat="44.73869459932076" lon="7.333249871390197"><ele>358.0</ele><time>2026-04-09T15:56:36Z</time></trkpt><trkpt lat="44.73880829300899" lon="7.333240191433075"><ele>357.59999999999997</ele><time>2026-04-09T15:56:38Z</time></trkpt><trkpt lat="44.738919708467535" lon="7.333231479596226"><ele>357.2</ele><time>2026-04-09T15:56:40Z</time></trkpt><trkpt lat="44.73902992341123" lon="7.333224350837295"><ele>356.8</ele><time>2026-04-09T15:56:42Z</time></trkpt><trkpt lat="44.73914232728405" lon="7.333215725925725"><ele>356.4</ele><time>2026-04-09T15:56:44Z</time></trkpt><trkpt lat="44.739253382985005" lon="7.333202409732534"><ele>356.0</ele><time>2026-04-09T15:56:46Z</time></trkpt><trkpt lat="44.73936545460094" lon="7.333194397409269"><ele>356.20000000000005</ele><time>2026-04-09T15:56:48Z</time></trkpt><trkpt lat="44.73947821182833" lon="7.33318869694173"><ele>356.40000000000003</ele><time>2026-04-09T15:56:50Z</time></trkpt><trkpt lat="44.73958957400088" lon="7.333182059160989"><ele>356.6</ele><time>2026-04-09T15:56:52.001Z</time></trkpt><trkpt lat="44.739700986804856" lon="7.333174472671765"><ele>356.8</ele><time>2026-04-09T15:56:54.001Z</time></trkpt><trkpt lat="44.73981339986991" lon="7.333166908241369"><ele>357.0</ele><time>2026-04-09T15:56:56.001Z</time></trkpt><trkpt lat="44.73992490540994" lon="7.333156124423288"><ele>357.0</ele><time>2026-04-09T15:56:58.001Z</time></trkpt><trkpt lat="44.740036644171774" lon="7.333150073882102"><ele>357.0</ele><time>2026-04-09T15:57:00.001Z</time></trkpt><trkpt lat="44.74015034717309" lon="7.333140211407345"><ele>357.0</ele><time>2026-04-09T15:57:02.001Z</time></trkpt><trkpt lat="44.74026198602468" lon="7.333133012834882"><ele>357.0</ele><time>2026-04-09T15:57:04.001Z</time></trkpt><trkpt lat="44.74037404614656" lon="7.33312135098236"><ele>357.25</ele><time>2026-04-09T15:57:06.001Z</time></trkpt><trkpt lat="44.74048773882027" lon="7.33311233087564"><ele>357.5</ele><time>2026-04-09T15:57:08.001Z</time></trkpt><trkpt lat="44.74060251170475" lon="7.333103292098175"><ele>357.75</ele><time>2026-04-09T15:57:10.001Z</time></trkpt><trkpt lat="44.74071706949906" lon="7.333095479622369"><ele>358.0</ele><time>2026-04-09T15:57:12.001Z</time></trkpt><trkpt lat="44.740831008067964" lon="7.333084723364912"><ele>358.0</ele><time>2026-04-09T15:57:14.001Z</time></trkpt><trkpt lat="44.7409448060959" lon="7.333077655245342"><ele>358.0</ele><time>2026-04-09T15:57:16.001Z</time></trkpt><trkpt lat="44.74105792826464" lon="7.333072244890057"><ele>358.0</ele><time>2026-04-09T15:57:18.001Z</time></trkpt><trkpt lat="44.74116927346889" lon="7.333062157842814"><ele>358.0</ele><time>2026-04-09T15:57:20.001Z</time></trkpt><trkpt lat="44.7412804040374" lon="7.333050789126313"><ele>358.79999999999995</ele><time>2026-04-09T15:57:22.001Z</time></trkpt><trkpt lat="44.74138942787123" lon="7.3330404431791685"><ele>359.6</ele><time>2026-04-09T15:57:24.001Z</time></trkpt><trkpt lat="44.74149883953973" lon="7.333032516440359"><ele>360.4</ele><time>2026-04-09T15:57:26.001Z</time></trkpt><trkpt lat="44.741610043977815" lon="7.333021577978497"><ele>361.20000000000005</ele><time>2026-04-09T15:57:28.001Z</time></trkpt><trkpt lat="44.74171777715143" lon="7.3330141732893335"><ele>362.0</ele><time>2026-04-09T15:57:30.001Z</time></trkpt><trkpt lat="44.74182486463941" lon="7.3330095275198595"><ele>361.40000000000003</ele><time>2026-04-09T15:57:32.001Z</time></trkpt><trkpt lat="44.74193379649114" lon="7.333000650069181"><ele>360.8</ele><time>2026-04-09T15:57:34.001Z</time></trkpt><trkpt lat="44.742044384829214" lon="7.332995856401531"><ele>360.2</ele><time>2026-04-09T15:57:36.001Z</time></trkpt><trkpt lat="44.74215450117451" lon="7.332986506472346"><ele>359.6</ele><time>2026-04-09T15:57:38.001Z</time></trkpt><trkpt lat="44.74226597372551" lon="7.332974336921462"><ele>359.0</ele><time>2026-04-09T15:57:40.001Z</time></trkpt><trkpt lat="44.74237682426282" lon="7.332966657581002"><ele>359.0</ele><time>2026-04-09T15:57:42.002Z</time></trkpt><trkpt lat="44.742486787034395" lon="7.332957941555645"><ele>359.0</ele><time>2026-04-09T15:57:44.002Z</time></trkpt><trkpt lat="44.742597892717306" lon="7.332949622962611"><ele>359.0</ele><time>2026-04-09T15:57:46.002Z</time></trkpt><trkpt lat="44.742708887234706" lon="7.332939127219584"><ele>359.0</ele><time>2026-04-09T15:57:48.002Z</time></trkpt><trkpt lat="44.74281757107503" lon="7.3329303517393125"><ele>359.0</ele><time>2026-04-09T15:57:50.002Z</time></trkpt><trkpt lat="44.74292412310387" lon="7.332920954182286"><ele>359.0</ele><time>2026-04-09T15:57:52.002Z</time></trkpt><trkpt lat="44.74303129125187" lon="7.332911444453956"><ele>359.0</ele><time>2026-04-09T15:57:54Z</time></trkpt><trkpt lat="44.74314140380845" lon="7.332904407534571"><ele>359.0</ele><time>2026-04-09T15:57:56Z</time></trkpt><trkpt lat="44.743252429781585" lon="7.332894315757057"><ele>359.0</ele><time>2026-04-09T15:57:58Z</time></trkpt><trkpt lat="44.74336311528563" lon="7.332888773338694"><ele>359.0</ele><time>2026-04-09T15:58:00Z</time></trkpt><trkpt lat="44.743472577664214" lon="7.332879866701826"><ele>359.2</ele><time>2026-04-09T15:58:02Z</time></trkpt><trkpt lat="44.743581943518734" lon="7.332869934369333"><ele>359.4</ele><time>2026-04-09T15:58:04Z</time></trkpt><trkpt lat="44.743690882159584" lon="7.3328628703019145"><ele>359.6</ele><time>2026-04-09T15:58:06Z</time></trkpt><trkpt lat="44.74379883123154" lon="7.33285368093311"><ele>359.8</ele><time>2026-04-09T15:58:08Z</time></trkpt><trkpt lat="44.7439060897925" lon="7.332841657248556"><ele>360.0</ele><time>2026-04-09T15:58:10Z</time></trkpt><trkpt lat="44.74401391989638" lon="7.332831043594232"><ele>360.0</ele><time>2026-04-09T15:58:12Z</time></trkpt><trkpt lat="44.74412064964738" lon="7.332815276063785"><ele>360.0</ele><time>2026-04-09T15:58:14Z</time></trkpt><trkpt lat="44.74422877121858" lon="7.332800852009362"><ele>360.0</ele><time>2026-04-09T15:58:16Z</time></trkpt><trkpt lat="44.744338541028206" lon="7.3327860736693"><ele>360.0</ele><time>2026-04-09T15:58:18Z</time></trkpt><trkpt lat="44.74445062927556" lon="7.33276925667539"><ele>360.0</ele><time>2026-04-09T15:58:20Z</time></trkpt><trkpt lat="44.74456338167726" lon="7.332752647206794"><ele>359.75</ele><time>2026-04-09T15:58:22Z</time></trkpt><trkpt lat="44.744675660278304" lon="7.3327296430813105"><ele>359.5</ele><time>2026-04-09T15:58:24Z</time></trkpt><trkpt lat="44.74478867604291" lon="7.332701518266573"><ele>359.25</ele><time>2026-04-09T15:58:26Z</time></trkpt><trkpt lat="44.74490201402086" lon="7.332675040959036"><ele>359.0</ele><time>2026-04-09T15:58:28Z</time></trkpt><trkpt lat="44.74501556067535" lon="7.332643176843162"><ele>359.0</ele><time>2026-04-09T15:58:30Z</time></trkpt><trkpt lat="44.74513015912844" lon="7.332610534870973"><ele>359.0</ele><time>2026-04-09T15:58:32Z</time></trkpt><trkpt lat="44.745244863604896" lon="7.332574562797343"><ele>359.0</ele><time>2026-04-09T15:58:34Z</time></trkpt><trkpt lat="44.74535742049657" lon="7.332539812695644"><ele>359.0</ele><time>2026-04-09T15:58:36Z</time></trkpt><trkpt lat="44.74546869749424" lon="7.332502373010198"><ele>358.25</ele><time>2026-04-09T15:58:38Z</time></trkpt><trkpt lat="44.74557956109418" lon="7.3324671208564"><ele>357.5</ele><time>2026-04-09T15:58:40Z</time></trkpt><trkpt lat="44.7456912610493" lon="7.332426726867748"><ele>356.75</ele><time>2026-04-09T15:58:42Z</time></trkpt><trkpt lat="44.74580148274964" lon="7.332385383901465"><ele>356.0</ele><time>2026-04-09T15:58:44Z</time></trkpt><trkpt lat="44.74590965033924" lon="7.3323386165843685"><ele>356.0</ele><time>2026-04-09T15:58:46Z</time></trkpt><trkpt lat="44.74601568584631" lon="7.3322908954013775"><ele>356.0</ele><time>2026-04-09T15:58:48Z</time></trkpt><trkpt lat="44.74612091405871" lon="7.332244852051918"><ele>356.0</ele><time>2026-04-09T15:58:50Z</time></trkpt><trkpt lat="44.7462254544775" lon="7.3321956899734575"><ele>356.0</ele><time>2026-04-09T15:58:52Z</time></trkpt><trkpt lat="44.74632957761465" lon="7.332145527386899"><ele>356.0</ele><time>2026-04-09T15:58:54Z</time></trkpt><trkpt lat="44.74643154858422" lon="7.33208878510275"><ele>356.25</ele><time>2026-04-09T15:58:56.001Z</time></trkpt><trkpt lat="44.74653633039218" lon="7.332028969041424"><ele>356.5</ele><time>2026-04-09T15:58:58.001Z</time></trkpt><trkpt lat="44.74664119982816" lon="7.331968710849424"><ele>356.75</ele><time>2026-04-09T15:59:00.001Z</time></trkpt><trkpt lat="44.746744156063095" lon="7.331903297583427"><ele>357.0</ele><time>2026-04-09T15:59:02.001Z</time></trkpt><trkpt lat="44.74685019002917" lon="7.331847590759936"><ele>357.0</ele><time>2026-04-09T15:59:04.001Z</time></trkpt><trkpt lat="44.74695309240316" lon="7.331787327264976"><ele>357.0</ele><time>2026-04-09T15:59:06.001Z</time></trkpt><trkpt lat="44.74705756053676" lon="7.331721791068052"><ele>357.0</ele><time>2026-04-09T15:59:08.001Z</time></trkpt><trkpt lat="44.747159648957705" lon="7.331652905079016"><ele>357.0</ele><time>2026-04-09T15:59:10.001Z</time></trkpt><trkpt lat="44.7472619304754" lon="7.331581556863798"><ele>357.0</ele><time>2026-04-09T15:59:12.001Z</time></trkpt><trkpt lat="44.747364357994655" lon="7.331510278215022"><ele>357.0</ele><time>2026-04-09T15:59:14.001Z</time></trkpt><trkpt lat="44.74746720677419" lon="7.3314328319287565"><ele>357.0</ele><time>2026-04-09T15:59:16.001Z</time></trkpt><trkpt lat="44.74757171797702" lon="7.331357086547527"><ele>357.0</ele><time>2026-04-09T15:59:18.001Z</time></trkpt><trkpt lat="44.74767838906868" lon="7.331277983213205"><ele>356.25</ele><time>2026-04-09T15:59:20.001Z</time></trkpt><trkpt lat="44.74778627048537" lon="7.331192392216397"><ele>355.5</ele><time>2026-04-09T15:59:22.001Z</time></trkpt><trkpt lat="44.747892988839034" lon="7.3311007140885325"><ele>354.75</ele><time>2026-04-09T15:59:24.001Z</time></trkpt><trkpt lat="44.74800089065009" lon="7.331010874864107"><ele>354.0</ele><time>2026-04-09T15:59:26.001Z</time></trkpt><trkpt lat="44.748108501329284" lon="7.330917722056069"><ele>354.0</ele><time>2026-04-09T15:59:28.001Z</time></trkpt><trkpt lat="44.74821284836191" lon="7.3308223972334"><ele>354.0</ele><time>2026-04-09T15:59:30.001Z</time></trkpt><trkpt lat="44.748318074101434" lon="7.330728439175224"><ele>354.0</ele><time>2026-04-09T15:59:32.001Z</time></trkpt><trkpt lat="44.74842172389247" lon="7.330629510148677"><ele>354.0</ele><time>2026-04-09T15:59:34.001Z</time></trkpt><trkpt lat="44.748523749288765" lon="7.330525920293928"><ele>354.4</ele><time>2026-04-09T15:59:36.001Z</time></trkpt><trkpt lat="44.74862345225716" lon="7.330420208157884"><ele>354.79999999999995</ele><time>2026-04-09T15:59:38.001Z</time></trkpt><trkpt lat="44.74867498491795" lon="7.330367488390292"><ele>355.20000000000005</ele><time>2026-04-09T15:59:39.001Z</time></trkpt><trkpt lat="44.74877597326539" lon="7.330263637683482"><ele>355.6</ele><time>2026-04-09T15:59:41.001Z</time></trkpt><trkpt lat="44.74887257256773" lon="7.330159253082228"><ele>356.0</ele><time>2026-04-09T15:59:43.001Z</time></trkpt><trkpt lat="44.748967610909524" lon="7.330051044257959"><ele>356.0</ele><time>2026-04-09T15:59:45.002Z</time></trkpt><trkpt lat="44.74906503259861" lon="7.329936862258788"><ele>356.0</ele><time>2026-04-09T15:59:47.002Z</time></trkpt><trkpt lat="44.749160489070405" lon="7.329825702920229"><ele>356.0</ele><time>2026-04-09T15:59:49.002Z</time></trkpt><trkpt lat="44.749250655880275" lon="7.329711308284093"><ele>356.0</ele><time>2026-04-09T15:59:51.002Z</time></trkpt><trkpt lat="44.749341142127356" lon="7.32959957299874"><ele>355.75</ele><time>2026-04-09T15:59:53.002Z</time></trkpt><trkpt lat="44.74943033417722" lon="7.3294855756963635"><ele>355.5</ele><time>2026-04-09T15:59:55.002Z</time></trkpt><trkpt lat="44.749516995578276" lon="7.329371213583024"><ele>355.25</ele><time>2026-04-09T15:59:57.002Z</time></trkpt><trkpt lat="44.74960110414813" lon="7.32925487356437"><ele>355.0</ele><time>2026-04-09T15:59:59.002Z</time></trkpt><trkpt lat="44.74968440965946" lon="7.329141399510037"><ele>355.0</ele><time>2026-04-09T16:00:01Z</time></trkpt><trkpt lat="44.74977149204333" lon="7.329029671705268"><ele>355.0</ele><time>2026-04-09T16:00:03Z</time></trkpt><trkpt lat="44.7498508540153" lon="7.328908304885523"><ele>355.0</ele><time>2026-04-09T16:00:05Z</time></trkpt><trkpt lat="44.749930410985655" lon="7.328789210281836"><ele>355.0</ele><time>2026-04-09T16:00:07Z</time></trkpt><trkpt lat="44.7500087075423" lon="7.3286666716821225"><ele>355.25</ele><time>2026-04-09T16:00:09Z</time></trkpt><trkpt lat="44.75009179749732" lon="7.328546858578849"><ele>355.5</ele><time>2026-04-09T16:00:11Z</time></trkpt><trkpt lat="44.7501702083386" lon="7.328423447405743"><ele>355.75</ele><time>2026-04-09T16:00:13Z</time></trkpt><trkpt lat="44.750250672109935" lon="7.328299663311151"><ele>356.0</ele><time>2026-04-09T16:00:15Z</time></trkpt><trkpt lat="44.75033271220556" lon="7.328181235224553"><ele>356.0</ele><time>2026-04-09T16:00:17Z</time></trkpt><trkpt lat="44.750411186210485" lon="7.328062552603692"><ele>356.0</ele><time>2026-04-09T16:00:19Z</time></trkpt><trkpt lat="44.75048583295683" lon="7.327942176598931"><ele>356.0</ele><time>2026-04-09T16:00:21Z</time></trkpt><trkpt lat="44.75056312615313" lon="7.327822938798341"><ele>356.0</ele><time>2026-04-09T16:00:23Z</time></trkpt><trkpt lat="44.75064152830434" lon="7.327702383446474"><ele>356.5</ele><time>2026-04-09T16:00:25Z</time></trkpt><trkpt lat="44.75071997622768" lon="7.327580207924582"><ele>357.0</ele><time>2026-04-09T16:00:27Z</time></trkpt><trkpt lat="44.75079731436139" lon="7.32746035659182"><ele>357.5</ele><time>2026-04-09T16:00:29Z</time></trkpt><trkpt lat="44.75087728248554" lon="7.327341871628126"><ele>358.0</ele><time>2026-04-09T16:00:31Z</time></trkpt><trkpt lat="44.75095861423912" lon="7.32722091893736"><ele>358.0</ele><time>2026-04-09T16:00:33Z</time></trkpt><trkpt lat="44.751047811132594" lon="7.327111383478621"><ele>358.0</ele><time>2026-04-09T16:00:35Z</time></trkpt><trkpt lat="44.751140758291534" lon="7.327006201921999"><ele>358.0</ele><time>2026-04-09T16:00:37Z</time></trkpt><trkpt lat="44.751235925959264" lon="7.32690417395237"><ele>358.0</ele><time>2026-04-09T16:00:39Z</time></trkpt><trkpt lat="44.75133385480593" lon="7.326805556538039"><ele>358.0</ele><time>2026-04-09T16:00:41Z</time></trkpt><trkpt lat="44.7514342593073" lon="7.326716615480615"><ele>358.0</ele><time>2026-04-09T16:00:43Z</time></trkpt><trkpt lat="44.75153408748881" lon="7.326632104468158"><ele>358.0</ele><time>2026-04-09T16:00:45Z</time></trkpt><trkpt lat="44.751631138054854" lon="7.326545633302473"><ele>358.0</ele><time>2026-04-09T16:00:47Z</time></trkpt><trkpt lat="44.7517354106191" lon="7.3264675661696295"><ele>358.0</ele><time>2026-04-09T16:00:49Z</time></trkpt><trkpt lat="44.75184283389356" lon="7.326400141439436"><ele>358.0</ele><time>2026-04-09T16:00:51Z</time></trkpt><trkpt lat="44.751951764489064" lon="7.326329542732196"><ele>358.0</ele><time>2026-04-09T16:00:53Z</time></trkpt><trkpt lat="44.75206457595728" lon="7.326262622188984"><ele>358.0</ele><time>2026-04-09T16:00:55Z</time></trkpt><trkpt lat="44.75218100793101" lon="7.3262009716422725"><ele>358.75</ele><time>2026-04-09T16:00:57Z</time></trkpt><trkpt lat="44.752297066354984" lon="7.326138468107342"><ele>359.5</ele><time>2026-04-09T16:00:59Z</time></trkpt><trkpt lat="44.75241187003581" lon="7.32607573032937"><ele>360.25</ele><time>2026-04-09T16:01:01.001Z</time></trkpt><trkpt lat="44.752526911090186" lon="7.326015235462171"><ele>361.0</ele><time>2026-04-09T16:01:03.001Z</time></trkpt><trkpt lat="44.75264132831646" lon="7.325954436769111"><ele>360.5</ele><time>2026-04-09T16:01:05.001Z</time></trkpt><trkpt lat="44.75275797072274" lon="7.325897689473253"><ele>360.0</ele><time>2026-04-09T16:01:07.001Z</time></trkpt><trkpt lat="44.75287492111362" lon="7.325837261133933"><ele>359.5</ele><time>2026-04-09T16:01:09.001Z</time></trkpt><trkpt lat="44.75299071619067" lon="7.325773147066582"><ele>359.0</ele><time>2026-04-09T16:01:11.001Z</time></trkpt><trkpt lat="44.753103375322034" lon="7.325720770928176"><ele>359.0</ele><time>2026-04-09T16:01:13.001Z</time></trkpt><trkpt lat="44.75321151438166" lon="7.325664433177381"><ele>359.0</ele><time>2026-04-09T16:01:15.001Z</time></trkpt><trkpt lat="44.75331999631004" lon="7.325601091587818"><ele>359.0</ele><time>2026-04-09T16:01:17.001Z</time></trkpt><trkpt lat="44.75342964780392" lon="7.325535869136402"><ele>359.0</ele><time>2026-04-09T16:01:19.001Z</time></trkpt><trkpt lat="44.753539435890175" lon="7.325460910920899"><ele>359.0</ele><time>2026-04-09T16:01:21.001Z</time></trkpt><trkpt lat="44.75364112166971" lon="7.325368089433124"><ele>359.0</ele><time>2026-04-09T16:01:23.001Z</time></trkpt><trkpt lat="44.75374571451316" lon="7.325283824782803"><ele>359.0</ele><time>2026-04-09T16:01:25.001Z</time></trkpt><trkpt lat="44.75385037442621" lon="7.325199107751284"><ele>359.0</ele><time>2026-04-09T16:01:27.001Z</time></trkpt><trkpt lat="44.753952267605676" lon="7.325109963191186"><ele>359.0</ele><time>2026-04-09T16:01:29.001Z</time></trkpt><trkpt lat="44.75405232337397" lon="7.325017211186183"><ele>359.0</ele><time>2026-04-09T16:01:31.001Z</time></trkpt><trkpt lat="44.754152586479364" lon="7.324931718966157"><ele>359.0</ele><time>2026-04-09T16:01:33.001Z</time></trkpt><trkpt lat="44.754248469630454" lon="7.324835870088761"><ele>359.0</ele><time>2026-04-09T16:01:35.001Z</time></trkpt><trkpt lat="44.75434219836432" lon="7.324738492231162"><ele>359.0</ele><time>2026-04-09T16:01:37.001Z</time></trkpt><trkpt lat="44.75443078554223" lon="7.324635407426275"><ele>359.0</ele><time>2026-04-09T16:01:39.001Z</time></trkpt><trkpt lat="44.75451774155134" lon="7.324531160532988"><ele>359.0</ele><time>2026-04-09T16:01:41.001Z</time></trkpt><trkpt lat="44.75460088832016" lon="7.324424177256475"><ele>359.0</ele><time>2026-04-09T16:01:43.001Z</time></trkpt><trkpt lat="44.75468183739249" lon="7.324315487437511"><ele>359.0</ele><time>2026-04-09T16:01:45.001Z</time></trkpt><trkpt lat="44.7547625980859" lon="7.324206527411607"><ele>359.0</ele><time>2026-04-09T16:01:47.001Z</time></trkpt><trkpt lat="44.75483795894133" lon="7.32409258635907"><ele>359.0</ele><time>2026-04-09T16:01:49.001Z</time></trkpt><trkpt lat="44.75490875319792" lon="7.323970013310316"><ele>359.0</ele><time>2026-04-09T16:01:51.002Z</time></trkpt><trkpt lat="44.75498197955419" lon="7.323845910763392"><ele>359.0</ele><time>2026-04-09T16:01:53.002Z</time></trkpt><trkpt lat="44.75505585956308" lon="7.323722979258858"><ele>359.5</ele><time>2026-04-09T16:01:55.002Z</time></trkpt><trkpt lat="44.75512907074133" lon="7.323599787547125"><ele>360.0</ele><time>2026-04-09T16:01:57.002Z</time></trkpt><trkpt lat="44.75520513877108" lon="7.323476581435683"><ele>360.5</ele><time>2026-04-09T16:01:59.002Z</time></trkpt><trkpt lat="44.75528067005895" lon="7.3233529474807355"><ele>361.0</ele><time>2026-04-09T16:02:01.002Z</time></trkpt><trkpt lat="44.75535387535114" lon="7.323224679536469"><ele>361.0</ele><time>2026-04-09T16:02:03.002Z</time></trkpt><trkpt lat="44.755428134506836" lon="7.323098681262153"><ele>361.0</ele><time>2026-04-09T16:02:05.002Z</time></trkpt><trkpt lat="44.755504471022284" lon="7.322972900194247"><ele>361.0</ele><time>2026-04-09T16:02:07Z</time></trkpt><trkpt lat="44.75557987526007" lon="7.3228480193478624"><ele>361.0</ele><time>2026-04-09T16:02:09Z</time></trkpt><trkpt lat="44.75565772407885" lon="7.3227260206565505"><ele>361.0</ele><time>2026-04-09T16:02:11Z</time></trkpt><trkpt lat="44.75573475316021" lon="7.3226054965113985"><ele>361.0</ele><time>2026-04-09T16:02:13Z</time></trkpt><trkpt lat="44.755809299609076" lon="7.322489492021487"><ele>361.0</ele><time>2026-04-09T16:02:15Z</time></trkpt><trkpt lat="44.75589687228684" lon="7.32238696038711"><ele>361.0</ele><time>2026-04-09T16:02:17Z</time></trkpt><trkpt lat="44.75598398245097" lon="7.322276720845476"><ele>361.0</ele><time>2026-04-09T16:02:19Z</time></trkpt><trkpt lat="44.75607818319698" lon="7.322167809438989"><ele>361.0</ele><time>2026-04-09T16:02:21Z</time></trkpt><trkpt lat="44.75616976794752" lon="7.322057444070288"><ele>361.0</ele><time>2026-04-09T16:02:23Z</time></trkpt><trkpt lat="44.75626833993409" lon="7.321948952431196"><ele>361.0</ele><time>2026-04-09T16:02:25Z</time></trkpt><trkpt lat="44.75636877721791" lon="7.321843411019688"><ele>361.0</ele><time>2026-04-09T16:02:27Z</time></trkpt><trkpt lat="44.75646923695542" lon="7.321742737872565"><ele>361.0</ele><time>2026-04-09T16:02:29Z</time></trkpt><trkpt lat="44.756570491654294" lon="7.321647000816782"><ele>361.0</ele><time>2026-04-09T16:02:31Z</time></trkpt><trkpt lat="44.75667607640843" lon="7.321556702864237"><ele>361.0</ele><time>2026-04-09T16:02:33Z</time></trkpt><trkpt lat="44.7567839603505" lon="7.321473164213991"><ele>360.4</ele><time>2026-04-09T16:02:35Z</time></trkpt><trkpt lat="44.75689563981154" lon="7.321391727067271"><ele>359.8</ele><time>2026-04-09T16:02:37Z</time></trkpt><trkpt lat="44.75695425707931" lon="7.3213563882737365"><ele>359.2</ele><time>2026-04-09T16:02:38Z</time></trkpt><trkpt lat="44.75706974332" lon="7.321284389903135"><ele>358.59999999999997</ele><time>2026-04-09T16:02:40Z</time></trkpt><trkpt lat="44.75712763430249" lon="7.3212490775895205"><ele>358.0</ele><time>2026-04-09T16:02:41Z</time></trkpt><trkpt lat="44.757242666068166" lon="7.321182240949021"><ele>358.0</ele><time>2026-04-09T16:02:43Z</time></trkpt><trkpt lat="44.7573574519912" lon="7.3211147562435555"><ele>358.0</ele><time>2026-04-09T16:02:45Z</time></trkpt><trkpt lat="44.757472514090324" lon="7.321046381244212"><ele>358.0</ele><time>2026-04-09T16:02:47Z</time></trkpt><trkpt lat="44.757586224694634" lon="7.3209791047082104"><ele>358.0</ele><time>2026-04-09T16:02:49Z</time></trkpt><trkpt lat="44.75770037858442" lon="7.320916898732711"><ele>358.75</ele><time>2026-04-09T16:02:51Z</time></trkpt><trkpt lat="44.75781345124669" lon="7.320851250933808"><ele>359.5</ele><time>2026-04-09T16:02:53Z</time></trkpt><trkpt lat="44.75792432884681" lon="7.320785565725542"><ele>360.25</ele><time>2026-04-09T16:02:55Z</time></trkpt><trkpt lat="44.7580348514032" lon="7.32072119246764"><ele>361.0</ele><time>2026-04-09T16:02:57Z</time></trkpt><trkpt lat="44.758142719420405" lon="7.320653330981538"><ele>361.0</ele><time>2026-04-09T16:02:59Z</time></trkpt><trkpt lat="44.75824919474626" lon="7.320588431591313"><ele>361.0</ele><time>2026-04-09T16:03:01Z</time></trkpt><trkpt lat="44.75835771462053" lon="7.320521635735707"><ele>361.0</ele><time>2026-04-09T16:03:03Z</time></trkpt><trkpt lat="44.758459165042886" lon="7.320451643100587"><ele>361.0</ele><time>2026-04-09T16:03:05.001Z</time></trkpt><trkpt lat="44.758558579181745" lon="7.32038566961422"><ele>360.6</ele><time>2026-04-09T16:03:07.001Z</time></trkpt><trkpt lat="44.758656440438635" lon="7.320310887351853"><ele>360.20000000000005</ele><time>2026-04-09T16:03:09.001Z</time></trkpt><trkpt lat="44.75874848972525" lon="7.320224595444458"><ele>359.79999999999995</ele><time>2026-04-09T16:03:11.001Z</time></trkpt><trkpt lat="44.75881797854966" lon="7.320160464032253"><ele>359.4</ele><time>2026-04-09T16:03:13.001Z</time></trkpt><trkpt lat="44.75889950876927" lon="7.320094535246496"><ele>359.0</ele><time>2026-04-09T16:03:15.001Z</time></trkpt><trkpt lat="44.75898856898774" lon="7.3199986740716785"><ele>359.0</ele><time>2026-04-09T16:03:17.001Z</time></trkpt><trkpt lat="44.759080995850525" lon="7.319897697731204"><ele>359.0</ele><time>2026-04-09T16:03:19.001Z</time></trkpt><trkpt lat="44.75917752257167" lon="7.3197996494068125"><ele>359.0</ele><time>2026-04-09T16:03:21.001Z</time></trkpt><trkpt lat="44.75927192979075" lon="7.319703437834933"><ele>359.0</ele><time>2026-04-09T16:03:23.001Z</time></trkpt><trkpt lat="44.75936500401692" lon="7.31960439213599"><ele>359.5</ele><time>2026-04-09T16:03:25.001Z</time></trkpt><trkpt lat="44.75945573858849" lon="7.319497456274608"><ele>360.0</ele><time>2026-04-09T16:03:27.001Z</time></trkpt><trkpt lat="44.75954490263321" lon="7.319391394164982"><ele>360.5</ele><time>2026-04-09T16:03:29.001Z</time></trkpt><trkpt lat="44.75963325060587" lon="7.319290685695106"><ele>361.0</ele><time>2026-04-09T16:03:31.001Z</time></trkpt><trkpt lat="44.759720349401526" lon="7.319186477698709"><ele>361.0</ele><time>2026-04-09T16:03:33.001Z</time></trkpt><trkpt lat="44.75980678639805" lon="7.319080632512757"><ele>361.0</ele><time>2026-04-09T16:03:35.001Z</time></trkpt><trkpt lat="44.75989597137361" lon="7.3189785566625165"><ele>361.0</ele><time>2026-04-09T16:03:37.001Z</time></trkpt><trkpt lat="44.7599846637895" lon="7.318878900567734"><ele>361.0</ele><time>2026-04-09T16:03:39.001Z</time></trkpt><trkpt lat="44.76007047111686" lon="7.318776671424796"><ele>361.0</ele><time>2026-04-09T16:03:41.001Z</time></trkpt><trkpt lat="44.76015462207089" lon="7.318672854006687"><ele>361.0</ele><time>2026-04-09T16:03:43.001Z</time></trkpt><trkpt lat="44.760239084825365" lon="7.318573615554609"><ele>361.0</ele><time>2026-04-09T16:03:45.001Z</time></trkpt><trkpt lat="44.76031945161555" lon="7.318468631833088"><ele>361.0</ele><time>2026-04-09T16:03:47.001Z</time></trkpt><trkpt lat="44.76039701509586" lon="7.318358619830092"><ele>361.0</ele><time>2026-04-09T16:03:49.001Z</time></trkpt><trkpt lat="44.76047664576641" lon="7.318255945768323"><ele>361.0</ele><time>2026-04-09T16:03:51.001Z</time></trkpt><trkpt lat="44.76055864367326" lon="7.318154134258716"><ele>361.0</ele><time>2026-04-09T16:03:53.001Z</time></trkpt><trkpt lat="44.76064081916142" lon="7.31805360253865"><ele>361.0</ele><time>2026-04-09T16:03:55.002Z</time></trkpt><trkpt lat="44.76072439753034" lon="7.317957145622146"><ele>361.0</ele><time>2026-04-09T16:03:57.002Z</time></trkpt><trkpt lat="44.760803672208745" lon="7.317858576774452"><ele>361.0</ele><time>2026-04-09T16:03:59.002Z</time></trkpt><trkpt lat="44.760884959681384" lon="7.317758294438079"><ele>361.0</ele><time>2026-04-09T16:04:01.002Z</time></trkpt><trkpt lat="44.76096567889582" lon="7.317660327346194"><ele>361.0</ele><time>2026-04-09T16:04:03.002Z</time></trkpt><trkpt lat="44.76104559766539" lon="7.317556915356731"><ele>361.0</ele><time>2026-04-09T16:04:05.002Z</time></trkpt><trkpt lat="44.761125529382795" lon="7.3174553471099015"><ele>361.0</ele><time>2026-04-09T16:04:07.002Z</time></trkpt><trkpt lat="44.76120499466524" lon="7.3173528337902205"><ele>361.0</ele><time>2026-04-09T16:04:09.002Z</time></trkpt><trkpt lat="44.7612867185618" lon="7.317252334077832"><ele>361.4</ele><time>2026-04-09T16:04:11.002Z</time></trkpt><trkpt lat="44.761370580769416" lon="7.31715131835441"><ele>361.8</ele><time>2026-04-09T16:04:13Z</time></trkpt><trkpt lat="44.761453617844616" lon="7.317051198042053"><ele>362.2</ele><time>2026-04-09T16:04:15Z</time></trkpt><trkpt lat="44.76153437422318" lon="7.316951229095172"><ele>362.59999999999997</ele><time>2026-04-09T16:04:17Z</time></trkpt><trkpt lat="44.761618494310405" lon="7.316852043611891"><ele>363.0</ele><time>2026-04-09T16:04:19Z</time></trkpt><trkpt lat="44.761700578852185" lon="7.316751286877994"><ele>363.0</ele><time>2026-04-09T16:04:21Z</time></trkpt><trkpt lat="44.761784512717576" lon="7.316648803330473"><ele>363.0</ele><time>2026-04-09T16:04:23Z</time></trkpt><trkpt lat="44.76186827214608" lon="7.316548045548228"><ele>363.0</ele><time>2026-04-09T16:04:25Z</time></trkpt><trkpt lat="44.76195027467224" lon="7.3164444638429815"><ele>363.0</ele><time>2026-04-09T16:04:27Z</time></trkpt><trkpt lat="44.76203312444976" lon="7.316345753331917"><ele>363.0</ele><time>2026-04-09T16:04:29Z</time></trkpt><trkpt lat="44.762115306339965" lon="7.316247502733238"><ele>362.8333333333333</ele><time>2026-04-09T16:04:31Z</time></trkpt><trkpt lat="44.76219266847252" lon="7.316151340364061"><ele>362.6666666666667</ele><time>2026-04-09T16:04:33Z</time></trkpt><trkpt lat="44.76226273705767" lon="7.316065012962145"><ele>362.5</ele><time>2026-04-09T16:04:35Z</time></trkpt><trkpt lat="44.7623151765699" lon="7.316004708978173"><ele>362.33333333333337</ele><time>2026-04-09T16:04:38Z</time></trkpt><trkpt lat="44.76237474719045" lon="7.315903370289305"><ele>362.1666666666667</ele><time>2026-04-09T16:04:46Z</time></trkpt><trkpt lat="44.76244866921801" lon="7.315839453359406"><ele>362.0</ele><time>2026-04-09T16:04:48Z</time></trkpt><trkpt lat="44.76253314207169" lon="7.315740578893462"><ele>362.0</ele><time>2026-04-09T16:04:50Z</time></trkpt><trkpt lat="44.7626133579654" lon="7.31562833526223"><ele>362.0</ele><time>2026-04-09T16:04:52Z</time></trkpt><trkpt lat="44.76269985181307" lon="7.315529447646875"><ele>362.0</ele><time>2026-04-09T16:04:54Z</time></trkpt><trkpt lat="44.76279323598652" lon="7.315429129956121"><ele>362.0</ele><time>2026-04-09T16:04:56Z</time></trkpt><trkpt lat="44.762880764293904" lon="7.315320494586042"><ele>361.75</ele><time>2026-04-09T16:04:58Z</time></trkpt><trkpt lat="44.76297303044192" lon="7.315209222020564"><ele>361.5</ele><time>2026-04-09T16:05:00Z</time></trkpt><trkpt lat="44.76306802311161" lon="7.3150962299456985"><ele>361.25</ele><time>2026-04-09T16:05:02Z</time></trkpt><trkpt lat="44.76316220441658" lon="7.31498227739954"><ele>361.0</ele><time>2026-04-09T16:05:04Z</time></trkpt><trkpt lat="44.763254133802796" lon="7.3148709682842386"><ele>361.0</ele><time>2026-04-09T16:05:06Z</time></trkpt><trkpt lat="44.763345925879314" lon="7.314757416508332"><ele>361.0</ele><time>2026-04-09T16:05:08Z</time></trkpt><trkpt lat="44.76343575736564" lon="7.3146434173135555"><ele>361.0</ele><time>2026-04-09T16:05:10.001Z</time></trkpt><trkpt lat="44.76352732717387" lon="7.314532524879763"><ele>361.0</ele><time>2026-04-09T16:05:12.001Z</time></trkpt><trkpt lat="44.76361841019177" lon="7.314420380872209"><ele>360.5</ele><time>2026-04-09T16:05:14.001Z</time></trkpt><trkpt lat="44.76370981597092" lon="7.314307589577866"><ele>360.0</ele><time>2026-04-09T16:05:16.001Z</time></trkpt><trkpt lat="44.76380200131798" lon="7.314191364557322"><ele>359.5</ele><time>2026-04-09T16:05:18.001Z</time></trkpt><trkpt lat="44.763889140654655" lon="7.314076398151334"><ele>359.0</ele><time>2026-04-09T16:05:20.001Z</time></trkpt><trkpt lat="44.7639784349579" lon="7.313961338307835"><ele>359.2</ele><time>2026-04-09T16:05:22.001Z</time></trkpt><trkpt lat="44.76407257098864" lon="7.313847227978836"><ele>359.4</ele><time>2026-04-09T16:05:24.001Z</time></trkpt><trkpt lat="44.76416621809826" lon="7.313729461793436"><ele>359.6</ele><time>2026-04-09T16:05:26.001Z</time></trkpt><trkpt lat="44.764213948315756" lon="7.31367069205765"><ele>359.8</ele><time>2026-04-09T16:05:27.001Z</time></trkpt><trkpt lat="44.764307528601094" lon="7.313556134222152"><ele>360.0</ele><time>2026-04-09T16:05:29.001Z</time></trkpt><trkpt lat="44.76435705870006" lon="7.313501029312291"><ele>359.6</ele><time>2026-04-09T16:05:30.001Z</time></trkpt><trkpt lat="44.76440731747287" lon="7.313446633802081"><ele>359.2</ele><time>2026-04-09T16:05:31.001Z</time></trkpt><trkpt lat="44.764504918946315" lon="7.313335307252628"><ele>358.79999999999995</ele><time>2026-04-09T16:05:33.001Z</time></trkpt><trkpt lat="44.764601727192606" lon="7.313222201919195"><ele>358.4</ele><time>2026-04-09T16:05:35.001Z</time></trkpt><trkpt lat="44.76469502952782" lon="7.313105607683953"><ele>358.0</ele><time>2026-04-09T16:05:37.001Z</time></trkpt><trkpt lat="44.764789174076206" lon="7.312993704873269"><ele>358.0</ele><time>2026-04-09T16:05:39.001Z</time></trkpt><trkpt lat="44.76487861669619" lon="7.3128800212143865"><ele>358.0</ele><time>2026-04-09T16:05:41.001Z</time></trkpt><trkpt lat="44.764970536190475" lon="7.312770032512853"><ele>358.0</ele><time>2026-04-09T16:05:43.001Z</time></trkpt><trkpt lat="44.76506083192189" lon="7.312657724534633"><ele>358.0</ele><time>2026-04-09T16:05:45.001Z</time></trkpt><trkpt lat="44.76515010650422" lon="7.312544193224521"><ele>358.0</ele><time>2026-04-09T16:05:47.001Z</time></trkpt><trkpt lat="44.76523570315812" lon="7.312428915172134"><ele>358.0</ele><time>2026-04-09T16:05:49.001Z</time></trkpt><trkpt lat="44.76532542684503" lon="7.312324639513198"><ele>358.0</ele><time>2026-04-09T16:05:51.001Z</time></trkpt><trkpt lat="44.76541993210974" lon="7.312223310654233"><ele>358.0</ele><time>2026-04-09T16:05:53.001Z</time></trkpt><trkpt lat="44.76551581432263" lon="7.3121242426905955"><ele>358.0</ele><time>2026-04-09T16:05:55.001Z</time></trkpt><trkpt lat="44.76561140592157" lon="7.3120315972509955"><ele>358.0</ele><time>2026-04-09T16:05:57.001Z</time></trkpt><trkpt lat="44.76571019603805" lon="7.311944659152916"><ele>358.0</ele><time>2026-04-09T16:05:59.001Z</time></trkpt><trkpt lat="44.76580892373994" lon="7.3118601724058925"><ele>358.0</ele><time>2026-04-09T16:06:01.002Z</time></trkpt><trkpt lat="44.76590839382651" lon="7.311780443147522"><ele>358.0</ele><time>2026-04-09T16:06:03.002Z</time></trkpt><trkpt lat="44.76601365934729" lon="7.311707170624721"><ele>358.0</ele><time>2026-04-09T16:06:05.002Z</time></trkpt><trkpt lat="44.76612133164627" lon="7.311641507987358"><ele>358.0</ele><time>2026-04-09T16:06:07.002Z</time></trkpt><trkpt lat="44.76622938621417" lon="7.311574640175929"><ele>358.0</ele><time>2026-04-09T16:06:09.002Z</time></trkpt><trkpt lat="44.766338184748" lon="7.311511142171225"><ele>357.75</ele><time>2026-04-09T16:06:11.002Z</time></trkpt><trkpt lat="44.76644868746111" lon="7.31145549591304"><ele>357.5</ele><time>2026-04-09T16:06:13.002Z</time></trkpt><trkpt lat="44.766557517716" lon="7.311406328174975"><ele>357.25</ele><time>2026-04-09T16:06:15.002Z</time></trkpt><trkpt lat="44.7666700329434" lon="7.311364535694916"><ele>357.0</ele><time>2026-04-09T16:06:17.002Z</time></trkpt><trkpt lat="44.76678510667076" lon="7.3113242090561705"><ele>356.75</ele><time>2026-04-09T16:06:19Z</time></trkpt><trkpt lat="44.76690236070668" lon="7.311295246863926"><ele>356.5</ele><time>2026-04-09T16:06:21Z</time></trkpt><trkpt lat="44.76701675722146" lon="7.31126982357011"><ele>356.25</ele><time>2026-04-09T16:06:23Z</time></trkpt><trkpt lat="44.7671301616181" lon="7.311244392136264"><ele>356.0</ele><time>2026-04-09T16:06:25Z</time></trkpt><trkpt lat="44.767248818270296" lon="7.311224703699461"><ele>356.0</ele><time>2026-04-09T16:06:27Z</time></trkpt><trkpt lat="44.76737168953929" lon="7.311207910251432"><ele>356.0</ele><time>2026-04-09T16:06:29Z</time></trkpt><trkpt lat="44.76749485458331" lon="7.311192801870931"><ele>356.0</ele><time>2026-04-09T16:06:31Z</time></trkpt><trkpt lat="44.767612880708974" lon="7.311168369149483"><ele>356.0</ele><time>2026-04-09T16:06:33Z</time></trkpt><trkpt lat="44.76772811258464" lon="7.311148428345092"><ele>356.75</ele><time>2026-04-09T16:06:35Z</time></trkpt><trkpt lat="44.76784656585766" lon="7.311141537643646"><ele>357.5</ele><time>2026-04-09T16:06:37Z</time></trkpt><trkpt lat="44.767966345378234" lon="7.3111326775260705"><ele>358.25</ele><time>2026-04-09T16:06:39Z</time></trkpt><trkpt lat="44.768080939422724" lon="7.311116068500602"><ele>359.0</ele><time>2026-04-09T16:06:41Z</time></trkpt><trkpt lat="44.76819414884556" lon="7.311099042504092"><ele>359.0</ele><time>2026-04-09T16:06:43Z</time></trkpt><trkpt lat="44.7683106673308" lon="7.311083857735989"><ele>359.0</ele><time>2026-04-09T16:06:45Z</time></trkpt><trkpt lat="44.76842462261247" lon="7.311069621957258"><ele>359.0</ele><time>2026-04-09T16:06:47Z</time></trkpt><trkpt lat="44.76854038683161" lon="7.311053268010471"><ele>359.0</ele><time>2026-04-09T16:06:49Z</time></trkpt><trkpt lat="44.76865869907993" lon="7.311036531706039"><ele>359.0</ele><time>2026-04-09T16:06:51Z</time></trkpt><trkpt lat="44.76877601249352" lon="7.311022486367886"><ele>359.0</ele><time>2026-04-09T16:06:53Z</time></trkpt><trkpt lat="44.76889295110754" lon="7.3110073724482945"><ele>359.0</ele><time>2026-04-09T16:06:55Z</time></trkpt><trkpt lat="44.7690091967561" lon="7.310991365406777"><ele>359.0</ele><time>2026-04-09T16:06:57Z</time></trkpt><trkpt lat="44.76912345044587" lon="7.310975605034065"><ele>359.0</ele><time>2026-04-09T16:06:59Z</time></trkpt><trkpt lat="44.769238761239365" lon="7.310959935891353"><ele>359.0</ele><time>2026-04-09T16:07:01Z</time></trkpt><trkpt lat="44.76935481428043" lon="7.310944375698135"><ele>359.0</ele><time>2026-04-09T16:07:03Z</time></trkpt><trkpt lat="44.769470187919666" lon="7.310930651175268"><ele>359.0</ele><time>2026-04-09T16:07:05Z</time></trkpt><trkpt lat="44.769583128963134" lon="7.310915237345086"><ele>359.79999999999995</ele><time>2026-04-09T16:07:07Z</time></trkpt><trkpt lat="44.76969512906298" lon="7.310901588744149"><ele>360.59999999999997</ele><time>2026-04-09T16:07:09Z</time></trkpt><trkpt lat="44.76980520205778" lon="7.310888136524481"><ele>361.4</ele><time>2026-04-09T16:07:11Z</time></trkpt><trkpt lat="44.769915607171164" lon="7.310876804138834"><ele>362.2</ele><time>2026-04-09T16:07:13.001Z</time></trkpt><trkpt lat="44.7700212801043" lon="7.310860320522786"><ele>363.0</ele><time>2026-04-09T16:07:15.001Z</time></trkpt><trkpt lat="44.77011586907027" lon="7.310845707701132"><ele>362.79999999999995</ele><time>2026-04-09T16:07:17.001Z</time></trkpt><trkpt lat="44.77020598819362" lon="7.310839367859322"><ele>362.6</ele><time>2026-04-09T16:07:19.001Z</time></trkpt><trkpt lat="44.77030898355068" lon="7.310822976267069"><ele>362.4</ele><time>2026-04-09T16:07:21.001Z</time></trkpt><trkpt lat="44.77041746083417" lon="7.310807068234909"><ele>362.20000000000005</ele><time>2026-04-09T16:07:23.001Z</time></trkpt><trkpt lat="44.77052941472037" lon="7.310792353302177"><ele>362.0</ele><time>2026-04-09T16:07:25.001Z</time></trkpt><trkpt lat="44.77063655867965" lon="7.310773937588262"><ele>362.0</ele><time>2026-04-09T16:07:27.001Z</time></trkpt><trkpt lat="44.77074438119937" lon="7.310763123861962"><ele>362.0</ele><time>2026-04-09T16:07:29.001Z</time></trkpt><trkpt lat="44.7708487763835" lon="7.31074883579839"><ele>362.0</ele><time>2026-04-09T16:07:31.001Z</time></trkpt><trkpt lat="44.770953165398964" lon="7.3107334522377325"><ele>362.0</ele><time>2026-04-09T16:07:33.001Z</time></trkpt><trkpt lat="44.77106037924667" lon="7.310718329252131"><ele>362.0</ele><time>2026-04-09T16:07:35.001Z</time></trkpt><trkpt lat="44.771169270442805" lon="7.310705130082162"><ele>361.40000000000003</ele><time>2026-04-09T16:07:37.001Z</time></trkpt><trkpt lat="44.77127543604451" lon="7.3106914430755"><ele>360.8</ele><time>2026-04-09T16:07:39.001Z</time></trkpt><trkpt lat="44.77137909362883" lon="7.310658213563562"><ele>360.2</ele><time>2026-04-09T16:07:41.001Z</time></trkpt><trkpt lat="44.77148612555237" lon="7.310647140308573"><ele>359.6</ele><time>2026-04-09T16:07:43.001Z</time></trkpt><trkpt lat="44.771599404747754" lon="7.3106495408871695"><ele>359.0</ele><time>2026-04-09T16:07:45.001Z</time></trkpt><trkpt lat="44.77171747676663" lon="7.310626878851104"><ele>359.0</ele><time>2026-04-09T16:07:47.001Z</time></trkpt><trkpt lat="44.771837620490345" lon="7.310610943557313"><ele>359.0</ele><time>2026-04-09T16:07:49.001Z</time></trkpt><trkpt lat="44.771900762602414" lon="7.310603414284043"><ele>359.0</ele><time>2026-04-09T16:07:50.001Z</time></trkpt><trkpt lat="44.7720252924993" lon="7.310591236965452"><ele>359.0</ele><time>2026-04-09T16:07:52.001Z</time></trkpt><trkpt lat="44.77214838534911" lon="7.310573102758055"><ele>359.0</ele><time>2026-04-09T16:07:54.001Z</time></trkpt><trkpt lat="44.77227239600631" lon="7.31055459529061"><ele>359.0</ele><time>2026-04-09T16:07:56.001Z</time></trkpt><trkpt lat="44.77239417830938" lon="7.310535099227434"><ele>359.0</ele><time>2026-04-09T16:07:58.001Z</time></trkpt><trkpt lat="44.772457130329016" lon="7.310530346239054"><ele>359.0</ele><time>2026-04-09T16:07:59.001Z</time></trkpt><trkpt lat="44.77257944547699" lon="7.310517255636597"><ele>359.0</ele><time>2026-04-09T16:08:01.001Z</time></trkpt><trkpt lat="44.772698172575986" lon="7.3105013009884185"><ele>359.0</ele><time>2026-04-09T16:08:03.001Z</time></trkpt><trkpt lat="44.77281876253897" lon="7.310488784226921"><ele>359.25</ele><time>2026-04-09T16:08:05.002Z</time></trkpt><trkpt lat="44.772939320412284" lon="7.310471937502121"><ele>359.5</ele><time>2026-04-09T16:08:07.002Z</time></trkpt><trkpt lat="44.773059144789315" lon="7.310456015495292"><ele>359.75</ele><time>2026-04-09T16:08:09.002Z</time></trkpt><trkpt lat="44.773174366015965" lon="7.310438963389929"><ele>360.0</ele><time>2026-04-09T16:08:11.002Z</time></trkpt><trkpt lat="44.773271647125064" lon="7.310418966992189"><ele>360.0</ele><time>2026-04-09T16:08:13.002Z</time></trkpt><trkpt lat="44.773368017281" lon="7.3104071301756886"><ele>360.0</ele><time>2026-04-09T16:08:15.002Z</time></trkpt><trkpt lat="44.773467653146476" lon="7.3103965159298845"><ele>360.0</ele><time>2026-04-09T16:08:17.002Z</time></trkpt><trkpt lat="44.77357264363217" lon="7.310382918945899"><ele>360.0</ele><time>2026-04-09T16:08:19.002Z</time></trkpt><trkpt lat="44.773638248060244" lon="7.31037587349626"><ele>360.0</ele><time>2026-04-09T16:08:20.002Z</time></trkpt><trkpt lat="44.77371149563251" lon="7.310365343070444"><ele>360.0</ele><time>2026-04-09T16:08:21.002Z</time></trkpt><trkpt lat="44.77379209639304" lon="7.310358963662585"><ele>359.7142857142857</ele><time>2026-04-09T16:08:22.002Z</time></trkpt><trkpt lat="44.773870429129744" lon="7.310354325419931"><ele>359.42857142857144</ele><time>2026-04-09T16:08:23.002Z</time></trkpt><trkpt lat="44.77394286456473" lon="7.310341530676129"><ele>359.14285714285717</ele><time>2026-04-09T16:08:24Z</time></trkpt><trkpt lat="44.77401466634201" lon="7.310329159013568"><ele>358.8571428571429</ele><time>2026-04-09T16:08:25Z</time></trkpt><trkpt lat="44.77408539224066" lon="7.31031972005523"><ele>358.57142857142856</ele><time>2026-04-09T16:08:26Z</time></trkpt><trkpt lat="44.77415532598856" lon="7.310311798267403"><ele>358.28571428571433</ele><time>2026-04-09T16:08:27Z</time></trkpt><trkpt lat="44.774222808685" lon="7.310299495740116"><ele>358.0</ele><time>2026-04-09T16:08:28Z</time></trkpt><trkpt lat="44.77428638774542" lon="7.310288979080333"><ele>358.0</ele><time>2026-04-09T16:08:29Z</time></trkpt><trkpt lat="44.77435063596405" lon="7.310279778921502"><ele>358.0</ele><time>2026-04-09T16:08:30Z</time></trkpt><trkpt lat="44.77441571297479" lon="7.310271043519604"><ele>358.0</ele><time>2026-04-09T16:08:31Z</time></trkpt><trkpt lat="44.77448038081923" lon="7.310264745795595"><ele>358.0</ele><time>2026-04-09T16:08:32Z</time></trkpt><trkpt lat="44.7746021885338" lon="7.310248417452378"><ele>358.0</ele><time>2026-04-09T16:08:34Z</time></trkpt><trkpt lat="44.774721767440376" lon="7.310232938342786"><ele>358.0</ele><time>2026-04-09T16:08:36Z</time></trkpt><trkpt lat="44.77484069528482" lon="7.310216035534768"><ele>358.25</ele><time>2026-04-09T16:08:38Z</time></trkpt><trkpt lat="44.7749609560907" lon="7.310200851338902"><ele>358.5</ele><time>2026-04-09T16:08:40Z</time></trkpt><trkpt lat="44.775080750069634" lon="7.310183326677901"><ele>358.75</ele><time>2026-04-09T16:08:42Z</time></trkpt><trkpt lat="44.77520103297559" lon="7.310169947355051"><ele>359.0</ele><time>2026-04-09T16:08:44Z</time></trkpt><trkpt lat="44.77531668355927" lon="7.310151225125219"><ele>359.25</ele><time>2026-04-09T16:08:46Z</time></trkpt><trkpt lat="44.775431670195665" lon="7.310137025283291"><ele>359.5</ele><time>2026-04-09T16:08:48Z</time></trkpt><trkpt lat="44.775548286487385" lon="7.310121121626531"><ele>359.75</ele><time>2026-04-09T16:08:50Z</time></trkpt><trkpt lat="44.77566500310367" lon="7.310106428185139"><ele>360.0</ele><time>2026-04-09T16:08:52Z</time></trkpt><trkpt lat="44.77577714031955" lon="7.310087957376499"><ele>360.0</ele><time>2026-04-09T16:08:54Z</time></trkpt><trkpt lat="44.77588413338771" lon="7.310074879544431"><ele>360.0</ele><time>2026-04-09T16:08:56Z</time></trkpt><trkpt lat="44.77599250038539" lon="7.310061186148424"><ele>360.0</ele><time>2026-04-09T16:08:58Z</time></trkpt><trkpt lat="44.77609693070287" lon="7.310046978703561"><ele>360.0</ele><time>2026-04-09T16:09:00Z</time></trkpt><trkpt lat="44.77620074535631" lon="7.310029999731927"><ele>360.0</ele><time>2026-04-09T16:09:02Z</time></trkpt><trkpt lat="44.77630401756274" lon="7.3100192730891616"><ele>360.2</ele><time>2026-04-09T16:09:04Z</time></trkpt><trkpt lat="44.77640385729712" lon="7.31000333400978"><ele>360.4</ele><time>2026-04-09T16:09:06Z</time></trkpt><trkpt lat="44.77650555882819" lon="7.3099862398831705"><ele>360.6</ele><time>2026-04-09T16:09:08Z</time></trkpt><trkpt lat="44.77660805725334" lon="7.309968728805735"><ele>360.8</ele><time>2026-04-09T16:09:10Z</time></trkpt><trkpt lat="44.77670950750989" lon="7.3099613966691015"><ele>361.0</ele><time>2026-04-09T16:09:12Z</time></trkpt><trkpt lat="44.77681255185345" lon="7.309950609972648"><ele>360.6</ele><time>2026-04-09T16:09:14Z</time></trkpt><trkpt lat="44.776920469581306" lon="7.309935094085826"><ele>360.20000000000005</ele><time>2026-04-09T16:09:16Z</time></trkpt><trkpt lat="44.7770264496129" lon="7.309919244474676"><ele>359.79999999999995</ele><time>2026-04-09T16:09:18Z</time></trkpt><trkpt lat="44.77713211148244" lon="7.309905051267518"><ele>359.4</ele><time>2026-04-09T16:09:20.001Z</time></trkpt><trkpt lat="44.77723441876279" lon="7.309889503590223"><ele>359.0</ele><time>2026-04-09T16:09:22.001Z</time></trkpt><trkpt lat="44.777336686514644" lon="7.309876583020535"><ele>359.0</ele><time>2026-04-09T16:09:24.001Z</time></trkpt><trkpt lat="44.777439647983925" lon="7.309863171672119"><ele>359.0</ele><time>2026-04-09T16:09:26.001Z</time></trkpt><trkpt lat="44.777544736784066" lon="7.309848651949586"><ele>359.0</ele><time>2026-04-09T16:09:28.001Z</time></trkpt><trkpt lat="44.77764931319527" lon="7.309833608266565"><ele>359.0</ele><time>2026-04-09T16:09:30.001Z</time></trkpt><trkpt lat="44.77775117177457" lon="7.309822245931091"><ele>359.0</ele><time>2026-04-09T16:09:32.001Z</time></trkpt><trkpt lat="44.777852102698326" lon="7.309806948987196"><ele>359.0</ele><time>2026-04-09T16:09:34.001Z</time></trkpt><trkpt lat="44.777954885350084" lon="7.309794738162046"><ele>359.0</ele><time>2026-04-09T16:09:36.001Z</time></trkpt><trkpt lat="44.77805790854326" lon="7.309792200526344"><ele>359.0</ele><time>2026-04-09T16:09:38.001Z</time></trkpt><trkpt lat="44.778160494331175" lon="7.3097914841251415"><ele>359.0</ele><time>2026-04-09T16:09:40.001Z</time></trkpt><trkpt lat="44.778260840014184" lon="7.309791346059028"><ele>359.0</ele><time>2026-04-09T16:09:42.001Z</time></trkpt><trkpt lat="44.77836062904144" lon="7.3098009179529315"><ele>359.0</ele><time>2026-04-09T16:09:44.001Z</time></trkpt><trkpt lat="44.77845975815473" lon="7.309803118783152"><ele>359.0</ele><time>2026-04-09T16:09:46.001Z</time></trkpt><trkpt lat="44.77856225843162" lon="7.309817554168627"><ele>359.0</ele><time>2026-04-09T16:09:48.001Z</time></trkpt><trkpt lat="44.77866261342262" lon="7.309829222687587"><ele>359.0</ele><time>2026-04-09T16:09:50.001Z</time></trkpt><trkpt lat="44.7787644261021" lon="7.3098438886000165"><ele>359.0</ele><time>2026-04-09T16:09:52.001Z</time></trkpt><trkpt lat="44.77886784814727" lon="7.3098632640781975"><ele>359.2</ele><time>2026-04-09T16:09:54.001Z</time></trkpt><trkpt lat="44.77897387589807" lon="7.309891475814804"><ele>359.4</ele><time>2026-04-09T16:09:56.001Z</time></trkpt><trkpt lat="44.77908209874617" lon="7.309922768496175"><ele>359.6</ele><time>2026-04-09T16:09:58.001Z</time></trkpt><trkpt lat="44.77919010255196" lon="7.309959866943767"><ele>359.8</ele><time>2026-04-09T16:10:00.001Z</time></trkpt><trkpt lat="44.77929789281892" lon="7.30999843613989"><ele>360.0</ele><time>2026-04-09T16:10:02.001Z</time></trkpt><trkpt lat="44.77940490613305" lon="7.310038666529562"><ele>360.0</ele><time>2026-04-09T16:10:04.001Z</time></trkpt><trkpt lat="44.77950968566826" lon="7.310083435560468"><ele>360.0</ele><time>2026-04-09T16:10:06.001Z</time></trkpt><trkpt lat="44.77961237411435" lon="7.310130738844601"><ele>360.0</ele><time>2026-04-09T16:10:08.001Z</time></trkpt><trkpt lat="44.779712969016984" lon="7.310182720417571"><ele>360.0</ele><time>2026-04-09T16:10:10.002Z</time></trkpt><trkpt lat="44.77981152650911" lon="7.310234596115466"><ele>360.0</ele><time>2026-04-09T16:10:12.002Z</time></trkpt><trkpt lat="44.779908637062015" lon="7.310294432406533"><ele>360.0</ele><time>2026-04-09T16:10:14.002Z</time></trkpt><trkpt lat="44.78000330921689" lon="7.310353052915678"><ele>360.0</ele><time>2026-04-09T16:10:16.002Z</time></trkpt><trkpt lat="44.78009875683837" lon="7.310411467501215"><ele>360.0</ele><time>2026-04-09T16:10:18.002Z</time></trkpt><trkpt lat="44.78019386445621" lon="7.310474194781459"><ele>360.0</ele><time>2026-04-09T16:10:20.002Z</time></trkpt><trkpt lat="44.78028897320233" lon="7.3105329418239675"><ele>360.0</ele><time>2026-04-09T16:10:22.002Z</time></trkpt><trkpt lat="44.78038248054617" lon="7.310599354896397"><ele>360.6</ele><time>2026-04-09T16:10:24.002Z</time></trkpt><trkpt lat="44.780475513384715" lon="7.310665151834009"><ele>361.2</ele><time>2026-04-09T16:10:26.002Z</time></trkpt><trkpt lat="44.78057094825141" lon="7.310729014232789"><ele>361.79999999999995</ele><time>2026-04-09T16:10:28.002Z</time></trkpt><trkpt lat="44.78066423559468" lon="7.310792870708512"><ele>362.4</ele><time>2026-04-09T16:10:30Z</time></trkpt><trkpt lat="44.78075800702217" lon="7.31085762570651"><ele>363.0</ele><time>2026-04-09T16:10:32Z</time></trkpt><trkpt lat="44.780851773524404" lon="7.310921695541286"><ele>363.0</ele><time>2026-04-09T16:10:34Z</time></trkpt><trkpt lat="44.78094591936308" lon="7.310985070890447"><ele>363.0</ele><time>2026-04-09T16:10:36Z</time></trkpt><trkpt lat="44.78104033636949" lon="7.311045953664013"><ele>363.0</ele><time>2026-04-09T16:10:38Z</time></trkpt><trkpt lat="44.781133550687834" lon="7.311104384916992"><ele>363.0</ele><time>2026-04-09T16:10:40Z</time></trkpt><trkpt lat="44.7812259102331" lon="7.311166560417793"><ele>363.0</ele><time>2026-04-09T16:10:42Z</time></trkpt><trkpt lat="44.78131759992275" lon="7.31122769344045"><ele>363.2</ele><time>2026-04-09T16:10:44Z</time></trkpt><trkpt lat="44.78141056317599" lon="7.3112893576302085"><ele>363.4</ele><time>2026-04-09T16:10:46Z</time></trkpt><trkpt lat="44.78150343928934" lon="7.311351450336228"><ele>363.59999999999997</ele><time>2026-04-09T16:10:48Z</time></trkpt><trkpt lat="44.781597196617696" lon="7.311414612807866"><ele>363.79999999999995</ele><time>2026-04-09T16:10:50Z</time></trkpt><trkpt lat="44.78169220237146" lon="7.311473176660886"><ele>364.0</ele><time>2026-04-09T16:10:52Z</time></trkpt><trkpt lat="44.78178693354366" lon="7.311531528540883"><ele>364.0</ele><time>2026-04-09T16:10:54Z</time></trkpt><trkpt lat="44.78187921949565" lon="7.311594531602813"><ele>364.0</ele><time>2026-04-09T16:10:56Z</time></trkpt><trkpt lat="44.781969062318915" lon="7.311658233089237"><ele>364.0</ele><time>2026-04-09T16:10:58Z</time></trkpt><trkpt lat="44.78206238144393" lon="7.311715164749916"><ele>364.0</ele><time>2026-04-09T16:11:00Z</time></trkpt><trkpt lat="44.78215485102513" lon="7.311775119132226"><ele>364.0</ele><time>2026-04-09T16:11:02Z</time></trkpt><trkpt lat="44.782247157711495" lon="7.31183762980284"><ele>364.0</ele><time>2026-04-09T16:11:04Z</time></trkpt><trkpt lat="44.78233920982905" lon="7.311906295722615"><ele>364.0</ele><time>2026-04-09T16:11:06Z</time></trkpt><trkpt lat="44.7824373799154" lon="7.311966591123529"><ele>364.0</ele><time>2026-04-09T16:11:08Z</time></trkpt><trkpt lat="44.782537171358854" lon="7.312033217119297"><ele>364.0</ele><time>2026-04-09T16:11:10Z</time></trkpt><trkpt lat="44.78263883969622" lon="7.3121014832516975"><ele>364.0</ele><time>2026-04-09T16:11:12Z</time></trkpt><trkpt lat="44.782745388794574" lon="7.3121689761579916"><ele>364.0</ele><time>2026-04-09T16:11:14Z</time></trkpt><trkpt lat="44.78285021002984" lon="7.312238421192559"><ele>364.0</ele><time>2026-04-09T16:11:16Z</time></trkpt><trkpt lat="44.7829544042891" lon="7.312308240469832"><ele>364.0</ele><time>2026-04-09T16:11:18Z</time></trkpt><trkpt lat="44.78305878565963" lon="7.312378163190495"><ele>364.0</ele><time>2026-04-09T16:11:20Z</time></trkpt><trkpt lat="44.78316302268283" lon="7.312447997925251"><ele>364.0</ele><time>2026-04-09T16:11:22Z</time></trkpt><trkpt lat="44.78326470548042" lon="7.312519380689454"><ele>364.0</ele><time>2026-04-09T16:11:24Z</time></trkpt><trkpt lat="44.783369196087556" lon="7.312585110504349"><ele>364.0</ele><time>2026-04-09T16:11:26Z</time></trkpt><trkpt lat="44.783473203305576" lon="7.312651282566472"><ele>364.0</ele><time>2026-04-09T16:11:28.001Z</time></trkpt><trkpt lat="44.78357378000959" lon="7.31272025701648"><ele>364.6</ele><time>2026-04-09T16:11:30.001Z</time></trkpt><trkpt lat="44.78367268744065" lon="7.312787943792575"><ele>365.2</ele><time>2026-04-09T16:11:32.001Z</time></trkpt><trkpt lat="44.78377359431711" lon="7.3128571313277435"><ele>365.8</ele><time>2026-04-09T16:11:34.001Z</time></trkpt><trkpt lat="44.78387235217552" lon="7.312922816509945"><ele>366.40000000000003</ele><time>2026-04-09T16:11:36.001Z</time></trkpt><trkpt lat="44.783973345639964" lon="7.31298126403784"><ele>367.0</ele><time>2026-04-09T16:11:38.001Z</time></trkpt><trkpt lat="44.78406965393304" lon="7.313049144455437"><ele>366.6</ele><time>2026-04-09T16:11:40.001Z</time></trkpt><trkpt lat="44.78416726801839" lon="7.313116902713731"><ele>366.20000000000005</ele><time>2026-04-09T16:11:42.001Z</time></trkpt><trkpt lat="44.78426607543541" lon="7.3131767829968775"><ele>365.8</ele><time>2026-04-09T16:11:44.001Z</time></trkpt><trkpt lat="44.78436149337659" lon="7.313239387998619"><ele>365.4</ele><time>2026-04-09T16:11:46.001Z</time></trkpt><trkpt lat="44.78445657800914" lon="7.313305285256007"><ele>365.0</ele><time>2026-04-09T16:11:48.001Z</time></trkpt><trkpt lat="44.784551292291674" lon="7.313372925153362"><ele>365.0</ele><time>2026-04-09T16:11:50.001Z</time></trkpt><trkpt lat="44.78464609062109" lon="7.313434718755888"><ele>365.0</ele><time>2026-04-09T16:11:52.001Z</time></trkpt><trkpt lat="44.784742544476444" lon="7.313498922438531"><ele>365.0</ele><time>2026-04-09T16:11:54.001Z</time></trkpt><trkpt lat="44.78483610772881" lon="7.31356289186347"><ele>365.0</ele><time>2026-04-09T16:11:56.001Z</time></trkpt><trkpt lat="44.78493041594843" lon="7.313624827427334"><ele>365.0</ele><time>2026-04-09T16:11:58.001Z</time></trkpt><trkpt lat="44.78502330775316" lon="7.313687568274484"><ele>365.0</ele><time>2026-04-09T16:12:00.001Z</time></trkpt><trkpt lat="44.78511770163437" lon="7.313750934041457"><ele>365.0</ele><time>2026-04-09T16:12:02.001Z</time></trkpt><trkpt lat="44.78521128869978" lon="7.313811236410279"><ele>365.0</ele><time>2026-04-09T16:12:04.001Z</time></trkpt><trkpt lat="44.78530640614329" lon="7.313873298939095"><ele>365.0</ele><time>2026-04-09T16:12:06.001Z</time></trkpt><trkpt lat="44.78540213738818" lon="7.313938364717393"><ele>365.0</ele><time>2026-04-09T16:12:08.001Z</time></trkpt><trkpt lat="44.785498489289395" lon="7.314003770318324"><ele>364.8</ele><time>2026-04-09T16:12:10.001Z</time></trkpt><trkpt lat="44.78559329312453" lon="7.314068459140393"><ele>364.6</ele><time>2026-04-09T16:12:12.001Z</time></trkpt><trkpt lat="44.785690452022536" lon="7.31412507856916"><ele>364.4</ele><time>2026-04-09T16:12:14.001Z</time></trkpt><trkpt lat="44.78578372560374" lon="7.314194453157614"><ele>364.2</ele><time>2026-04-09T16:12:16.001Z</time></trkpt><trkpt lat="44.785880014930555" lon="7.314255978162569"><ele>364.0</ele><time>2026-04-09T16:12:18.001Z</time></trkpt><trkpt lat="44.78597600397193" lon="7.3143181057659525"><ele>364.4</ele><time>2026-04-09T16:12:20.002Z</time></trkpt><trkpt lat="44.786069197324075" lon="7.314380121540948"><ele>364.79999999999995</ele><time>2026-04-09T16:12:22.002Z</time></trkpt><trkpt lat="44.786164735857106" lon="7.314447436214476"><ele>365.20000000000005</ele><time>2026-04-09T16:12:24.002Z</time></trkpt><trkpt lat="44.78626036974645" lon="7.314513331685883"><ele>365.6</ele><time>2026-04-09T16:12:26.002Z</time></trkpt><trkpt lat="44.786355832739794" lon="7.314573970382722"><ele>366.0</ele><time>2026-04-09T16:12:28.002Z</time></trkpt><trkpt lat="44.78644970981927" lon="7.3146372657142065"><ele>366.0</ele><time>2026-04-09T16:12:30.002Z</time></trkpt><trkpt lat="44.78654333843817" lon="7.314704279512941"><ele>366.0</ele><time>2026-04-09T16:12:32.002Z</time></trkpt><trkpt lat="44.78663900188204" lon="7.314768116201208"><ele>366.0</ele><time>2026-04-09T16:12:34.002Z</time></trkpt><trkpt lat="44.78673643627668" lon="7.314822715274506"><ele>366.0</ele><time>2026-04-09T16:12:36Z</time></trkpt><trkpt lat="44.78682990793389" lon="7.314890994342852"><ele>366.0</ele><time>2026-04-09T16:12:38Z</time></trkpt><trkpt lat="44.78692496157099" lon="7.3149580662958025"><ele>366.4</ele><time>2026-04-09T16:12:40Z</time></trkpt><trkpt lat="44.78702243581033" lon="7.315020659667076"><ele>366.8</ele><time>2026-04-09T16:12:42Z</time></trkpt><trkpt lat="44.78711715806929" lon="7.3150830344956"><ele>367.2</ele><time>2026-04-09T16:12:44Z</time></trkpt><trkpt lat="44.78721341035424" lon="7.315145230680985"><ele>367.59999999999997</ele><time>2026-04-09T16:12:46Z</time></trkpt><trkpt lat="44.787309478708714" lon="7.315204823496467"><ele>368.0</ele><time>2026-04-09T16:12:48Z</time></trkpt><trkpt lat="44.78740704254617" lon="7.31526323564487"><ele>368.0</ele><time>2026-04-09T16:12:50Z</time></trkpt><trkpt lat="44.78750365416126" lon="7.31532365762193"><ele>368.0</ele><time>2026-04-09T16:12:52Z</time></trkpt><trkpt lat="44.7876027799529" lon="7.3153783459374875"><ele>368.0</ele><time>2026-04-09T16:12:54Z</time></trkpt><trkpt lat="44.78770059058199" lon="7.315430186561636"><ele>368.0</ele><time>2026-04-09T16:12:56Z</time></trkpt><trkpt lat="44.78780113258225" lon="7.315480278398323"><ele>368.0</ele><time>2026-04-09T16:12:58Z</time></trkpt><trkpt lat="44.78790161189127" lon="7.315531428635591"><ele>367.79999999999995</ele><time>2026-04-09T16:13:00Z</time></trkpt><trkpt lat="44.78800353457453" lon="7.315575212490876"><ele>367.6</ele><time>2026-04-09T16:13:02Z</time></trkpt><trkpt lat="44.78810630726086" lon="7.315611991645687"><ele>367.4</ele><time>2026-04-09T16:13:04Z</time></trkpt><trkpt lat="44.78820599113635" lon="7.31564828609472"><ele>367.20000000000005</ele><time>2026-04-09T16:13:06Z</time></trkpt><trkpt lat="44.788306439569354" lon="7.315680212056075"><ele>367.0</ele><time>2026-04-09T16:13:08Z</time></trkpt><trkpt lat="44.78840668364357" lon="7.315707359010325"><ele>367.0</ele><time>2026-04-09T16:13:10Z</time></trkpt><trkpt lat="44.78850486081071" lon="7.31572820796983"><ele>367.0</ele><time>2026-04-09T16:13:12Z</time></trkpt><trkpt lat="44.78860613060359" lon="7.315746416843938"><ele>367.0</ele><time>2026-04-09T16:13:14Z</time></trkpt><trkpt lat="44.78870452397445" lon="7.315766348478066"><ele>367.0</ele><time>2026-04-09T16:13:16Z</time></trkpt><trkpt lat="44.788802846361065" lon="7.315783031511552"><ele>367.0</ele><time>2026-04-09T16:13:18Z</time></trkpt><trkpt lat="44.78890370568761" lon="7.315796241934526"><ele>367.0</ele><time>2026-04-09T16:13:20Z</time></trkpt><trkpt lat="44.789004899752186" lon="7.3158052723993094"><ele>367.0</ele><time>2026-04-09T16:13:22Z</time></trkpt><trkpt lat="44.78910461784101" lon="7.315814924816284"><ele>367.0</ele><time>2026-04-09T16:13:24Z</time></trkpt><trkpt lat="44.78920416704161" lon="7.315819145743198"><ele>367.0</ele><time>2026-04-09T16:13:26Z</time></trkpt><trkpt lat="44.78930292804717" lon="7.315825237351284"><ele>367.0</ele><time>2026-04-09T16:13:28Z</time></trkpt><trkpt lat="44.78940180142146" lon="7.315832564980287"><ele>366.8</ele><time>2026-04-09T16:13:30Z</time></trkpt><trkpt lat="44.78949902160015" lon="7.315836287419848"><ele>366.6</ele><time>2026-04-09T16:13:32Z</time></trkpt><trkpt lat="44.78959659945662" lon="7.315842968205577"><ele>366.40000000000003</ele><time>2026-04-09T16:13:34Z</time></trkpt><trkpt lat="44.78969173460317" lon="7.3158506644692345"><ele>366.20000000000005</ele><time>2026-04-09T16:13:36Z</time></trkpt><trkpt lat="44.78978209054761" lon="7.315853105113374"><ele>366.0</ele><time>2026-04-09T16:13:38Z</time></trkpt><trkpt lat="44.78986473378061" lon="7.315856510319321"><ele>366.0</ele><time>2026-04-09T16:13:40.001Z</time></trkpt><trkpt lat="44.78993671751382" lon="7.315864004545638"><ele>366.0</ele><time>2026-04-09T16:13:42.001Z</time></trkpt><trkpt lat="44.79000257312576" lon="7.31586773653111"><ele>366.0</ele><time>2026-04-09T16:13:44.001Z</time></trkpt><trkpt lat="44.79007360951372" lon="7.315868320843215"><ele>366.0</ele><time>2026-04-09T16:13:46.001Z</time></trkpt><trkpt lat="44.79016302546247" lon="7.315873464734513"><ele>366.0</ele><time>2026-04-09T16:13:48.001Z</time></trkpt><trkpt lat="44.79026761357203" lon="7.315880565002599"><ele>366.0</ele><time>2026-04-09T16:13:50.001Z</time></trkpt><trkpt lat="44.79037822581942" lon="7.315891511305033"><ele>365.75</ele><time>2026-04-09T16:13:52.001Z</time></trkpt><trkpt lat="44.790492730113606" lon="7.3158951273792034"><ele>365.5</ele><time>2026-04-09T16:13:54.001Z</time></trkpt><trkpt lat="44.79060527811412" lon="7.315905731903011"><ele>365.25</ele><time>2026-04-09T16:13:56.001Z</time></trkpt><trkpt lat="44.79072088899042" lon="7.315917184489273"><ele>365.0</ele><time>2026-04-09T16:13:58.001Z</time></trkpt><trkpt lat="44.79083773619028" lon="7.315921171494848"><ele>365.0</ele><time>2026-04-09T16:14:00.001Z</time></trkpt><trkpt lat="44.790955869882126" lon="7.315928984657132"><ele>365.0</ele><time>2026-04-09T16:14:02.001Z</time></trkpt><trkpt lat="44.79107218382418" lon="7.315937460908972"><ele>365.0</ele><time>2026-04-09T16:14:04.001Z</time></trkpt><trkpt lat="44.79118567427448" lon="7.31594565465782"><ele>365.0</ele><time>2026-04-09T16:14:06.001Z</time></trkpt><trkpt lat="44.7912974642369" lon="7.315953026739386"><ele>365.0</ele><time>2026-04-09T16:14:08.001Z</time></trkpt><trkpt lat="44.79140931905213" lon="7.31595991813207"><ele>365.0</ele><time>2026-04-09T16:14:10.001Z</time></trkpt><trkpt lat="44.7915199069775" lon="7.315970184794486"><ele>365.0</ele><time>2026-04-09T16:14:12.001Z</time></trkpt><trkpt lat="44.79162849377093" lon="7.315974842178905"><ele>365.0</ele><time>2026-04-09T16:14:14.001Z</time></trkpt><trkpt lat="44.79173759075746" lon="7.315983540386843"><ele>365.0</ele><time>2026-04-09T16:14:16.001Z</time></trkpt><trkpt lat="44.791845272731535" lon="7.315993935653075"><ele>365.0</ele><time>2026-04-09T16:14:18.001Z</time></trkpt><trkpt lat="44.79195333488102" lon="7.315997693091467"><ele>365.0</ele><time>2026-04-09T16:14:20.001Z</time></trkpt><trkpt lat="44.79206096626496" lon="7.316005250209163"><ele>365.0</ele><time>2026-04-09T16:14:22.001Z</time></trkpt><trkpt lat="44.792168632362" lon="7.316011822599116"><ele>365.0</ele><time>2026-04-09T16:14:24.001Z</time></trkpt><trkpt lat="44.79227581899929" lon="7.316017300014159"><ele>365.0</ele><time>2026-04-09T16:14:26.001Z</time></trkpt><trkpt lat="44.792382165262936" lon="7.316022614100021"><ele>365.0</ele><time>2026-04-09T16:14:28.001Z</time></trkpt><trkpt lat="44.792488642144825" lon="7.316028267907709"><ele>365.0</ele><time>2026-04-09T16:14:30.002Z</time></trkpt><trkpt lat="44.792596795915244" lon="7.316032072909467"><ele>365.0</ele><time>2026-04-09T16:14:32.002Z</time></trkpt><trkpt lat="44.79270437695492" lon="7.3160390324655475"><ele>365.0</ele><time>2026-04-09T16:14:34.002Z</time></trkpt><trkpt lat="44.79281002498111" lon="7.316051044823821"><ele>365.0</ele><time>2026-04-09T16:14:36.002Z</time></trkpt><trkpt lat="44.79291615178722" lon="7.316058146438794"><ele>365.6</ele><time>2026-04-09T16:14:38.002Z</time></trkpt><trkpt lat="44.793023614685616" lon="7.316066084857327"><ele>366.2</ele><time>2026-04-09T16:14:40.002Z</time></trkpt><trkpt lat="44.79312994482046" lon="7.316073126047741"><ele>366.79999999999995</ele><time>2026-04-09T16:14:41.999Z</time></trkpt><trkpt lat="44.79323529190939" lon="7.316081029317888"><ele>367.4</ele><time>2026-04-09T16:14:43.999Z</time></trkpt><trkpt lat="44.793341629458254" lon="7.316085764744836"><ele>368.0</ele><time>2026-04-09T16:14:45.999Z</time></trkpt><trkpt lat="44.79344468232187" lon="7.316093889305906"><ele>368.4</ele><time>2026-04-09T16:14:47.999Z</time></trkpt><trkpt lat="44.793546497835045" lon="7.316098219766408"><ele>368.79999999999995</ele><time>2026-04-09T16:14:49.999Z</time></trkpt><trkpt lat="44.79364925434319" lon="7.316100997610343"><ele>369.2</ele><time>2026-04-09T16:14:51.999Z</time></trkpt><trkpt lat="44.79374872953196" lon="7.316111527304729"><ele>369.6</ele><time>2026-04-09T16:14:53.999Z</time></trkpt><trkpt lat="44.79384891423205" lon="7.316119346013334"><ele>370.0</ele><time>2026-04-09T16:14:55.999Z</time></trkpt><trkpt lat="44.7939513345756" lon="7.3161266971416765"><ele>370.0</ele><time>2026-04-09T16:14:58Z</time></trkpt><trkpt lat="44.79405291859585" lon="7.316130736877281"><ele>370.0</ele><time>2026-04-09T16:15:00Z</time></trkpt><trkpt lat="44.79415618530875" lon="7.316140641847974"><ele>370.0</ele><time>2026-04-09T16:15:02Z</time></trkpt><trkpt lat="44.79426073917402" lon="7.316146377414547"><ele>370.0</ele><time>2026-04-09T16:15:04Z</time></trkpt><trkpt lat="44.79436341522518" lon="7.316154918775386"><ele>370.0</ele><time>2026-04-09T16:15:06Z</time></trkpt><trkpt lat="44.79446420858442" lon="7.316156836648438"><ele>370.2</ele><time>2026-04-09T16:15:08Z</time></trkpt><trkpt lat="44.79456599002072" lon="7.31616396558918"><ele>370.4</ele><time>2026-04-09T16:15:10Z</time></trkpt><trkpt lat="44.79466716753004" lon="7.316167285091799"><ele>370.6</ele><time>2026-04-09T16:15:12Z</time></trkpt><trkpt lat="44.794767222089305" lon="7.3161747329589835"><ele>370.8</ele><time>2026-04-09T16:15:14Z</time></trkpt><trkpt lat="44.794864501554315" lon="7.3161849817860105"><ele>371.0</ele><time>2026-04-09T16:15:16Z</time></trkpt><trkpt lat="44.79496480953159" lon="7.3161900245052935"><ele>371.0</ele><time>2026-04-09T16:15:18Z</time></trkpt><trkpt lat="44.79506341342713" lon="7.316195479456211"><ele>371.0</ele><time>2026-04-09T16:15:20Z</time></trkpt><trkpt lat="44.79515841506149" lon="7.316201593558723"><ele>371.0</ele><time>2026-04-09T16:15:22Z</time></trkpt><trkpt lat="44.79525615341303" lon="7.316207853348773"><ele>371.0</ele><time>2026-04-09T16:15:24Z</time></trkpt><trkpt lat="44.79535517225055" lon="7.316216219047148"><ele>371.0</ele><time>2026-04-09T16:15:26Z</time></trkpt><trkpt lat="44.795453451530136" lon="7.316219451610687"><ele>371.0</ele><time>2026-04-09T16:15:28Z</time></trkpt><trkpt lat="44.79555229068766" lon="7.316222967692894"><ele>371.0</ele><time>2026-04-09T16:15:30Z</time></trkpt><trkpt lat="44.79565069522155" lon="7.316233303112424"><ele>371.0</ele><time>2026-04-09T16:15:32Z</time></trkpt><trkpt lat="44.7957504016531" lon="7.31624325832935"><ele>371.0</ele><time>2026-04-09T16:15:34Z</time></trkpt><trkpt lat="44.79584977285817" lon="7.316255119627562"><ele>371.0</ele><time>2026-04-09T16:15:36Z</time></trkpt><trkpt lat="44.79595256118598" lon="7.316258630920636"><ele>371.6</ele><time>2026-04-09T16:15:38Z</time></trkpt><trkpt lat="44.79605264755299" lon="7.316257614237039"><ele>372.20000000000005</ele><time>2026-04-09T16:15:40Z</time></trkpt><trkpt lat="44.796149435753" lon="7.316262008741816"><ele>372.79999999999995</ele><time>2026-04-09T16:15:42Z</time></trkpt><trkpt lat="44.796254125852094" lon="7.316268957548276"><ele>373.4</ele><time>2026-04-09T16:15:44.001Z</time></trkpt><trkpt lat="44.79635553754805" lon="7.316276410065883"><ele>374.0</ele><time>2026-04-09T16:15:46.001Z</time></trkpt><trkpt lat="44.7964559406678" lon="7.316282209564864"><ele>374.0</ele><time>2026-04-09T16:15:48.001Z</time></trkpt><trkpt lat="44.796558661795366" lon="7.316288693736185"><ele>374.0</ele><time>2026-04-09T16:15:50.001Z</time></trkpt><trkpt lat="44.796657940616136" lon="7.316297338443375"><ele>374.0</ele><time>2026-04-09T16:15:52.001Z</time></trkpt><trkpt lat="44.79675491632002" lon="7.316303045519279"><ele>374.0</ele><time>2026-04-09T16:15:54.001Z</time></trkpt><trkpt lat="44.79685041560981" lon="7.316306765336076"><ele>374.0</ele><time>2026-04-09T16:15:56.001Z</time></trkpt><trkpt lat="44.79694707333467" lon="7.316316304246888"><ele>373.2</ele><time>2026-04-09T16:15:58.001Z</time></trkpt><trkpt lat="44.79704501719468" lon="7.316323850359064"><ele>372.4</ele><time>2026-04-09T16:16:00.001Z</time></trkpt><trkpt lat="44.79714209068711" lon="7.3163327953548505"><ele>371.6</ele><time>2026-04-09T16:16:02.001Z</time></trkpt><trkpt lat="44.797240826728235" lon="7.316342835757363"><ele>370.8</ele><time>2026-04-09T16:16:04.001Z</time></trkpt><trkpt lat="44.797339046633496" lon="7.316351216456183"><ele>370.0</ele><time>2026-04-09T16:16:06.001Z</time></trkpt><trkpt lat="44.7974359014806" lon="7.316357731481213"><ele>370.0</ele><time>2026-04-09T16:16:08.001Z</time></trkpt><trkpt lat="44.79753206370624" lon="7.3163645591779805"><ele>370.0</ele><time>2026-04-09T16:16:10.001Z</time></trkpt><trkpt lat="44.79763233223631" lon="7.316370189156129"><ele>370.0</ele><time>2026-04-09T16:16:12.001Z</time></trkpt><trkpt lat="44.79773772304179" lon="7.316378831863645"><ele>370.0</ele><time>2026-04-09T16:16:14.001Z</time></trkpt><trkpt lat="44.79784798735268" lon="7.316378271665129"><ele>370.0</ele><time>2026-04-09T16:16:16.001Z</time></trkpt><trkpt lat="44.79795915467863" lon="7.316392797822788"><ele>370.0</ele><time>2026-04-09T16:16:18.001Z</time></trkpt><trkpt lat="44.7980718401342" lon="7.3163977338709305"><ele>370.0</ele><time>2026-04-09T16:16:20.001Z</time></trkpt><trkpt lat="44.798185084772946" lon="7.316401551793298"><ele>370.0</ele><time>2026-04-09T16:16:22.001Z</time></trkpt><trkpt lat="44.798300239484426" lon="7.316410791775769"><ele>370.0</ele><time>2026-04-09T16:16:24.001Z</time></trkpt><trkpt lat="44.798414906806286" lon="7.31641828322764"><ele>370.4</ele><time>2026-04-09T16:16:26.001Z</time></trkpt><trkpt lat="44.79852925286845" lon="7.316425241148782"><ele>370.8</ele><time>2026-04-09T16:16:28.001Z</time></trkpt><trkpt lat="44.79864227056307" lon="7.31643025641275"><ele>371.20000000000005</ele><time>2026-04-09T16:16:30.001Z</time></trkpt><trkpt lat="44.79875243035884" lon="7.316435687608938"><ele>371.6</ele><time>2026-04-09T16:16:32.002Z</time></trkpt><trkpt lat="44.79885935614472" lon="7.316443187939435"><ele>372.0</ele><time>2026-04-09T16:16:34.002Z</time></trkpt><trkpt lat="44.79896597724775" lon="7.316450664027054"><ele>372.0</ele><time>2026-04-09T16:16:36.002Z</time></trkpt><trkpt lat="44.79907125023007" lon="7.316459110026648"><ele>372.0</ele><time>2026-04-09T16:16:38.002Z</time></trkpt><trkpt lat="44.79917707895653" lon="7.316468080601194"><ele>372.0</ele><time>2026-04-09T16:16:40.002Z</time></trkpt><trkpt lat="44.79928185672913" lon="7.316473664297978"><ele>372.0</ele><time>2026-04-09T16:16:42.002Z</time></trkpt><trkpt lat="44.79938735388749" lon="7.31648121964797"><ele>372.0</ele><time>2026-04-09T16:16:44.002Z</time></trkpt><trkpt lat="44.799491257243666" lon="7.316486903923153"><ele>372.20000000000005</ele><time>2026-04-09T16:16:46.002Z</time></trkpt><trkpt lat="44.799595484142216" lon="7.3164934330796685"><ele>372.4</ele><time>2026-04-09T16:16:47.999Z</time></trkpt><trkpt lat="44.799698001040625" lon="7.316501027251428"><ele>372.6</ele><time>2026-04-09T16:16:49.999Z</time></trkpt><trkpt lat="44.79980096378352" lon="7.31651039069699"><ele>372.79999999999995</ele><time>2026-04-09T16:16:51.999Z</time></trkpt><trkpt lat="44.799905245374724" lon="7.316518781775211"><ele>373.0</ele><time>2026-04-09T16:16:53.999Z</time></trkpt><trkpt lat="44.80000619128714" lon="7.316521505806835"><ele>373.0</ele><time>2026-04-09T16:16:55.999Z</time></trkpt><trkpt lat="44.800106202374565" lon="7.316531264659005"><ele>373.0</ele><time>2026-04-09T16:16:57.999Z</time></trkpt><trkpt lat="44.80020662824639" lon="7.3165370020400164"><ele>373.0</ele><time>2026-04-09T16:16:59.999Z</time></trkpt><trkpt lat="44.80030638320978" lon="7.316541634282221"><ele>373.0</ele><time>2026-04-09T16:17:01.999Z</time></trkpt><trkpt lat="44.80040596184264" lon="7.316549177415429"><ele>373.0</ele><time>2026-04-09T16:17:03.999Z</time></trkpt><trkpt lat="44.80050532034523" lon="7.316553723734916"><ele>373.0</ele><time>2026-04-09T16:17:06Z</time></trkpt><trkpt lat="44.80061051410718" lon="7.3165533202319954"><ele>373.0</ele><time>2026-04-09T16:17:08Z</time></trkpt><trkpt lat="44.800716030669626" lon="7.316553781386838"><ele>373.0</ele><time>2026-04-09T16:17:10Z</time></trkpt><trkpt lat="44.800820505753215" lon="7.316557505362605"><ele>373.0</ele><time>2026-04-09T16:17:12Z</time></trkpt><trkpt lat="44.80092615917581" lon="7.316561659543091"><ele>373.0</ele><time>2026-04-09T16:17:14Z</time></trkpt><trkpt lat="44.801032478969525" lon="7.31656500795913"><ele>373.59999999999997</ele><time>2026-04-09T16:17:16Z</time></trkpt><trkpt lat="44.8011405206247" lon="7.316566920112501"><ele>374.2</ele><time>2026-04-09T16:17:18Z</time></trkpt><trkpt lat="44.80124689644456" lon="7.3165717423662455"><ele>374.8</ele><time>2026-04-09T16:17:20Z</time></trkpt><trkpt lat="44.80135459064945" lon="7.316573026649581"><ele>375.4</ele><time>2026-04-09T16:17:22Z</time></trkpt><trkpt lat="44.80145950100688" lon="7.316576660471114"><ele>376.0</ele><time>2026-04-09T16:17:24Z</time></trkpt><trkpt lat="44.801568765889705" lon="7.316580354893772"><ele>376.0</ele><time>2026-04-09T16:17:26Z</time></trkpt><trkpt lat="44.801676075456484" lon="7.316586978714125"><ele>376.0</ele><time>2026-04-09T16:17:28Z</time></trkpt><trkpt lat="44.80178147211331" lon="7.3165957180143515"><ele>376.0</ele><time>2026-04-09T16:17:30Z</time></trkpt><trkpt lat="44.80188750067997" lon="7.316603553562214"><ele>376.0</ele><time>2026-04-09T16:17:32Z</time></trkpt><trkpt lat="44.801994143809466" lon="7.316609805971677"><ele>376.0</ele><time>2026-04-09T16:17:34Z</time></trkpt><trkpt lat="44.802095989312505" lon="7.316613063142706"><ele>376.0</ele><time>2026-04-09T16:17:36Z</time></trkpt><trkpt lat="44.8021978741397" lon="7.316622992160283"><ele>376.0</ele><time>2026-04-09T16:17:38Z</time></trkpt><trkpt lat="44.80229686590475" lon="7.316631839098074"><ele>376.0</ele><time>2026-04-09T16:17:40Z</time></trkpt><trkpt lat="44.802392001979165" lon="7.316638599434266"><ele>376.0</ele><time>2026-04-09T16:17:42Z</time></trkpt><trkpt lat="44.80247736365204" lon="7.316645689137376"><ele>376.0</ele><time>2026-04-09T16:17:44Z</time></trkpt><trkpt lat="44.8025619861501" lon="7.316599742618092"><ele>376.0</ele><time>2026-04-09T16:17:46.001Z</time></trkpt><trkpt lat="44.802636286295744" lon="7.316566439682608"><ele>376.0</ele><time>2026-04-09T16:17:48.001Z</time></trkpt><trkpt lat="44.802708124395515" lon="7.3165927647544535"><ele>376.0</ele><time>2026-04-09T16:17:50.001Z</time></trkpt><trkpt lat="44.802763495277354" lon="7.316640293601329"><ele>376.0</ele><time>2026-04-09T16:17:52.001Z</time></trkpt><trkpt lat="44.80281295353375" lon="7.316710734842362"><ele>376.0</ele><time>2026-04-09T16:17:54.001Z</time></trkpt><trkpt lat="44.80286232978062" lon="7.3167973297427835"><ele>376.0</ele><time>2026-04-09T16:17:56.001Z</time></trkpt><trkpt lat="44.80293990050997" lon="7.3167450258828985"><ele>376.0</ele><time>2026-04-09T16:17:58.001Z</time></trkpt><trkpt lat="44.80301681183178" lon="7.316682842954338"><ele>376.0</ele><time>2026-04-09T16:18:00.001Z</time></trkpt><trkpt lat="44.80311398826194" lon="7.316712311844334"><ele>376.0</ele><time>2026-04-09T16:18:02.001Z</time></trkpt><trkpt lat="44.80320919422588" lon="7.31672539149777"><ele>376.0</ele><time>2026-04-09T16:18:04.001Z</time></trkpt><trkpt lat="44.80331453323676" lon="7.316731434817797"><ele>376.0</ele><time>2026-04-09T16:18:06.001Z</time></trkpt><trkpt lat="44.80342417994202" lon="7.316732923764702"><ele>376.0</ele><time>2026-04-09T16:18:08.001Z</time></trkpt><trkpt lat="44.80353627611058" lon="7.3167283702898676"><ele>376.0</ele><time>2026-04-09T16:18:10.001Z</time></trkpt><trkpt lat="44.8036459580614" lon="7.316719914394705"><ele>376.0</ele><time>2026-04-09T16:18:12.001Z</time></trkpt><trkpt lat="44.80375978080939" lon="7.316708743510877"><ele>376.0</ele><time>2026-04-09T16:18:14.001Z</time></trkpt><trkpt lat="44.8038703023254" lon="7.316693769847489"><ele>376.0</ele><time>2026-04-09T16:18:16.001Z</time></trkpt><trkpt lat="44.80398001092245" lon="7.316675639888198"><ele>376.0</ele><time>2026-04-09T16:18:18.001Z</time></trkpt><trkpt lat="44.804086825617986" lon="7.316651304975251"><ele>376.0</ele><time>2026-04-09T16:18:20.001Z</time></trkpt><trkpt lat="44.80419405002706" lon="7.316618948383254"><ele>376.0</ele><time>2026-04-09T16:18:22.001Z</time></trkpt><trkpt lat="44.804299430705036" lon="7.316589754561655"><ele>376.0</ele><time>2026-04-09T16:18:24.001Z</time></trkpt><trkpt lat="44.804405417483494" lon="7.31655746764483"><ele>376.0</ele><time>2026-04-09T16:18:26.001Z</time></trkpt><trkpt lat="44.80450892421971" lon="7.316525437057966"><ele>375.8</ele><time>2026-04-09T16:18:28.001Z</time></trkpt><trkpt lat="44.804611555870004" lon="7.316495297685065"><ele>375.6</ele><time>2026-04-09T16:18:30.001Z</time></trkpt><trkpt lat="44.80471307486251" lon="7.316458646557023"><ele>375.4</ele><time>2026-04-09T16:18:32.002Z</time></trkpt><trkpt lat="44.80481472692815" lon="7.31642599482873"><ele>375.2</ele><time>2026-04-09T16:18:34.002Z</time></trkpt><trkpt lat="44.804915133278726" lon="7.316396110077429"><ele>375.0</ele><time>2026-04-09T16:18:36.002Z</time></trkpt><trkpt lat="44.805013788359176" lon="7.316364012117238"><ele>375.6</ele><time>2026-04-09T16:18:38.002Z</time></trkpt><trkpt lat="44.80511353054603" lon="7.316337477114792"><ele>376.2</ele><time>2026-04-09T16:18:40.002Z</time></trkpt><trkpt lat="44.805210980915085" lon="7.31630684384727"><ele>376.79999999999995</ele><time>2026-04-09T16:18:42.002Z</time></trkpt><trkpt lat="44.80530995552056" lon="7.31627610762122"><ele>377.4</ele><time>2026-04-09T16:18:44.002Z</time></trkpt><trkpt lat="44.80540737522214" lon="7.316245607358018"><ele>378.0</ele><time>2026-04-09T16:18:46.002Z</time></trkpt><trkpt lat="44.80550895746278" lon="7.316216789371385"><ele>378.2</ele><time>2026-04-09T16:18:48.002Z</time></trkpt><trkpt lat="44.805611947276994" lon="7.316185854847927"><ele>378.4</ele><time>2026-04-09T16:18:50.002Z</time></trkpt><trkpt lat="44.805714396140694" lon="7.316153421449311"><ele>378.59999999999997</ele><time>2026-04-09T16:18:52.002Z</time></trkpt><trkpt lat="44.805817627859746" lon="7.316125641129542"><ele>378.79999999999995</ele><time>2026-04-09T16:18:54Z</time></trkpt><trkpt lat="44.80591825690696" lon="7.316095595276428"><ele>379.0</ele><time>2026-04-09T16:18:56Z</time></trkpt><trkpt lat="44.80601671021182" lon="7.316062595342831"><ele>379.2</ele><time>2026-04-09T16:18:58Z</time></trkpt><trkpt lat="44.80611649703745" lon="7.316033980286537"><ele>379.4</ele><time>2026-04-09T16:19:00Z</time></trkpt><trkpt lat="44.806213877509826" lon="7.316002423692192"><ele>379.6</ele><time>2026-04-09T16:19:02Z</time></trkpt><trkpt lat="44.806312684115234" lon="7.315972945656343"><ele>379.8</ele><time>2026-04-09T16:19:04Z</time></trkpt><trkpt lat="44.8064140444601" lon="7.315943808299493"><ele>380.0</ele><time>2026-04-09T16:19:06Z</time></trkpt><trkpt lat="44.80651854694599" lon="7.315912236183999"><ele>380.0</ele><time>2026-04-09T16:19:08Z</time></trkpt><trkpt lat="44.80662063726955" lon="7.315880944531914"><ele>380.0</ele><time>2026-04-09T16:19:10Z</time></trkpt><trkpt lat="44.80672429122477" lon="7.315852486276205"><ele>380.0</ele><time>2026-04-09T16:19:12Z</time></trkpt><trkpt lat="44.806826870286166" lon="7.315819748686259"><ele>380.0</ele><time>2026-04-09T16:19:14Z</time></trkpt><trkpt lat="44.80692780779145" lon="7.315786893208452"><ele>380.0</ele><time>2026-04-09T16:19:16Z</time></trkpt><trkpt lat="44.80702871976944" lon="7.3157574374133425"><ele>379.6</ele><time>2026-04-09T16:19:18Z</time></trkpt><trkpt lat="44.80713253278776" lon="7.315724221340562"><ele>379.2</ele><time>2026-04-09T16:19:20Z</time></trkpt><trkpt lat="44.80723694007029" lon="7.315692688336612"><ele>378.79999999999995</ele><time>2026-04-09T16:19:22Z</time></trkpt><trkpt lat="44.807339997861035" lon="7.315658475646996"><ele>378.4</ele><time>2026-04-09T16:19:24Z</time></trkpt><trkpt lat="44.80744053355677" lon="7.315626028350474"><ele>378.0</ele><time>2026-04-09T16:19:26Z</time></trkpt><trkpt lat="44.80754185193845" lon="7.315595940247456"><ele>378.0</ele><time>2026-04-09T16:19:28Z</time></trkpt><trkpt lat="44.807642343009455" lon="7.315567900936305"><ele>378.0</ele><time>2026-04-09T16:19:30Z</time></trkpt><trkpt lat="44.807743447275264" lon="7.315539898521543"><ele>378.0</ele><time>2026-04-09T16:19:32Z</time></trkpt><trkpt lat="44.80784403105578" lon="7.315508980153923"><ele>378.0</ele><time>2026-04-09T16:19:34Z</time></trkpt><trkpt lat="44.807943779684834" lon="7.315480666730674"><ele>378.0</ele><time>2026-04-09T16:19:36Z</time></trkpt><trkpt lat="44.80804273671028" lon="7.31545166891471"><ele>378.2</ele><time>2026-04-09T16:19:38Z</time></trkpt><trkpt lat="44.80814406270397" lon="7.315419192914371"><ele>378.4</ele><time>2026-04-09T16:19:40Z</time></trkpt><trkpt lat="44.80824685109167" lon="7.3153862529860305"><ele>378.59999999999997</ele><time>2026-04-09T16:19:42Z</time></trkpt><trkpt lat="44.80835192325439" lon="7.315356012733669"><ele>378.79999999999995</ele><time>2026-04-09T16:19:44Z</time></trkpt><trkpt lat="44.80845457566341" lon="7.315323852986402"><ele>379.0</ele><time>2026-04-09T16:19:46Z</time></trkpt><trkpt lat="44.80855717358628" lon="7.3152935193622355"><ele>379.0</ele><time>2026-04-09T16:19:48Z</time></trkpt><trkpt lat="44.808662171305976" lon="7.315262950717227"><ele>379.0</ele><time>2026-04-09T16:19:50.001Z</time></trkpt><trkpt lat="44.80876670176936" lon="7.31523110649985"><ele>379.0</ele><time>2026-04-09T16:19:52.001Z</time></trkpt><trkpt lat="44.80887037108537" lon="7.315197204996575"><ele>379.0</ele><time>2026-04-09T16:19:54.001Z</time></trkpt><trkpt lat="44.80897353576615" lon="7.315165841448369"><ele>379.0</ele><time>2026-04-09T16:19:56.001Z</time></trkpt><trkpt lat="44.80907554841568" lon="7.315118903274247"><ele>379.0</ele><time>2026-04-09T16:19:58.001Z</time></trkpt><trkpt lat="44.80917699242977" lon="7.315079129749999"><ele>379.0</ele><time>2026-04-09T16:20:00.001Z</time></trkpt><trkpt lat="44.809282069999384" lon="7.31505687778837"><ele>379.0</ele><time>2026-04-09T16:20:02.001Z</time></trkpt><trkpt lat="44.80938627132125" lon="7.315037469302758"><ele>379.0</ele><time>2026-04-09T16:20:04.001Z</time></trkpt><trkpt lat="44.80948988497527" lon="7.315008372123108"><ele>379.0</ele><time>2026-04-09T16:20:06.001Z</time></trkpt><trkpt lat="44.809590635016995" lon="7.314970870180064"><ele>379.6</ele><time>2026-04-09T16:20:08.001Z</time></trkpt><trkpt lat="44.8096951873499" lon="7.314942698556789"><ele>380.2</ele><time>2026-04-09T16:20:10.001Z</time></trkpt><trkpt lat="44.80980196282378" lon="7.314918968577588"><ele>380.8</ele><time>2026-04-09T16:20:12.001Z</time></trkpt><trkpt lat="44.80990512480489" lon="7.314885347265854"><ele>381.40000000000003</ele><time>2026-04-09T16:20:14.001Z</time></trkpt><trkpt lat="44.810012431278544" lon="7.314854128569136"><ele>382.0</ele><time>2026-04-09T16:20:16.001Z</time></trkpt><trkpt lat="44.810118880751105" lon="7.314822010169521"><ele>380.8</ele><time>2026-04-09T16:20:18.001Z</time></trkpt><trkpt lat="44.81022529239878" lon="7.314790299519232"><ele>379.6</ele><time>2026-04-09T16:20:20.001Z</time></trkpt><trkpt lat="44.810331734105546" lon="7.314757461223275"><ele>378.40000000000003</ele><time>2026-04-09T16:20:22.001Z</time></trkpt><trkpt lat="44.81043731267075" lon="7.3147275641157785"><ele>377.20000000000005</ele><time>2026-04-09T16:20:24.001Z</time></trkpt><trkpt lat="44.81054415887056" lon="7.314692789876807"><ele>376.0</ele><time>2026-04-09T16:20:26.001Z</time></trkpt><trkpt lat="44.81064747708468" lon="7.314660326115612"><ele>376.0</ele><time>2026-04-09T16:20:28.001Z</time></trkpt><trkpt lat="44.81075047503004" lon="7.314624608786406"><ele>376.0</ele><time>2026-04-09T16:20:30.001Z</time></trkpt><trkpt lat="44.81085170305459" lon="7.314597591289538"><ele>376.0</ele><time>2026-04-09T16:20:32.001Z</time></trkpt><trkpt lat="44.81095677424996" lon="7.314566998723834"><ele>376.0</ele><time>2026-04-09T16:20:34.001Z</time></trkpt><trkpt lat="44.8110641889623" lon="7.314534342650354"><ele>376.0</ele><time>2026-04-09T16:20:36.002Z</time></trkpt><trkpt lat="44.81117169523391" lon="7.314501661014649"><ele>376.0</ele><time>2026-04-09T16:20:38.002Z</time></trkpt><trkpt lat="44.811277190186" lon="7.3144681046164015"><ele>376.0</ele><time>2026-04-09T16:20:40.002Z</time></trkpt><trkpt lat="44.81138221197204" lon="7.314435382837214"><ele>376.0</ele><time>2026-04-09T16:20:42.002Z</time></trkpt><trkpt lat="44.81148669381323" lon="7.31440560911663"><ele>376.0</ele><time>2026-04-09T16:20:44.002Z</time></trkpt><trkpt lat="44.81159239871632" lon="7.314372371429788"><ele>376.0</ele><time>2026-04-09T16:20:46.002Z</time></trkpt><trkpt lat="44.81169315402057" lon="7.314338544560287"><ele>376.0</ele><time>2026-04-09T16:20:48.002Z</time></trkpt><trkpt lat="44.81179980695004" lon="7.314312027766408"><ele>376.0</ele><time>2026-04-09T16:20:50.002Z</time></trkpt><trkpt lat="44.811900743606" lon="7.314278194861135"><ele>376.0</ele><time>2026-04-09T16:20:52.002Z</time></trkpt><trkpt lat="44.81200730335535" lon="7.314247103196302"><ele>376.0</ele><time>2026-04-09T16:20:54.002Z</time></trkpt><trkpt lat="44.81211063884277" lon="7.314217815614496"><ele>376.0</ele><time>2026-04-09T16:20:56.002Z</time></trkpt><trkpt lat="44.812211510607916" lon="7.314188103418127"><ele>375.8</ele><time>2026-04-09T16:20:58.002Z</time></trkpt><trkpt lat="44.81231496123454" lon="7.3141575802006855"><ele>375.6</ele><time>2026-04-09T16:21:00Z</time></trkpt><trkpt lat="44.81241630772818" lon="7.314126782132507"><ele>375.4</ele><time>2026-04-09T16:21:02Z</time></trkpt><trkpt lat="44.81251676808923" lon="7.314093918791976"><ele>375.2</ele><time>2026-04-09T16:21:04Z</time></trkpt><trkpt lat="44.812615800843346" lon="7.314061739515598"><ele>375.0</ele><time>2026-04-09T16:21:06Z</time></trkpt><trkpt lat="44.81271521255244" lon="7.314032604453658"><ele>374.75</ele><time>2026-04-09T16:21:08Z</time></trkpt><trkpt lat="44.81282146732054" lon="7.314000655452828"><ele>374.5</ele><time>2026-04-09T16:21:10Z</time></trkpt><trkpt lat="44.812933953726166" lon="7.31396570245257"><ele>374.25</ele><time>2026-04-09T16:21:12Z</time></trkpt><trkpt lat="44.81304836451582" lon="7.3139304379402805"><ele>374.0</ele><time>2026-04-09T16:21:14Z</time></trkpt><trkpt lat="44.81315990370028" lon="7.313899687216403"><ele>374.0</ele><time>2026-04-09T16:21:16Z</time></trkpt><trkpt lat="44.81326421029088" lon="7.313868176023229"><ele>374.0</ele><time>2026-04-09T16:21:18Z</time></trkpt><trkpt lat="44.81335867133652" lon="7.3138401274281515"><ele>374.0</ele><time>2026-04-09T16:21:20Z</time></trkpt><trkpt lat="44.813450067987695" lon="7.313810861042044"><ele>374.0</ele><time>2026-04-09T16:21:22Z</time></trkpt><trkpt lat="44.81353645645224" lon="7.313783451416433"><ele>374.0</ele><time>2026-04-09T16:21:24Z</time></trkpt><trkpt lat="44.81363017621435" lon="7.313755670737954"><ele>374.4</ele><time>2026-04-09T16:21:26Z</time></trkpt><trkpt lat="44.81372389728848" lon="7.313725126297232"><ele>374.79999999999995</ele><time>2026-04-09T16:21:28Z</time></trkpt><trkpt lat="44.81381370836782" lon="7.313690324167102"><ele>375.20000000000005</ele><time>2026-04-09T16:21:30Z</time></trkpt><trkpt lat="44.813903068116794" lon="7.313656913024165"><ele>375.6</ele><time>2026-04-09T16:21:32Z</time></trkpt><trkpt lat="44.81399513802267" lon="7.3136179246250945"><ele>376.0</ele><time>2026-04-09T16:21:34Z</time></trkpt><trkpt lat="44.81408234550472" lon="7.313575470044078"><ele>376.0</ele><time>2026-04-09T16:21:36Z</time></trkpt><trkpt lat="44.81416925703304" lon="7.313526582250378"><ele>376.0</ele><time>2026-04-09T16:21:38Z</time></trkpt><trkpt lat="44.814255191240036" lon="7.313475549399031"><ele>376.0</ele><time>2026-04-09T16:21:40Z</time></trkpt><trkpt lat="44.81434165916459" lon="7.3134238741300805"><ele>376.0</ele><time>2026-04-09T16:21:42Z</time></trkpt><trkpt lat="44.814428431846174" lon="7.313370964701262"><ele>376.0</ele><time>2026-04-09T16:21:44Z</time></trkpt><trkpt lat="44.814511179796824" lon="7.31331662685319"><ele>376.0</ele><time>2026-04-09T16:21:46Z</time></trkpt><trkpt lat="44.81459347927512" lon="7.313257472327192"><ele>376.0</ele><time>2026-04-09T16:21:48Z</time></trkpt><trkpt lat="44.81467916224378" lon="7.313199063423958"><ele>376.0</ele><time>2026-04-09T16:21:50Z</time></trkpt><trkpt lat="44.814760401369504" lon="7.313139649181297"><ele>376.0</ele><time>2026-04-09T16:21:52Z</time></trkpt><trkpt lat="44.814836408502266" lon="7.313079838360514"><ele>376.0</ele><time>2026-04-09T16:21:54.001Z</time></trkpt><trkpt lat="44.814918138420396" lon="7.313021038285129"><ele>376.20000000000005</ele><time>2026-04-09T16:21:56.001Z</time></trkpt><trkpt lat="44.81500286657509" lon="7.312952254907814"><ele>376.40000000000003</ele><time>2026-04-09T16:21:58.001Z</time></trkpt><trkpt lat="44.815095420905266" lon="7.312889683809419"><ele>376.6</ele><time>2026-04-09T16:22:00.001Z</time></trkpt><trkpt lat="44.8151866843973" lon="7.3128245595365575"><ele>376.8</ele><time>2026-04-09T16:22:02.001Z</time></trkpt><trkpt lat="44.815276699722126" lon="7.312756449006964"><ele>377.0</ele><time>2026-04-09T16:22:04.001Z</time></trkpt><trkpt lat="44.81536427851597" lon="7.312685148220658"><ele>377.0</ele><time>2026-04-09T16:22:06.001Z</time></trkpt><trkpt lat="44.815451281332216" lon="7.3126187890170655"><ele>377.0</ele><time>2026-04-09T16:22:08.001Z</time></trkpt><trkpt lat="44.81553882613189" lon="7.312551337898465"><ele>377.0</ele><time>2026-04-09T16:22:10.001Z</time></trkpt><trkpt lat="44.81562694095209" lon="7.312482469939119"><ele>377.0</ele><time>2026-04-09T16:22:12.001Z</time></trkpt><trkpt lat="44.81571525068463" lon="7.312418832982113"><ele>377.0</ele><time>2026-04-09T16:22:14.001Z</time></trkpt><trkpt lat="44.8158034119586" lon="7.312351588427538"><ele>377.0</ele><time>2026-04-09T16:22:16.001Z</time></trkpt><trkpt lat="44.81589195964911" lon="7.312283175667425"><ele>377.0</ele><time>2026-04-09T16:22:18.001Z</time></trkpt><trkpt lat="44.815979549112335" lon="7.312218401631918"><ele>377.0</ele><time>2026-04-09T16:22:20.001Z</time></trkpt><trkpt lat="44.81606520738886" lon="7.312154120041005"><ele>377.0</ele><time>2026-04-09T16:22:22.001Z</time></trkpt><trkpt lat="44.81615144501004" lon="7.312088027195156"><ele>377.0</ele><time>2026-04-09T16:22:24.001Z</time></trkpt><trkpt lat="44.81623283359772" lon="7.31202103607912"><ele>376.6</ele><time>2026-04-09T16:22:26.001Z</time></trkpt><trkpt lat="44.81631682298927" lon="7.31195502682905"><ele>376.20000000000005</ele><time>2026-04-09T16:22:28.001Z</time></trkpt><trkpt lat="44.81640048403786" lon="7.311896375750683"><ele>375.8</ele><time>2026-04-09T16:22:30.001Z</time></trkpt><trkpt lat="44.81648468225172" lon="7.311837288153831"><ele>375.4</ele><time>2026-04-09T16:22:32.001Z</time></trkpt><trkpt lat="44.816569945172205" lon="7.311771774756309"><ele>375.0</ele><time>2026-04-09T16:22:34.001Z</time></trkpt><trkpt lat="44.8166544665522" lon="7.311707727684481"><ele>375.0</ele><time>2026-04-09T16:22:36.001Z</time></trkpt><trkpt lat="44.816742555133224" lon="7.31164233210497"><ele>375.0</ele><time>2026-04-09T16:22:38.001Z</time></trkpt><trkpt lat="44.81683430498031" lon="7.311573371952332"><ele>375.0</ele><time>2026-04-09T16:22:40.002Z</time></trkpt><trkpt lat="44.81692378398899" lon="7.3115016247518545"><ele>375.0</ele><time>2026-04-09T16:22:42.002Z</time></trkpt><trkpt lat="44.81701635936324" lon="7.31143241049346"><ele>375.0</ele><time>2026-04-09T16:22:44.002Z</time></trkpt><trkpt lat="44.81711238988432" lon="7.31136485127056"><ele>375.6</ele><time>2026-04-09T16:22:46.002Z</time></trkpt><trkpt lat="44.81720860650802" lon="7.311291371101517"><ele>376.2</ele><time>2026-04-09T16:22:48.002Z</time></trkpt><trkpt lat="44.8173037674992" lon="7.311220188728099"><ele>376.79999999999995</ele><time>2026-04-09T16:22:50.002Z</time></trkpt><trkpt lat="44.81739789870845" lon="7.311150179420389"><ele>377.4</ele><time>2026-04-09T16:22:52.002Z</time></trkpt><trkpt lat="44.81749221047672" lon="7.311079161732459"><ele>378.0</ele><time>2026-04-09T16:22:54.002Z</time></trkpt><trkpt lat="44.8175856529176" lon="7.3110086704514226"><ele>377.4</ele><time>2026-04-09T16:22:56.002Z</time></trkpt><trkpt lat="44.81767826422105" lon="7.310936320472217"><ele>376.79999999999995</ele><time>2026-04-09T16:22:58.002Z</time></trkpt><trkpt lat="44.817771976892516" lon="7.310866600229048"><ele>376.2</ele><time>2026-04-09T16:23:00.002Z</time></trkpt><trkpt lat="44.817864057231176" lon="7.310795438665038"><ele>375.6</ele><time>2026-04-09T16:23:02.002Z</time></trkpt><trkpt lat="44.81795803591654" lon="7.310723580106148"><ele>375.0</ele><time>2026-04-09T16:23:04.002Z</time></trkpt><trkpt lat="44.81804790414307" lon="7.310655140915034"><ele>375.0</ele><time>2026-04-09T16:23:06Z</time></trkpt><trkpt lat="44.818140305560775" lon="7.310585970975807"><ele>375.0</ele><time>2026-04-09T16:23:08Z</time></trkpt><trkpt lat="44.81823242014696" lon="7.310513544444294"><ele>375.0</ele><time>2026-04-09T16:23:10Z</time></trkpt><trkpt lat="44.81832439917481" lon="7.310445715465134"><ele>375.0</ele><time>2026-04-09T16:23:12Z</time></trkpt><trkpt lat="44.81841476828435" lon="7.310376767868874"><ele>375.0</ele><time>2026-04-09T16:23:14Z</time></trkpt><trkpt lat="44.81850468445752" lon="7.3103090601005105"><ele>375.4</ele><time>2026-04-09T16:23:16Z</time></trkpt><trkpt lat="44.81859565945864" lon="7.310243798636411"><ele>375.8</ele><time>2026-04-09T16:23:18Z</time></trkpt><trkpt lat="44.81868370287159" lon="7.310174714884184"><ele>376.20000000000005</ele><time>2026-04-09T16:23:20Z</time></trkpt><trkpt lat="44.818769727241445" lon="7.310108731915206"><ele>376.6</ele><time>2026-04-09T16:23:22Z</time></trkpt><trkpt lat="44.81885929543024" lon="7.31004085797924"><ele>377.0</ele><time>2026-04-09T16:23:24Z</time></trkpt><trkpt lat="44.81894748146658" lon="7.309974499744229"><ele>377.0</ele><time>2026-04-09T16:23:26Z</time></trkpt><trkpt lat="44.81903295054153" lon="7.3099040094074965"><ele>377.0</ele><time>2026-04-09T16:23:28Z</time></trkpt><trkpt lat="44.81912019555085" lon="7.309836608677849"><ele>377.0</ele><time>2026-04-09T16:23:30Z</time></trkpt><trkpt lat="44.81920847552599" lon="7.309774834601395"><ele>377.0</ele><time>2026-04-09T16:23:32Z</time></trkpt><trkpt lat="44.819294459752" lon="7.309711118348642"><ele>377.0</ele><time>2026-04-09T16:23:34Z</time></trkpt><trkpt lat="44.81938217071092" lon="7.309645203375045"><ele>377.6</ele><time>2026-04-09T16:23:36Z</time></trkpt><trkpt lat="44.81946638557847" lon="7.309580073186349"><ele>378.20000000000005</ele><time>2026-04-09T16:23:38Z</time></trkpt><trkpt lat="44.81955118034286" lon="7.309513407934824"><ele>378.8</ele><time>2026-04-09T16:23:40Z</time></trkpt><trkpt lat="44.819642844114846" lon="7.309448644572232"><ele>379.4</ele><time>2026-04-09T16:23:42Z</time></trkpt><trkpt lat="44.81973375189136" lon="7.309380585514301"><ele>380.0</ele><time>2026-04-09T16:23:44Z</time></trkpt><trkpt lat="44.8198246195592" lon="7.309309773634592"><ele>380.0</ele><time>2026-04-09T16:23:46Z</time></trkpt><trkpt lat="44.819915059284995" lon="7.309240695421674"><ele>380.0</ele><time>2026-04-09T16:23:48Z</time></trkpt><trkpt lat="44.82000689484686" lon="7.309172274874994"><ele>380.0</ele><time>2026-04-09T16:23:50Z</time></trkpt><trkpt lat="44.82009907022251" lon="7.309101971894455"><ele>380.0</ele><time>2026-04-09T16:23:52Z</time></trkpt><trkpt lat="44.8201905652508" lon="7.309031675986498"><ele>380.0</ele><time>2026-04-09T16:23:54Z</time></trkpt><trkpt lat="44.82028423199442" lon="7.308966022519158"><ele>380.6</ele><time>2026-04-09T16:23:56Z</time></trkpt><trkpt lat="44.82037754194272" lon="7.308895729520724"><ele>381.2</ele><time>2026-04-09T16:23:58.001Z</time></trkpt><trkpt lat="44.82047158210035" lon="7.308825480758598"><ele>381.79999999999995</ele><time>2026-04-09T16:24:00.001Z</time></trkpt><trkpt lat="44.82056498724039" lon="7.308752376336905"><ele>382.4</ele><time>2026-04-09T16:24:02.001Z</time></trkpt><trkpt lat="44.8206584510071" lon="7.308683677396097"><ele>383.0</ele><time>2026-04-09T16:24:04.001Z</time></trkpt><trkpt lat="44.820749324799905" lon="7.308617039896957"><ele>383.0</ele><time>2026-04-09T16:24:06.001Z</time></trkpt><trkpt lat="44.820837892203635" lon="7.308549278909751"><ele>383.0</ele><time>2026-04-09T16:24:08.001Z</time></trkpt><trkpt lat="44.82092330622856" lon="7.308476558362794"><ele>383.0</ele><time>2026-04-09T16:24:10.001Z</time></trkpt><trkpt lat="44.82100840828836" lon="7.308408212150693"><ele>383.0</ele><time>2026-04-09T16:24:12.001Z</time></trkpt><trkpt lat="44.82109197368801" lon="7.308350146256308"><ele>383.0</ele><time>2026-04-09T16:24:14.001Z</time></trkpt><trkpt lat="44.82115893504183" lon="7.308300060284829"><ele>383.2</ele><time>2026-04-09T16:24:16.001Z</time></trkpt><trkpt lat="44.821235671710916" lon="7.308237808323328"><ele>383.4</ele><time>2026-04-09T16:24:19.001Z</time></trkpt><trkpt lat="44.821307110580584" lon="7.308185041680608"><ele>383.59999999999997</ele><time>2026-04-09T16:24:21.001Z</time></trkpt><trkpt lat="44.821401436114236" lon="7.308132104742422"><ele>383.79999999999995</ele><time>2026-04-09T16:24:23.001Z</time></trkpt><trkpt lat="44.8214944137573" lon="7.308060772731261"><ele>384.0</ele><time>2026-04-09T16:24:25.001Z</time></trkpt><trkpt lat="44.82159237087659" lon="7.30799033014564"><ele>384.2</ele><time>2026-04-09T16:24:27.001Z</time></trkpt><trkpt lat="44.82168306505401" lon="7.307924876373902"><ele>384.4</ele><time>2026-04-09T16:24:29.001Z</time></trkpt><trkpt lat="44.821774702916834" lon="7.307852571160008"><ele>384.6</ele><time>2026-04-09T16:24:31.001Z</time></trkpt><trkpt lat="44.821867191023614" lon="7.307780449334671"><ele>384.8</ele><time>2026-04-09T16:24:33.001Z</time></trkpt><trkpt lat="44.82195740641941" lon="7.307708932110909"><ele>385.0</ele><time>2026-04-09T16:24:35.001Z</time></trkpt><trkpt lat="44.82204817917776" lon="7.307634619879865"><ele>384.6</ele><time>2026-04-09T16:24:37.001Z</time></trkpt><trkpt lat="44.82214114121416" lon="7.307566976625391"><ele>384.2</ele><time>2026-04-09T16:24:39.001Z</time></trkpt><trkpt lat="44.82223630070791" lon="7.307500258138452"><ele>383.79999999999995</ele><time>2026-04-09T16:24:41.001Z</time></trkpt><trkpt lat="44.82233262195903" lon="7.307431195054571"><ele>383.4</ele><time>2026-04-09T16:24:43.001Z</time></trkpt><trkpt lat="44.82243280792098" lon="7.307371285015165"><ele>383.0</ele><time>2026-04-09T16:24:45.002Z</time></trkpt><trkpt lat="44.8225376333928" lon="7.3073200681461525"><ele>383.0</ele><time>2026-04-09T16:24:47.002Z</time></trkpt><trkpt lat="44.82264123207333" lon="7.307280401733892"><ele>383.0</ele><time>2026-04-09T16:24:49.002Z</time></trkpt><trkpt lat="44.82273445827939" lon="7.307256734659502"><ele>383.0</ele><time>2026-04-09T16:24:51.002Z</time></trkpt><trkpt lat="44.822795053963794" lon="7.307222374451502"><ele>383.0</ele><time>2026-04-09T16:24:53.002Z</time></trkpt><trkpt lat="44.82281728685469" lon="7.307101035796968"><ele>383.0</ele><time>2026-04-09T16:24:55.002Z</time></trkpt><trkpt lat="44.822780170555504" lon="7.3069890330164995"><ele>383.0</ele><time>2026-04-09T16:24:57.002Z</time></trkpt><trkpt lat="44.82282887782285" lon="7.306894051394843"><ele>382.59999999999997</ele><time>2026-04-09T16:24:59.002Z</time></trkpt><trkpt lat="44.822909782996376" lon="7.306813109489402"><ele>382.2</ele><time>2026-04-09T16:25:01.002Z</time></trkpt><trkpt lat="44.822974497372755" lon="7.306712646717151"><ele>381.8</ele><time>2026-04-09T16:25:03.002Z</time></trkpt><trkpt lat="44.82304417755471" lon="7.306612974891486"><ele>381.4</ele><time>2026-04-09T16:25:05.002Z</time></trkpt><trkpt lat="44.82311159783809" lon="7.306513508568362"><ele>381.0</ele><time>2026-04-09T16:25:07.002Z</time></trkpt><trkpt lat="44.823175366152874" lon="7.306428344197682"><ele>381.3333333333333</ele><time>2026-04-09T16:25:09.002Z</time></trkpt><trkpt lat="44.82324626593617" lon="7.3063405829790975"><ele>381.6666666666667</ele><time>2026-04-09T16:25:11.002Z</time></trkpt><trkpt lat="44.823303721185255" lon="7.306254542578905"><ele>382.0</ele><time>2026-04-09T16:25:13Z</time></trkpt><trkpt lat="44.82336179329149" lon="7.3061704377502865"><ele>382.33333333333337</ele><time>2026-04-09T16:25:15Z</time></trkpt><trkpt lat="44.82342173417323" lon="7.306085711420741"><ele>382.6666666666667</ele><time>2026-04-09T16:25:17Z</time></trkpt><trkpt lat="44.8234812388053" lon="7.306001971626867"><ele>383.0</ele><time>2026-04-09T16:25:19Z</time></trkpt><trkpt lat="44.8235387769591" lon="7.30591627420458"><ele>383.0</ele><time>2026-04-09T16:25:21Z</time></trkpt><trkpt lat="44.823593847245135" lon="7.30583300707299"><ele>383.0</ele><time>2026-04-09T16:25:23Z</time></trkpt><trkpt lat="44.82364652125398" lon="7.3057601128549505"><ele>383.0</ele><time>2026-04-09T16:25:25Z</time></trkpt><trkpt lat="44.82369519498259" lon="7.305679879213611"><ele>383.0</ele><time>2026-04-09T16:25:27Z</time></trkpt><trkpt lat="44.82374847738809" lon="7.305587401838975"><ele>383.0</ele><time>2026-04-09T16:25:29Z</time></trkpt><trkpt lat="44.82380887725412" lon="7.305507331477911"><ele>383.0</ele><time>2026-04-09T16:25:31Z</time></trkpt><trkpt lat="44.82386455355116" lon="7.305421723521489"><ele>383.33333333333337</ele><time>2026-04-09T16:25:33Z</time></trkpt><trkpt lat="44.823920177551386" lon="7.305335407567797"><ele>383.6666666666667</ele><time>2026-04-09T16:25:35Z</time></trkpt><trkpt lat="44.8239763936087" lon="7.305241515355344"><ele>384.0</ele><time>2026-04-09T16:25:37Z</time></trkpt><trkpt lat="44.82402922086251" lon="7.30513824509012"><ele>384.33333333333337</ele><time>2026-04-09T16:25:39Z</time></trkpt><trkpt lat="44.82405556638384" lon="7.305020143597465"><ele>384.6666666666667</ele><time>2026-04-09T16:25:41Z</time></trkpt><trkpt lat="44.82410610653981" lon="7.304920921626704"><ele>385.0</ele><time>2026-04-09T16:25:43Z</time></trkpt><trkpt lat="44.82415873680748" lon="7.304833186086861"><ele>385.00000000000006</ele><time>2026-04-09T16:25:45Z</time></trkpt><trkpt lat="44.82420884506827" lon="7.3047524359842555"><ele>385.0</ele><time>2026-04-09T16:25:47Z</time></trkpt><trkpt lat="44.8242821181139" lon="7.30471695768496"><ele>385.0</ele><time>2026-04-09T16:25:50Z</time></trkpt><trkpt lat="44.82436158513818" lon="7.304704656845159"><ele>385.0</ele><time>2026-04-09T16:25:52Z</time></trkpt><trkpt lat="44.82443788007321" lon="7.304730908259255"><ele>385.00000000000006</ele><time>2026-04-09T16:25:54Z</time></trkpt><trkpt lat="44.82451508996431" lon="7.304731239041631"><ele>385.0</ele><time>2026-04-09T16:26:01.001Z</time></trkpt><trkpt lat="44.82456353323216" lon="7.304615193205574"><ele>385.2</ele><time>2026-04-09T16:26:04.001Z</time></trkpt><trkpt lat="44.82456779932448" lon="7.304484189345483"><ele>385.4</ele><time>2026-04-09T16:26:06.001Z</time></trkpt><trkpt lat="44.824570151185256" lon="7.304330993157259"><ele>385.6</ele><time>2026-04-09T16:26:08.001Z</time></trkpt><trkpt lat="44.82457233754347" lon="7.3041702180499195"><ele>385.8</ele><time>2026-04-09T16:26:10.001Z</time></trkpt><trkpt lat="44.8245767260721" lon="7.304016168764434"><ele>386.0</ele><time>2026-04-09T16:26:12.001Z</time></trkpt><trkpt lat="44.82458215515251" lon="7.303866255893853"><ele>386.49999999999994</ele><time>2026-04-09T16:26:14.001Z</time></trkpt><trkpt lat="44.824579854623735" lon="7.303725520899382"><ele>387.0</ele><time>2026-04-09T16:26:16.001Z</time></trkpt><trkpt lat="44.82458358869872" lon="7.303605891483056"><ele>387.5</ele><time>2026-04-09T16:26:18.001Z</time></trkpt><trkpt lat="44.824592463163825" lon="7.303485906076755"><ele>388.0</ele><time>2026-04-09T16:26:21.001Z</time></trkpt><trkpt lat="44.82459046767191" lon="7.303383357246409"><ele>388.49999999999994</ele><time>2026-04-09T16:26:24.001Z</time></trkpt><trkpt lat="44.824565873544685" lon="7.303300429975296"><ele>389.0</ele><time>2026-04-09T16:26:26.001Z</time></trkpt><trkpt lat="44.824567655472315" lon="7.303202734526156"><ele>388.99999999999994</ele><time>2026-04-09T16:26:28.001Z</time></trkpt><trkpt lat="44.82456271099763" lon="7.303092443676723"><ele>389.0</ele><time>2026-04-09T16:26:30.001Z</time></trkpt><trkpt lat="44.82456699863728" lon="7.302985862674649"><ele>389.0</ele><time>2026-04-09T16:26:32.001Z</time></trkpt><trkpt lat="44.82457245854224" lon="7.30285052902762"><ele>389.0</ele><time>2026-04-09T16:26:35.001Z</time></trkpt><trkpt lat="44.824572298035356" lon="7.302739825094428"><ele>388.99999999999994</ele><time>2026-04-09T16:26:37.001Z</time></trkpt><trkpt lat="44.824582429578285" lon="7.302631936635358"><ele>389.0</ele><time>2026-04-09T16:26:39.001Z</time></trkpt><trkpt lat="44.82457885794601" lon="7.3025102231090315"><ele>389.16666666666663</ele><time>2026-04-09T16:26:41.001Z</time></trkpt><trkpt lat="44.82456545466054" lon="7.302418232265394"><ele>389.3333333333333</ele><time>2026-04-09T16:26:43.001Z</time></trkpt><trkpt lat="44.82466229649156" lon="7.302356168504774"><ele>389.5</ele><time>2026-04-09T16:26:47.002Z</time></trkpt><trkpt lat="44.824731099674466" lon="7.302349701740399"><ele>389.66666666666663</ele><time>2026-04-09T16:26:49.002Z</time></trkpt><trkpt lat="44.82480917231279" lon="7.302362165104219"><ele>389.8333333333333</ele><time>2026-04-09T16:26:51.002Z</time></trkpt><trkpt lat="44.8248929918733" lon="7.302349374074552"><ele>390.0</ele><time>2026-04-09T16:26:53.002Z</time></trkpt><trkpt lat="44.82497330952817" lon="7.302346466105567"><ele>390.0</ele><time>2026-04-09T16:26:55.002Z</time></trkpt><trkpt lat="44.82505247256497" lon="7.302356414468632"><ele>390.0</ele><time>2026-04-09T16:26:57.002Z</time></trkpt><trkpt lat="44.82513303561571" lon="7.302352518721497"><ele>390.0</ele><time>2026-04-09T16:26:59.002Z</time></trkpt><trkpt lat="44.82521840972922" lon="7.302353049800288"><ele>390.0</ele><time>2026-04-09T16:27:01.002Z</time></trkpt><trkpt lat="44.8253018235539" lon="7.302358087984446"><ele>390.0</ele><time>2026-04-09T16:27:03.002Z</time></trkpt><trkpt lat="44.82539636486311" lon="7.302355643375742"><ele>390.0</ele><time>2026-04-09T16:27:05.002Z</time></trkpt><trkpt lat="44.82549545930696" lon="7.302345385186882"><ele>389.8333333333333</ele><time>2026-04-09T16:27:07.002Z</time></trkpt><trkpt lat="44.82559669121765" lon="7.302340993737768"><ele>389.66666666666663</ele><time>2026-04-09T16:27:09.002Z</time></trkpt><trkpt lat="44.82567024441021" lon="7.302365227987722"><ele>389.5</ele><time>2026-04-09T16:27:11.002Z</time></trkpt><trkpt lat="44.82573361341806" lon="7.302358033035697"><ele>389.3333333333333</ele><time>2026-04-09T16:27:14.002Z</time></trkpt><trkpt lat="44.82581318871253" lon="7.302418031326976"><ele>389.16666666666663</ele><time>2026-04-09T16:27:17.002Z</time></trkpt><trkpt lat="44.825907103354304" lon="7.302453876635962"><ele>389.0</ele><time>2026-04-09T16:27:19Z</time></trkpt><trkpt lat="44.82599268485236" lon="7.302470865880432"><ele>398.0</ele><time>2026-04-09T16:27:21Z</time></trkpt><trkpt lat="44.82605022033532" lon="7.302521516072421"><ele>398.0</ele><time>2026-04-09T16:27:23Z</time></trkpt><trkpt lat="44.826052544870876" lon="7.302613215578199"><ele>398.0</ele><time>2026-04-09T16:27:25Z</time></trkpt><trkpt lat="44.82603684504997" lon="7.302700108606669"><ele>398.0</ele><time>2026-04-09T16:27:27Z</time></trkpt><trkpt lat="44.826105611004834" lon="7.302738408598185"><ele>398.0</ele><time>2026-04-09T16:27:30Z</time></trkpt><trkpt lat="44.82614664695171" lon="7.302656658068403"><ele>398.0</ele><time>2026-04-09T16:27:34Z</time></trkpt></trkseg></trk></gpx>